     2              OBSERVATION DATA    G (GPS)             RINEX VERSION / TYPE
ASRINEXO V2.9.9 LH AIUB 01-FEB- 1 16:27                     PGM / RUN BY / DATE
BERN ASHTECH Z-12                                           COMMENT
BIT 2 OF LLI (+4) FLAGS DATA COLLECTED UNDER "AS" CONDITION COMMENT
USNB                                                        MARKER NAME
                                                            OBSERVER / AGENCY
? ASHTECH Z-XII3 1D15                                       REC # / TYPE / VERS
? CHOKE RING                                                ANT # / TYPE
  1112165.4000 -4842928.3300  3985524.2900                  APPROX POSITION XYZ
        0.0000        0.0000        0.0000                  ANTENNA: DELTA H/E/N
     1     1                                                WAVELENGTH FACT L1/2
     5    C1    L1    L2    P1    P2                        # / TYPES OF OBSERV
  2000     4    26     0     0   30.000000                  TIME OF FIRST OBS
                                                            END OF HEADER
 00  4 26  0  0 30.0000000  0  6 17 26 06 23 10 09
  20561868.697   -22607342.779 9 -17600576.66248  20561870.372    20561880.3154
  20091028.415   -23734127.413 9 -18479064.40848  20091029.262    20091038.0604
  22373576.573   -13906155.147 8 -10815110.06346  22373577.768    22373590.1084
  22740767.993   -11174078.636 8  -8696294.70347  22740769.684    22740781.3464
  23581142.464    -6852545.319 8  -5037227.95746  23581142.783    23581156.7164
  23758716.906    -3463791.311 8  -2688684.43545  23758711.528    23758727.2344
 00  4 26  0  1  0.0000000  0  6 17 26 06 23 10 09
  20552054.394   -22658916.010 9 -17640763.55848  20552056.281    20552066.2734
  20096918.037   -23703164.786 9 -18454937.67648  20096921.137    20096929.8754
  22389017.922   -13824994.356 8 -10751867.99046  22389022.882    22389034.7064
  22730065.933   -11230326.370 8  -8740124.03347  22730065.722    22730077.8754
  23595721.592    -6775915.414 8  -4977516.42746  23595725.373    23595738.0484
  23738970.843    -3567561.786 8  -2769544.19345  23738964.502    23738980.2244
 00  4 26  0  1 30.0000000  0  6 17 26 06 23 10 09
  20542319.857   -22710064.053 9 -17680619.14948  20542323.421    20542332.9044
  20102912.324   -23671668.358 9 -18430394.99248  20102914.486    20102923.5294
  22404529.165   -13743503.180 8 -10688368.46246  22404530.347    22404541.6944
  22719381.302   -11286454.318 8  -8783860.03247  22719384.490    22719396.9034
  23610317.272    -6699216.952 8  -4917751.46146  23610320.741    23610333.9264
  23719228.550    -3671259.227 8  -2850347.07546  23719231.728    23719247.3884
 00  4 26  0  2  0.0000000  0  6 17 26 06 23 10 09
  20532668.254   -22760789.637 9 -17720145.55448  20532670.504    20532680.1854
  20109009.899   -23639623.104 9 -18405424.65548  20109012.648    20109021.7064
  22420098.415   -13661670.763 8 -10624603.05846  22420102.347    22420114.6334
  22708724.653   -11342460.958 8  -8827501.49147  22708726.987    22708737.9144
  23624923.926    -6622472.801 8  -4857950.87045  23624923.508    23624937.6164
  23699503.898    -3774911.388 8  -2931114.67746  23699507.337    23699522.6594
 00  4 26  0  2 30.0000000  0  6 17 26 06 23 10 09
  20523095.700   -22811097.106 9 -17759346.15348  20523097.283    20523107.0634
  20115213.818   -23607028.966 9 -18380026.61148  20115215.128    20115224.3534
  22435735.845   -13579502.020 8 -10560575.57246  22435738.782    22435749.9584
  22698090.676   -11398343.931 8  -8871046.61247  22698092.366    22698103.9754
  23639535.529    -6545695.514 8  -4798124.49045  23639535.236    23639547.6534
  23679791.645    -3878514.289 8  -3011843.89346  23679792.092    23679807.2854
 00  4 26  0  3  0.0000000  0  6 17 26 06 23 10 09
  20513598.476   -22861003.905 9 -17798234.54448  20513600.582    20513609.9544
  20121517.553   -23573896.481 9 -18354209.08248  20121520.404    20121529.0114
  22451438.973   -13496998.481 8 -10496287.19546  22451439.535    22451450.4494
  22687481.570   -11454106.850 8  -8914498.14947  22687481.803    22687493.1474
  23654154.939    -6468891.921 8  -4738277.60946  23654151.155    23654163.5384
  23660083.170    -3982058.910 8  -3092527.69546  23660087.761    23660102.2424
 00  4 26  0  3 30.0000000  0  6 17 26 06 23 10 09
  20504176.097   -22910515.591 9 -17836815.05248  20504178.520    20504188.0824
  20127925.732   -23540222.218 9 -18327969.38948  20127928.447    20127937.5224
  22467195.196   -13414183.799 8 -10431756.38146  22467198.002    22467209.5874
  22676886.476   -11509761.925 8  -8957865.67147  22676890.544    22676903.0004
  23668764.924    -6392067.876 8  -4678414.79345  23668767.602    23668782.9354
  23640395.014    -4085534.416 8  -3173157.66446  23640397.430    23640412.2434
 00  4 26  0  4  0.0000000  0  6 17 26 06 23 10 09
  20494829.849   -22959629.491 9 -17875085.59148  20494832.747    20494842.2494
  20134434.787   -23506017.275 9 -18301316.17948  20134437.206    20134446.2274
  22483011.909   -13331075.121 8 -10366996.48646  22483013.105    22483025.5954
  22666318.948   -11565313.239 8  -9001152.35347  22666319.216    22666330.7914
  23683377.117    -6315224.163 8  -4618536.63545  23683391.062    23683404.9004
  23620720.503    -4188915.052 8  -3253713.71746  23620723.533    23620738.7664
 00  4 26  0  4 30.0000000  0  6 17 26 06 23 10 09
  20485560.075   -23008345.027 9 -17913045.70548  20485562.080    20485571.6084
  20141040.596   -23471299.922 9 -18274263.68248  20141043.771    20141052.5334
  22498878.122   -13247682.003 8 -10302014.94846  22498882.248    22498894.2674
  22655765.600   -11620768.803 8  -9044364.41747  22655766.850    22655778.0364
  23698029.094    -6238332.981 8  -4558621.45145  23698024.191    23698036.4104
  23601075.871    -4292160.714 8  -3334164.57146  23601075.722    23601091.4884
 00  4 26  0  5  0.0000000  0  6 17 26 06 23 10 09
  20476362.695   -23056667.843 9 -17950699.79048  20476366.527    20476375.9594
  20147743.410   -23436076.943 9 -18246817.19848  20147746.541    20147755.2624
  22514802.494   -13164005.855 8 -10236812.87046  22514805.872    22514817.7534
  22645228.612   -11676139.748 8  -9087510.53847  22645230.102    22645242.1044
  23712666.982    -6161380.010 8  -4498658.15145  23712667.561    23712680.6224
  23581451.600    -4395282.040 8  -3414518.56346  23581453.493    23581467.2904
 00  4 26  0  5 30.0000000  0  6 17 26 06 23 10 09
  20467246.732   -23104581.713 9 -17988035.22048  20467248.843    20467258.5114
  20154545.415   -23400332.016 9 -18218964.00348  20154548.450    20154557.0294
  22530777.798   -13080047.716 8 -10171391.06046  22530782.893    22530794.8324
  22634709.642   -11731413.683 8  -9130581.03847  22634711.842    22634722.9584
  23727331.157    -6084359.525 8  -4438642.29445  23727323.174    23727337.0194
  23561844.595    -4498289.781 8  -3494784.03646  23561851.535    23561866.0214
 00  4 26  0  6  0.0000000  0  6 17 26 06 23 10 09
  20458208.140   -23152084.492 9 -18025050.31748  20458209.061    20458219.1904
  20161444.259   -23364076.051 9 -18190712.58948  20161447.623    20161455.9624
  22546809.837   -12995807.199 8 -10105749.19746  22546813.036    22546825.4054
  22624212.586   -11786573.160 8  -9173562.34647  22624215.150    22624225.9354
  23741994.166    -6007255.311 8  -4378561.16245  23741997.307    23742010.4924
  23542272.576    -4601194.219 8  -3574969.02946  23542269.179    23542283.1364
 00  4 26  0  6 30.0000000  0  6 17 26 06 23 10 09
  20449243.244   -23199177.785 9 -18061746.33648  20449247.371    20449257.5754
  20168440.684   -23327305.964 9 -18162060.56748  20168444.435    20168453.5274
  22562893.578   -12911278.636 8 -10039882.89046  22562897.397    22562909.7674
  22613742.339   -11841603.967 8  -9216443.39847  22613743.171    22613753.9914
  23756684.891    -5930060.081 8  -4318409.06745  23756686.237    23756700.7304
  23522698.029    -4704009.366 8  -3655084.43846  23522703.553    23522717.4634
 00  4 26  0  7  0.0000000  0  6 17 26 06 23 10 09
  20440364.592   -23245843.385 9 -18098109.08548  20440367.258    20440377.1054
  20175539.534   -23290007.108 9 -18132996.52148  20175542.525    20175551.0184
  22579034.858   -12826465.765 8  -9973795.04346  22579037.318    22579049.1254
  22603296.896   -11896490.385 8  -9259211.95547  22603298.846    22603309.1054
  23771380.498    -5852792.463 8  -4258200.57845  23771389.774    23771403.1704
  23503141.504    -4806745.894 8  -3735138.60946  23503153.439    23503167.6254
 00  4 26  0  7 30.0000000  0  6 17 26 06 23 10 09
  20431568.013   -23292069.562 9 -18134129.42748  20431570.759    20431580.8474
  20182740.030   -23252172.778 9 -18103515.21848  20182742.270    20182750.9764
  22595229.716   -12741366.941 8  -9907484.39846  22595231.246    22595242.6354
  22592880.316   -11951225.341 8  -9301862.47347  22592882.593    22592894.0514
  23786099.251    -5775458.832 8  -4197940.70745  23786104.934    23786119.4784
  23483626.653    -4909380.626 8  -3815113.44046  23483622.851    23483636.3324
 00  4 26  0  8  0.0000000  0  6 17 26 06 23 10 09
  20422852.107   -23337862.218 9 -18169811.94948  20422856.749    20422866.9914
  20190038.770   -23213817.865 9 -18073628.26548  20190041.029    20190049.7684
  22611480.283   -12655975.739 8  -9840945.92246  22611481.356    22611493.6054
  22582489.026   -12005817.970 8  -9344402.07747  22582493.082    22582505.5844
  23800838.611    -5698068.496 8  -4137636.56845  23800833.250    23800846.2014
  23464105.917    -5011900.754 8  -3894998.99646  23464113.406    23464127.5954
 00  4 26  0  8 30.0000000  0  6 17 26 06 23 10 09
  20414225.081   -23383219.305 9 -18205155.07348  20414225.730    20414235.7884
  20197437.055   -23174934.880 9 -18043329.83148  20197440.294    20197448.9724
  22627786.977   -12570290.429 8  -9774178.28246  22627786.567    22627799.4724
  22572125.819   -12060285.492 8  -9386844.17647  22572128.355    22572140.3154
  23815561.290    -5620644.068 8  -4077305.88545  23815566.677    23815579.8594
  23444624.641    -5114295.864 8  -3974787.10146  23444627.931    23444641.6404
 00  4 26  0  9  0.0000000  0  6 17 26 06 23 10 09
  20405674.321   -23428139.371 9 -18240157.64848  20405677.267    20405687.4284
  20204933.489   -23135529.989 9 -18012624.72048  20204938.257    20204947.1504
  22644146.836   -12484306.780 8  -9707178.14746  22644147.491    22644160.9384
  22561783.269   -12114646.644 8  -9429203.41647  22561784.239    22561795.7204
  23830299.554    -5543196.064 8  -4016956.82945  23830303.377    23830318.2724
  23425163.993    -5216568.450 8  -4054479.74946  23425165.575    23425179.1714
 00  4 26  0  9 30.0000000  0  6 17 26 06 23 10 09
  20397207.978   -23472633.547 9 -18274828.35448  20397210.235    20397220.3374
  20212532.469   -23095616.495 9 -17981523.28448  20212533.642    20212542.6704
  22660563.426   -12398027.922 8  -9639948.00846  22660566.935    22660579.7364
  22551453.650   -12168917.844 8  -9471492.55847  22551456.502    22551468.1824
  23845048.686    -5465720.037 7  -3956585.96545  23845046.145    23845061.4994
  23405724.015    -5318725.388 8  -4134082.27846  23405725.863    23405739.3784
 00  4 26  0 10  0.0000000  0  6 17 26 06 23 10 09
  20388820.989   -23516701.603 9 -18309167.02148  20388824.466    20388834.4404
  20220221.963   -23055202.426 9 -17950031.79548  20220224.307    20220233.1924
  22677040.080   -12311463.760 8  -9572495.54546  22677039.889    22677051.5274
  22541144.239   -12223100.736 8  -9513712.86647  22541145.639    22541156.8704
  23859797.131    -5388213.836 8  -3896191.59845  23859796.734    23859810.7624
  23386303.184    -5420774.935 8  -4213601.14046  23386306.048    23386318.8384
 00  4 26  0 10 30.0000000  0  6 17 26 06 23 10 09
  20380518.362   -23560333.003 9 -18343165.43848  20380521.611    20380531.3874
  20228006.668   -23014287.797 9 -17918150.25748  20228010.205    20228018.9514
  22693556.371   -12224634.954 8  -9504836.85546  22693562.947    22693574.1984
  22530848.455   -12277194.570 8  -9555863.78147  22530851.463    22530863.2274
  23874553.181    -5310664.857 8  -3835763.82645  23874554.540    23874567.9074
  23366905.371    -5522721.931 8  -4293040.10946  23366905.953    23366919.6604
 00  4 26  0 11  0.0000000  0  6 17 26 06 23 10 09
  20372303.334   -23603515.794 9 -18376814.29048  20372304.497    20372313.6834
  20235886.566   -22972886.427 9 -17885889.44048  20235888.781    20235897.2764
  22710132.614   -12137561.672 8  -9436987.66046  22710132.129    22710143.9894
  22520577.074   -12331184.237 8  -9597933.54147  22520577.997    22520589.9144
  23889318.157    -5233057.630 8  -3775290.70445  23889321.942    23889335.5414
  23347526.587    -5624566.096 8  -4372398.92246  23347526.057    23347538.8764
 00  4 26  0 11 30.0000000  0  6 17 26 06 23 10 09
  20364170.409   -23646243.784 9 -18410108.75448  20364173.300    20364182.9854
  20243856.135   -22931002.407 9 -17853252.53648  20243858.956    20243867.9334
  22726741.581   -12050267.558 8  -9368966.37646  22726743.774    22726755.6014
  22510325.937   -12385058.886 8  -9639913.67347  22510325.547    22510337.5594
  23904094.690    -5155376.288 8  -3714759.86245  23904102.630    23904119.7474
  23328163.191    -5726291.681 8  -4451665.37746  23328167.433    23328180.8904
 00  4 26  0 12  0.0000000  0  6 17 26 06 23 10 09
  20356125.865   -23688512.845 9 -18443045.60948  20356129.630    20356139.6434
  20251918.645   -22888640.056 9 -17820242.89148  20251920.001    20251929.3264
  22743395.734   -11962750.933 8  -9300771.74846  22743397.220    22743410.6834
  22500094.730   -12438809.090 8  -9681796.82747  22500097.432    22500109.5244
  23918905.694    -5077626.861 8  -3654175.98745  23918898.691    23918914.4664
  23308839.103    -5827893.126 8  -4530835.06046  23308833.638    23308846.6684
 00  4 26  0 12 30.0000000  0  6 17 26 06 23 10 09
  20348171.221   -23730323.834 9 -18475625.52748  20348173.692    20348182.7504
  20260071.453   -22845796.160 9 -17786858.03448  20260073.438    20260082.0614
  22760092.468   -11875011.418 8  -9232403.39946  22760093.720    22760107.8994
  22489887.916   -12492446.179 8  -9723591.84447  22489891.127    22489902.3434
  23933706.043    -4999815.143 8  -3593543.52745  23933707.676    23933719.8564
  23289515.114    -5929369.170 8  -4609907.04746  23289522.830    23289536.5934
 00  4 26  0 13  0.0000000  0  6 17 26 06 23 10 09
  20340301.175   -23771683.240 9 -18507853.56848  20340302.693    20340312.1754
  20268314.324   -22802462.185 9 -17753091.29248  20268318.880    20268327.9834
  22776833.519   -11787039.468 8  -9163853.97046  22776834.977    22776848.5034
  22479698.681   -12545989.721 8  -9765313.98447  22479701.172    22479713.0334
  23948519.603    -4921952.803 8  -3532871.57845  23948523.374    23948536.7314
  23270236.899    -6030706.298 8  -4688870.81746  23270238.770    23270252.7034
 00  4 26  0 13 30.0000000  0  6 17 26 06 23 10 09
  20332512.756   -23812599.962 9 -18539736.65748  20332516.634    20332526.3834
  20276658.716   -22758619.818 9 -17718928.40348  20276661.911    20276670.8914
  22793617.428   -11698817.388 8  -9095109.62146  22793622.413    22793636.4034
  22469523.235   -12599455.963 8  -9806975.86247  22469526.915    22469538.1674
  23963344.850    -4844051.965 8  -3472169.64745  23963347.159    23963361.0344
  23250979.409    -6131896.833 8  -4767720.37446  23250982.499    23250995.9914
 00  4 26  0 14  0.0000000  0  6 17 26 06 23 10 09
  20324810.846   -23853076.905 9 -18571277.07648  20324813.855    20324823.6334
  20285099.776   -22714265.696 9 -17684366.74648  20285102.075    20285111.4484
  22810457.886   -11610341.676 8  -9026167.65446  22810459.054    22810472.2894
  22459363.136   -12652853.871 8  -9848584.51147  22459365.643    22459376.9994
  23978164.298    -4766128.980 8  -3411450.53045  23978174.938    23978190.7274
  23231753.116    -6232936.480 8  -4846452.31546  23231755.448    23231768.6954
 00  4 26  0 14 30.0000000  0  6 17 26 06 23 10 09
  20317193.895   -23893104.897 9 -18602467.66348  20317196.730    20317206.2944
  20293637.154   -22669396.791 9 -17649403.96448  20293639.971    20293649.2734
  22827335.136   -11521615.277 8  -8957030.31746  22827343.412    22827356.8294
  22449215.581   -12706183.885 8  -9890140.27847  22449216.840    22449227.9204
  23993005.233    -4688172.800 8  -3350705.50545  23993011.427    23993024.7704
  23212565.320    -6333803.038 8  -4925049.41346  23212561.089    23212575.0854
 00  4 26  0 15  0.0000000  0  6 17 26 06 23 10 09
  20309663.750   -23932681.054 9 -18633306.17248  20309666.216    20309675.2444
  20302273.765   -22624014.835 9 -17614041.39648  20302276.091    20302285.2154
  22844271.109   -11432642.082 8  -8887700.68446  22844274.348    22844288.4974
  22439084.846   -12759413.068 8  -9931617.47747  22439087.731    22439097.9074
  24007848.647    -4610184.071 8  -3289935.10645  24007851.199    24007864.6194
  23193397.705    -6434477.850 8  -5003497.11046  23193402.763    23193416.7664
 00  4 26  0 15 30.0000000  0  6 17 26 06 23 10 09
  20302219.170   -23971805.278 9 -18663792.53248  20302220.542    20302229.9454
  20311002.056   -22578141.424 9 -17578295.88548  20311005.514    20311014.9394
  22861249.834   -11343422.836 8  -8818179.32846  22861253.008    22861265.9174
  22428980.877   -12812506.717 8  -9972989.06547  22428984.248    22428995.6554
  24022692.022    -4532167.133 8  -3229142.69345  24022696.832    24022711.5864
  23174283.278    -6534959.037 8  -5081793.94146  23174281.903    23174295.7014
 00  4 26  0 16  0.0000000  0  6 17 26 06 23 10 09
  20294859.901   -24010472.582 9 -18693922.85148  20294862.513    20294871.6814
  20319822.614   -22531797.813 9 -17542183.98148  20319825.136    20319833.6644
  22878277.450   -11253956.686 8  -8748465.58646  22878277.529    22878290.8654
  22418907.414   -12865445.617 8 -10014240.06147  22418910.357    22418921.6304
  24037551.440    -4454112.276 8  -3168320.83945  24037549.689    24037564.2264
  23155192.804    -6635245.112 8  -5159938.72146  23155197.791    23155211.7994
 00  4 26  0 16 30.0000000  0  6 17 26 06 23 10 09
  20287588.798   -24048687.058 9 -18723700.32848  20287590.742    20287599.6504
  20328729.069   -22484980.907 9 -17505703.28348  20328733.543    20328742.9044
  22895348.803   -11164236.071 8  -8678553.55446  22895350.627    22895364.2814
  22408866.373   -12918218.087 8 -10055361.38847  22408868.679    22408879.2544
  24052408.458    -4376016.736 8  -3107467.24345  24052412.057    24052427.1084
  23136145.131    -6735341.817 8  -5237935.94946  23136149.300    23136163.6894
 00  4 26  0 17  0.0000000  0  6 17 26 06 23 10 09
  20280400.333   -24086453.727 9 -18753128.86748  20280403.630    20280413.3714
  20337728.012   -22437701.035 9 -17468861.82148  20337730.342    20337739.4564
  22912472.359   -11074273.413 8  -8608452.90946  22912469.965    22912482.6024
  22398854.831   -12970828.095 9 -10096356.13247  22398857.434    22398867.4164
  24067278.783    -4297885.181 8  -3046585.55645  24067280.191    24067294.8074
  23117130.556    -6835265.611 8  -5315798.41046  23117133.973    23117148.4974
 00  4 26  0 17 30.0000000  0  6 17 26 06 23 10 09
  20273303.512   -24123760.288 9 -18782198.88548  20273304.652    20273313.9774
  20346812.747   -22389972.846 9 -17431671.02748  20346813.350    20346822.0934
  22929631.260   -10984077.204 8  -8538170.24346  22929634.107    22929647.0494
  22388867.096   -13023313.089 8 -10137253.47347  22388868.573    22388879.9244
  24082151.688    -4219706.390 7  -2985667.07645  24082154.887    24082170.9094
  23098151.158    -6935038.271 8  -5393543.13046  23098148.266    23098162.2254
 00  4 26  0 18  0.0000000  0  6 17 26 06 23 10 09
  20266293.526   -24160593.954 9 -18810900.42248  20266295.385    20266304.6014
  20355978.830   -22341783.240 9 -17394120.69448  20355983.458    20355991.8644
  22946830.525   -10893671.025 8  -8467724.00546  22946838.491    22946852.1024
  22378896.995   -13075696.813 8 -10178071.90247  22378900.695    22378911.5184
  24097046.452    -4141464.083 7  -2924699.13245  24097044.138    24097060.2574
  23079190.409    -7034670.544 8  -5471178.47246  23079189.833    23079202.8974
 00  4 26  0 18 30.0000000  0  6 17 26 06 23 10 09
  20259374.248   -24196947.538 9 -18839227.86548  20259377.290    20259386.7954
  20365237.687   -22293134.602 9 -17356212.66648  20365240.789    20365250.2444
  22964076.258   -10803076.523 8  -8397131.01346  22964078.030    22964090.7714
  22368948.636   -13127993.791 8 -10218822.73547  22368948.628    22368959.5314
  24111945.612    -4063171.575 8  -2863692.00745  24111945.882    24111958.8384
  23060253.395    -7134165.617 8  -5548706.89946  23060255.084    23060269.1404
 00  4 26  0 19  0.0000000  0  6 17 26 06 23 10 09
  20252550.026   -24232806.098 9 -18867169.58248  20252553.706    20252563.1524
  20374580.362   -22244044.083 9 -17317960.32248  20374582.306    20374591.4034
  22981342.315   -10712310.968 8  -8326404.74646  22981349.454    22981363.1834
  22359009.698   -13180215.593 8 -10259515.00147  22359010.748    22359022.0754
  24126847.648    -3984832.109 8  -2802648.33345  24126851.675    24126867.8114
  23041339.796    -7233519.798 8  -5626125.55046  23041348.704    23041362.3394
 00  4 26  0 19 30.0000000  0  6 17 26 06 23 10 09
  20245821.561   -24268175.675 9 -18894730.27348  20245822.973    20245832.4594
  20384005.291   -22194508.024 9 -17279360.79748  20384008.950    20384018.0054
  22998658.265   -10621369.702 8  -8255541.57246  22998655.428    22998668.3134
  22349083.711   -13232358.574 8 -10300145.83647  22349088.504    22349099.7784
  24141763.181    -3906451.768 7  -2741572.83745  24141766.888    24141781.0754
  23022468.987    -7332714.825 8  -5703420.16346  23022471.802    23022486.3724
 00  4 26  0 20  0.0000000  0  6 17 26 06 23 10 09
  20239178.460   -24303070.912 9 -18921921.36248  20239182.509    20239192.1054
  20393518.263   -22144516.087 9 -17240406.03948  20393522.121    20393531.0664
  23015991.694   -10530237.416 8  -8184529.49746  23015997.120    23016011.1014
  22339184.920   -13284400.857 8 -10340698.22447  22339185.859    22339196.2484
  24156688.530    -3828046.893 8  -2680478.21145  24156686.996    24156702.2414
  23003630.117    -7431730.431 8  -5780574.97046  23003631.102    23003643.5184
 00  4 26  0 20 30.0000000  0  6 17 26 06 23 10 09
  20232629.551   -24337497.576 9 -18948747.31548  20232631.588    20232640.6724
  20403119.066   -22094074.289 9 -17201100.74748  20403120.921    20403130.0124
  23033376.143   -10438891.213 8  -8113350.79146  23033380.467    23033393.9374
  22329298.311   -13336333.851 8 -10381165.44647  22329302.751    22329314.0644
  24171604.249    -3749623.308 8  -2619368.97645  24171610.518    24171623.2274
  22984824.634    -7530548.146 8  -5857575.60446  22984826.613    22984838.2884
 00  4 26  0 21  0.0000000  0  6 17 26 06 23 10 09
  20226166.745   -24371462.113 9 -18975213.15248  20226168.237    20226177.8134
  20412803.780   -22043173.722 9 -17161437.97948  20412807.028    20412815.9904
  23050805.381   -10347325.148 8  -8042000.73646  23050805.066    23050817.8854
  22319440.899   -13388152.703 9 -10421543.71847  22319442.710    22319453.3034
  24186535.378    -3671161.266 8  -2558229.75445  24186541.127    24186555.9454
  22966055.875    -7629156.125 8  -5934412.79346  22966060.892    22966073.9504
 00  4 26  0 21 30.0000000  0  6 17 26 06 23 10 09
  20219789.145   -24404962.613 9 -19001317.41948  20219793.257    20219802.7904
  20422579.033   -21991807.903 9 -17121412.66748  20422581.482    20422590.5754
  23068270.568   -10255527.885 8  -7970470.53046  23068273.447    23068286.8444
  22309602.981   -13439849.034 9 -10461826.52447  22309605.115    22309615.3014
  24201479.283    -3592645.783 8  -2497048.93845  24201481.918    24201497.7384
  22947331.684    -7727552.730 8  -6011085.27946  22947336.872    22947349.5754
 00  4 26  0 22  0.0000000  0  6 17 26 06 23 10 09
  20213508.421   -24437978.047 9 -19027043.70948  20213510.848    20213520.1294
  20432443.078   -21939974.131 9 -17081022.71348  20432445.249    20432454.0114
  23085781.055   -10163506.934 8  -7898766.02746  23085785.015    23085797.8844
  22299787.035   -13491429.269 9 -10502018.86747  22299789.584    22299799.9904
  24216428.160    -3514067.633 8  -2435819.32145  24216436.125    24216450.5984
  22928647.544    -7825752.458 8  -6087604.32046  22928649.037    22928662.9604
 00  4 26  0 22 30.0000000  0  6 17 26 06 23 10 09
  20207319.394   -24470500.885 9 -19052386.15748  20207321.892    20207330.7524
  20442392.615   -21887678.551 9 -17040272.91448  20442396.508    20442405.5744
  23103330.584   -10071288.866 8  -7826907.94646  23103333.279    23103346.2234
  22289989.600   -13542904.201 8 -10542129.16447  22289993.969    22290004.7084
  24231404.016    -3435417.461 8  -2374533.60845  24231402.140    24231415.5194
  22909996.447    -7923749.780 8  -6163965.65646  22910001.424    22910014.0514
 00  4 26  0 23  0.0000000  0  6 17 26 06 23 10 09
  20201226.553   -24502521.907 9 -19077337.58248  20201228.407    20201237.9154
  20452432.752   -21834925.218 9 -16999166.41948  20452435.343    20452444.4084
  23120913.159    -9978893.068 8  -7754911.34346  23120915.798    23120928.2074
  22280212.749   -13594280.455 9 -10582162.54547  22280217.594    22280228.5184
  24246376.773    -3356706.870 8  -2313200.69945  24246380.715    24246393.9824
  22891394.494    -8021545.071 8  -6240169.57746  22891392.012    22891404.1704
 00  4 26  0 23 30.0000000  0  6 17 26 06 23 10 09
  20195232.450   -24534027.788 9 -19101887.59748  20195233.236    20195242.7014
  20462557.102   -21781719.907 9 -16957707.73348  20462559.431    20462569.0264
  23138527.562    -9886329.353 8  -7682783.89546  23138530.523    23138543.0404
  22270454.283   -13645556.216 8 -10622117.62347  22270459.479    22270471.1194
  24261370.833    -3277957.006 7  -2251837.27245  24261365.699    24261379.9294
  22872813.715    -8119132.190 8  -6316211.30446  22872821.030    22872833.4274
 00  4 26  0 24  0.0000000  0  6 17 26 06 23 10 09
  20189332.935   -24565022.758 9 -19126039.49048  20189334.953    20189344.5824
  20472766.714   -21728074.824 9 -16915906.36948  20472767.954    20472777.2364
  23156169.020    -9793609.362 8  -7610534.68446  23156174.270    23156187.1394
  22260716.088   -13696738.000 8 -10661999.45947  22260720.040    22260731.8024
  24276361.142    -3199185.703 8  -2190457.16945  24276356.098    24276370.8884
  22854291.055    -8216495.302 8  -6392078.47146  22854293.062    22854305.8334
 00  4 26  0 24 30.0000000  0  6 17 26 06 23 10 09
  20183528.299   -24595521.688 9 -19149804.86948  20183531.010    20183540.0964
  20483055.595   -21674001.710 9 -16873771.46648  20483057.962    20483067.0184
  23173842.345    -9700726.374 8  -7538158.46846  23173848.625    23173862.2804
  22250998.464   -13747812.940 9 -10701798.03247  22251000.516    22251011.7864
  24291353.504    -3120402.499 7  -2129067.77145  24291347.512    24291362.4784
  22835812.536    -8313613.896 8  -6467755.10646  22835811.760    22835824.4844
 00  4 26  0 25  0.0000000  0  6 17 26 06 23 10 09
  20177820.472   -24625519.313 9 -19173179.61148  20177822.738    20177832.2624
  20493425.607   -21619506.853 9 -16831307.94348  20493427.718    20493436.7454
  23191556.746    -9607671.044 8  -7465647.97346  23191558.015    23191571.2484
  22241301.035   -13798771.466 9 -10741505.89347  22241303.745    22241314.5624
  24306345.942    -3041608.407 8  -2067669.89845  24306343.392    24306356.9344
  22817379.114    -8410491.426 8  -6543243.89546  22817376.656    22817388.9944
 00  4 26  0 25 30.0000000  0  6 17 26 06 23 10 09
  20172205.969   -24655026.571 9 -19196172.24048  20172207.523    20172217.2984
  20503874.435   -21564596.886 9 -16788520.95248  20503877.230    20503886.2084
  23209298.040    -9514432.237 8  -7392994.50846  23209300.525    23209312.6924
  22231629.491   -13849603.715 9 -10781115.33447  22231631.223    22231641.8344
  24321348.677    -2962787.363 7  -2006250.98845  24321341.622    24321355.2224
  22798984.604    -8507125.830 8  -6618543.24046  22798988.294    22799000.8734
 00  4 26  0 26  0.0000000  0  6 17 26 06 23 10 09
  20166680.048   -24684055.721 9 -19218792.31548  20166683.424    20166692.6584
  20514400.281   -21509268.970 9 -16745408.28248  20514405.653    20514414.6124
  23227079.622    -9421000.043 8  -7320190.32246  23227079.829    23227092.3054
  22221975.887   -13900313.599 9 -10820629.43547  22221981.370    22221991.7914
  24336350.716    -2883918.910 7  -1944795.18545  24336349.584    24336363.3514
  22780637.561    -8603529.140 8  -6693662.51746  22780642.940    22780655.8624
 00  4 26  0 26 30.0000000  0  6 17 26 06 23 10 09
  20161250.475   -24712592.712 9 -19241028.88448  20161253.038    20161262.2974
  20525012.895   -21453508.938 9 -16701958.90648  20525016.667    20525025.3924
  23244892.689    -9327377.779 8  -7247238.04446  23244894.752    23244908.9634
  22212352.132   -13950894.263 9 -10860042.85447  22212355.425    22212366.2864
  24351367.811    -2804993.300 7  -1883294.79845  24351368.357    24351382.5954
  22762335.721    -8699707.761 8  -6768606.72846  22762340.511    22762352.9224
 00  4 26  0 27  0.0000000  0  6 17 26 06 23 10 09
  20155916.940   -24740616.934 9 -19262865.90148  20155920.074    20155929.5634
  20535705.187   -21397316.589 9 -16658172.66048  20535709.094    20535718.4154
  23262744.326    -9233580.428 8  -7174149.37146  23262743.989    23262758.1704
  22202752.629   -14001354.586 9 -10899362.48347  22202752.856    22202764.5714
  24366400.137    -2726001.874 7  -1821743.12745  24366400.026    24366415.2774
  22744087.338    -8795671.830 8  -6843383.74746  22744079.047    22744091.3274
 00  4 26  0 27 30.0000000  0  6 17 26 06 23 10 09
  20150682.866   -24768122.003 9 -19284298.37848  20150686.010    20150695.3884
  20546483.741   -21340692.863 9 -16614050.28248  20546484.675    20546493.4724
  23280625.500    -9139611.598 8  -7100927.04846  23280627.704    23280640.4654
  22193171.283   -14051696.811 9 -10938590.09247  22193173.380    22193184.8224
  24381455.334    -2646935.579 7  -1760133.12745  24381446.563    24381462.0494
  22725850.199    -8891415.565 8  -6917989.05546  22725858.750    22725871.8104
 00  4 26  0 28  0.0000000  0  6 17 26 06 23 10 09
  20145552.267   -24795089.754 9 -19305312.16048  20145554.217    20145563.5874
  20557341.112   -21283625.504 9 -16569582.21448  20557344.012    20557353.0234
  23298535.539    -9045494.568 8  -7027589.25246  23298537.224    23298550.2814
  22183615.841   -14101922.630 9 -10977726.99047  22183615.919    22183627.4524
  24396501.054    -2567804.679 7  -1698472.81045  24396503.546    24396519.8854
  22707679.393    -8986929.954 8  -6992415.67946  22707683.213    22707695.2604
 00  4 26  0 28 30.0000000  0  6 17 26 06 23 10 09
  20140524.494   -24821509.620 9 -19325899.02548  20140526.640    20140535.9914
  20568278.271   -21226131.675 9 -16524781.82148  20568284.137    20568293.7594
  23316465.293    -8951239.445 8  -6954143.84146  23316472.722    23316486.7174
  22174077.480   -14152029.422 9 -11016771.14447  22174080.253    22174091.6064
  24411577.575    -2488627.980 7  -1636776.80345  24411572.034    24411584.8204
  22689552.233    -9082204.713 8  -7066655.58646  22689553.476    22689565.8704
 00  4 26  0 29  0.0000000  0  6 17 26 06 23 10 09
  20135596.147   -24847398.063 9 -19346071.80548  20135600.321    20135609.5824
  20579302.194   -21168225.093 9 -16479659.80848  20579303.888    20579312.8684
  23334430.195    -8856849.053 8  -6880593.04746  23334434.608    23334449.3264
  22164561.819   -14202026.520 8 -11055729.81447  22164565.164    22164577.4834
  24426654.549    -2409404.796 7  -1575044.53345  24426647.693    24426661.5034
  22671469.658    -9177226.213 8  -7140698.13446  22671470.811    22671483.8034
 00  4 26  0 29 30.0000000  0  6 17 26 06 23 10 09
  20130770.612   -24872771.317 9 -19365843.12848  20130771.929    20130780.9844
  20590400.352   -21109897.793 9 -16434209.95948  20590403.389    20590412.2044
  23352417.583    -8762326.509 8  -6806939.28246  23352422.146    23352435.8984
  22155066.046   -14251917.017 8 -11094605.41847  22155071.429    22155083.5514
  24441721.875    -2330145.977 7  -1513284.52945  24441729.478    24441746.0754
  22653431.372    -9271986.078 8  -7214536.80746  22653439.190    22653451.3044
 00  4 26  0 30  0.0000000  0  6 17 26 06 23 10 09
  20126037.549   -24897634.484 9 -19385216.98648  20126040.676    20126049.6104
  20601579.729   -21051154.352 9 -16388435.85548  20601581.806    20601590.6484
  23370430.188    -8667677.521 8  -6733186.98046  23370433.644    23370447.3234
  22145593.389   -14301716.010 9 -11133409.73147  22145595.437    22145607.3924
  24456817.722    -2250874.685 7  -1451514.82145  24456816.018    24456829.5144
  22635453.781    -9366490.446 8  -7288176.39346  22635454.859    22635466.8094
 00  4 26  0 30 30.0000000  0  6 17 26 06 23 10 09
  20121402.329   -24921995.791 9 -19404199.78448  20121404.685    20121413.7284
  20612829.831   -20992014.205 9 -16342352.61048  20612835.892    20612844.7404
  23388464.087    -8572895.855 8  -6659331.26846  23388469.791    23388483.9044
  22136129.103   -14351437.009 9 -11172153.27247  22136133.763    22136145.0084
  24471904.118    -2171583.811 7  -1389729.82245  24471903.503    24471918.3674
  22617513.277    -9460742.657 8  -7361619.50446  22617518.843    22617530.7754
 00  4 26  0 31  0.0000000  0  6 17 26 06 23 10 09
  20116861.504   -24945860.531 9 -19422795.65948  20116863.502    20116872.4634
  20624164.231   -20932466.160 9 -16295951.52948  20624167.447    20624176.2204
  23406526.702    -8477986.476 8  -6585376.07246  23406530.115    23406544.3774
  22126683.033   -14401091.293 8 -11210844.82847  22126684.411    22126696.1974
  24487000.583    -2092262.218 7  -1327920.88445  24486998.628    24487012.4124
  22599630.238    -9554739.309 8  -7434863.51346  22599632.598    22599643.5674
 00  4 26  0 31 30.0000000  0  6 17 26 06 23 10 09
  20112415.316   -24969216.077 9 -19440994.75048  20112418.681    20112427.8424
  20635574.129   -20872515.448 9 -16249236.69048  20635575.912    20635584.4354
  23424609.262    -8382948.678 8  -6511320.80146  23424615.138    23424629.1534
  22117249.429   -14450668.901 9 -11249476.63247  22117250.591    22117260.7334
  24502094.764    -2012917.789 7  -1266094.17045  24502095.925    24502111.1924
  22581789.584    -9648482.816 8  -7507910.25246  22581793.658    22581805.1044
 00  4 26  0 32  0.0000000  0  6 17 26 06 23 10 09
  20108071.608   -24992051.058 9 -19458788.21648  20108073.738    20108082.7204
  20647054.048   -20812185.356 9 -16202226.22848  20647056.426    20647064.9294
  23442727.070    -8287769.173 8  -6437155.10746  23442729.017    23442740.9974
  22107830.670   -14500162.440 9 -11288042.95547  22107832.715    22107842.3314
  24517196.756    -1933540.880 7  -1204242.11145  24517201.318    24517215.9444
  22564008.460    -9741963.825 8  -7580752.41846  22564003.767    22564016.0714
 00  4 26  0 32 30.0000000  0  6 17 26 06 23 10 09
  20103822.686   -25014369.464 9 -19476179.16148  20103826.503    20103835.8764
  20658604.896   -20751474.354 9 -16154918.94748  20658609.037    20658618.0314
  23460864.435    -8192447.349 8  -6362878.48646  23460868.186    23460880.2354
  22098434.101   -14549549.373 9 -11326526.20147  22098434.967    22098444.4404
  24532308.303    -1854118.835 7  -1142354.92445  24532314.847    24532330.1474
  22546259.549    -9835175.860 8  -7653384.99746  22546266.405    22546278.9174
 00  4 26  0 33  0.0000000  0  6 17 26 06 23 10 09
  20099676.749   -25036169.027 9 -19493165.81648  20099678.427    20099687.6264
  20670234.627   -20690372.661 9 -16107307.24748  20670236.275    20670245.1554
  23479034.135    -8096981.014 8  -6288489.26445  23479033.751    23479046.7404
  22089060.602   -14598808.185 9 -11364909.62447  22089060.743    22089071.6104
  24547432.392    -1774661.397 7  -1080440.17345  24547436.300    24547452.4934
  22528581.077    -9928112.704 8  -7725803.15746  22528581.499    22528593.0834
 00  4 26  0 33 30.0000000  0  6 17 26 06 23 10 09
  20095629.572   -25057439.117 9 -19509739.89348  20095630.728    20095639.7974
  20681935.900   -20628882.710 9 -16059392.99748  20681937.393    20681946.7324
  23497228.816    -8001370.825 8  -6213987.98845  23497227.882    23497241.7384
  22079712.980   -14647926.030 9 -11403183.18447  22079713.760    22079724.9404
  24562564.989    -1695170.249 7  -1018499.16645  24562562.584    24562578.1044
  22510952.566   -10020762.094 8  -7797997.33446  22510951.242    22510962.2224
 00  4 26  0 34  0.0000000  0  6 17 26 06 23 10 09
  20091680.539   -25078187.764 9 -19525907.65248  20091682.194    20091691.4344
  20693711.077   -20566990.950 9 -16011165.65748  20693715.533    20693724.3454
  23515441.683    -7905631.601 8  -6139386.16245  23515446.166    23515460.1934
  22070391.846   -14696909.585 9 -11441352.12147  22070392.611    22070403.4844
  24577696.208    -1615635.369 7   -956524.01745  24577697.105    24577713.6664
  22493369.197   -10113129.625 8  -7869971.85446  22493373.453    22493385.5734
 00  4 26  0 34 30.0000000  0  6 17 26 06 23 10 09
  20087832.148   -25098410.946 9 -19541665.95748  20087833.942    20087843.3054
  20705572.822   -20504676.081 9 -15962608.62548  20705573.867    20705582.3574
  23533673.346    -7809787.162 8  -6064702.35045  23533684.571    23533698.1384
  22061094.922   -14745761.186 9 -11479418.23947  22061096.450    22061106.8684
  24592832.211    -1536052.742 7   -894511.68844  24592839.975    24592856.2144
  22475851.915   -10205210.561 8  -7941723.05346  22475850.427    22475862.0704
 00  4 26  0 35  0.0000000  0  6 17 26 06 23 10 09
  20084087.255   -25118088.810 9 -19556999.33248  20084089.166    20084098.4074
  20717508.915   -20441942.593 9 -15913725.39848  20717511.098    20717519.7654
  23551943.107    -7713849.808 8  -5989946.12646  23551942.072    23551955.3834
  22051821.858   -14794491.759 9 -11517390.05447  22051823.491    22051833.8314
  24607969.405    -1456414.759 7   -832456.22344  24607992.645    24608012.0044
  22458384.910   -10296987.212 8  -8013237.17346  22458386.647    22458398.2524
 00  4 26  0 35 30.0000000  0  6 17 26 06 23 10 09
  20080447.716   -25137214.654 9 -19571902.57648  20080449.719    20080459.0184
  20729520.874   -20378809.644 9 -15864530.88848  20729524.645    20729534.0364
  23570211.372    -7617830.188 8  -5915125.82146  23570213.908    23570227.3644
  22042569.342   -14843115.867 9 -11555278.90147  22042570.040    22042581.3844
  24623163.829    -1376713.062 7   -770351.13345  24623164.176    24623179.8784
  22440973.353   -10388461.030 8  -8084515.29646  22440979.160    22440991.0384
 00  4 26  0 36  0.0000000  0  6 17 26 06 23 10 09
  20076912.844   -25155786.069 9 -19586373.78548  20076915.612    20076925.2714
  20741608.801   -20315291.114 9 -15815035.93248  20741611.494    20741620.8964
  23588495.755    -7521727.582 8  -5840240.80546  23588502.198    23588515.4964
  22033334.273   -14891632.873 8 -11593084.27847  22033336.606    22033348.4684
  24638353.347    -1296955.344 7   -708202.37745  24638340.814    24638355.8134
  22423628.565   -10479639.435 8  -8155563.25347  22423629.165    22423640.6424
 00  4 26  0 36 30.0000000  0  6 17 26 06 23 10 09
  20073486.193   -25173789.541 9 -19600402.44648  20073489.657    20073499.0564
  20753764.940   -20251408.121 9 -15765256.98248  20753768.589    20753777.3444
  23606807.902    -7425527.174 8  -5765279.63646  23606808.162    23606822.9944
  22024124.848   -14940042.424 9 -11630805.94647  22024125.873    22024135.3734
  24653531.320    -1217147.596 7   -646014.66745  24653529.206    24653542.4094
  22406335.529   -10570508.472 8  -8226370.14146  22406336.340    22406348.1624
 00  4 26  0 37  0.0000000  0  6 17 26 06 23 10 09
  20070167.838   -25191235.291 9 -19613996.51248  20070169.969    20070179.1344
  20765989.942   -20187180.216 9 -15715209.27348  20765990.986    20765999.6034
  23625136.643    -7329214.194 8  -5690230.75145  23625136.107    23625148.9844
  22014933.275   -14988341.184 9 -11668441.28947  22014934.465    22014944.5724
  24668724.312    -1137296.859 7   -583793.41445  24668721.971    24668737.2304
  22389098.033   -10661072.390 8  -8296939.25946  22389102.353    22389114.3354
 00  4 26  0 37 30.0000000  0  6 17 26 06 23 10 09
  20066951.168   -25208136.911 9 -19627166.57748  20066953.585    20066962.9464
  20778276.667   -20122605.600 9 -15664891.40447  20778278.832    20778287.4264
  23643481.716    -7232779.974 8  -5615087.39345  23643486.142    23643500.0764
  22005763.098   -15036531.389 9 -11705992.02647  22005763.814    22005774.5514
  24683923.891    -1057414.117 7   -521547.24444  24683923.838    24683939.2934
  22371925.878   -10751333.868 8  -8367272.71446  22371926.161    22371937.7924
 00  4 26  0 38  0.0000000  0  6 17 26 06 23 10 09
  20063838.276   -25224499.424 9 -19639916.56348  20063839.729    20063849.2194
  20790631.461   -20057670.894 9 -15614292.92947  20790635.312    20790644.2544
  23661853.187    -7136223.174 8  -5539848.45945  23661861.484    23661873.7714
  21996616.092   -15084602.982 9 -11743450.34447  21996616.130    21996626.9984
  24699120.215     -977494.957 7   -459272.68245  24699130.535    24699146.9724
  22354806.784   -10841289.802 8  -8437368.09246  22354807.838    22354819.6314
 00  4 26  0 38 30.0000000  0  6 17 26 06 23 10 09
  20060825.814   -25240330.914 9 -19652252.75948  20060827.244    20060836.3114
  20803058.230   -19992376.988 9 -15563414.57047  20803060.651    20803069.0974
  23680259.890    -7039559.565 8  -5464526.33646  23680256.266    23680270.8584
  21987488.522   -15132559.183 9 -11780818.75247  21987490.848    21987501.1214
  24714343.415     -897539.186 7   -396969.61745  24714347.692    24714363.1264
  22337742.669   -10930936.988 8  -8507222.86746  22337748.062    22337759.9664
 00  4 26  0 39  0.0000000  0  6 17 26 06 23 10 09
  20057913.687   -25255626.219 9 -19664171.14448  20057916.688    20057925.6214
  20815553.697   -19926717.085 9 -15512251.00848  20815555.596    20815564.3234
  23698668.472    -6942811.597 8  -5389138.52345  23698666.777    23698681.0174
  21978386.194   -15180398.935 9 -11818096.41447  21978387.147    21978397.4824
  24729574.720     -817559.583 7   -334647.97545  24729566.575    24729583.2874
  22320745.034   -11020278.299 8  -8576839.29247  22320747.303    22320759.3324
 00  4 26  0 39 30.0000000  0  6 17 26 06 23 10 09
  20055108.513   -25270374.509 9 -19675663.29148  20055109.914    20055119.2984
  20828117.987   -19860687.016 9 -15460799.01447  20828120.454    20828129.4904
  23717082.620    -6845991.895 8  -5313694.77145  23717089.806    23717105.2674
  21969303.037   -15228126.091 9 -11855286.34847  21969305.101    21969314.8074
  24744784.833     -737565.993 7   -272315.44544  24744789.590    24744803.0384
  22303801.906   -11109313.728 8  -8646217.39947  22303804.465    22303815.8514
 00  4 26  0 40  0.0000000  0  6 17 26 06 23 10 09
  20052405.968   -25284571.808 9 -19686726.08848  20052408.112    20052417.5184
  20840752.635   -19794291.073 9 -15409061.91947  20840754.738    20840763.7104
  23735520.858    -6749106.907 8  -5238200.15545  23735527.150    23735540.7774
  21960241.655   -15275733.588 9 -11892383.03347  21960245.378    21960255.3264
  24760019.343     -657555.701 7   -209969.87045  24760015.275    24760031.8064
  22286919.411   -11198055.163 8  -8715366.38646  22286917.051    22286928.6204
 00  4 26  0 40 30.0000000  0  6 17 26 06 23 10 09
  20049809.913   -25298219.133 9 -19697360.34048  20049811.633    20049820.7404
  20853457.362   -19727533.452 9 -15357042.99747  20853457.948    20853466.9214
  23753976.829    -6652158.385 8  -5162656.02745  23753977.382    23753991.5114
  21951207.811   -15323229.477 9 -11929392.74747  21951206.991    21951217.3584
  24775240.881     -577542.468 7   -147622.05244  24775237.983    24775255.7444
  22270084.237   -11286491.012 8  -8784277.27947  22270088.532    22270099.5804
 00  4 26  0 41  0.0000000  0  6 17 26 06 23 10 09
  20047317.526   -25311309.366 9 -19707560.49148  20047320.749    20047329.9814
  20866229.439   -19660409.306 9 -15304738.47347  20866231.879    20866240.8214
  23772437.367    -6555136.918 8  -5087055.03145  23772439.455    23772453.0774
  21942187.271   -15370616.980 9 -11966317.99447  21942189.657    21942199.1494
  24790466.309     -497514.237 7    -85262.50644  24790469.863    24790485.0334
  22253318.417   -11374612.695 8  -8852943.37846  22253319.364    22253329.7964
 00  4 26  0 41 30.0000000  0  5 17 26 06 23 09
  20044930.610   -25323855.501 9 -19717336.66648  20044932.697    20044942.1134
  20879071.988   -19592913.891 9 -15252144.65647  20879075.720    20879084.5294
  23790911.773    -6458029.621 8  -5011387.17945  23790918.016    23790933.1484
  21933189.088   -15417894.756 9 -12003157.75047  21933192.269    21933202.9604
  22236608.948   -11462415.116 8  -8921360.70846  22236610.646    22236621.6344
 00  4 26  0 42  0.0000000  0  5 17 26 06 23 09
  20042646.663   -25335861.416 9 -19726691.89648  20042648.167    20042657.3034
  20891986.412   -19525054.334 9 -15199267.08847  20891989.070    20891997.9774
  23809411.916    -6360837.924 8  -4935653.52545  23809412.386    23809427.7484
  21924209.916   -15465065.817 9 -12039914.34247  21924215.618    21924226.7594
  22219961.415   -11549888.181 8  -8989521.38846  22219965.181    22219976.3914
 00  4 26  0 42 30.0000000  0  5 17 26 06 23 09
  20040467.020   -25347317.119 9 -19735618.38948  20040468.697    20040477.6784
  20904967.323   -19456830.196 9 -15146105.42447  20904971.586    20904980.5544
  23827915.379    -6263581.003 8  -4859869.08845  23827919.623    23827935.2434
  21915256.568   -15512137.390 9 -12076593.42147  21915258.986    21915269.5794
  22203383.638   -11637007.341 8  -9057406.30846  22203386.630    22203398.0074
 00  4 26  0 43  0.0000000  0  5 17 26 06 23 09
  20038393.283   -25358207.477 9 -19744104.35748  20038395.639    20038405.0234
  20918020.912   -19388239.898 9 -15092658.44647  20918024.222    20918032.6404
  23846442.352    -6166265.263 8  -4784038.77745  23846439.564    23846453.7664
  21906317.879   -15559104.478 9 -12113191.08647  21906321.465    21906331.6264
  22186869.497   -11723774.644 8  -9125017.05846  22186875.290    22186885.8754
 00  4 26  0 43 30.0000000  0  5 17 26 06 23 09
  20036427.717   -25368533.422 9 -19752150.52148  20036430.692    20036439.9944
  20931139.407   -19319299.271 9 -15038938.47547  20931142.654    20931151.7824
  23864970.482    -6068896.591 8  -4708167.26945  23864969.080    23864983.3154
  21897402.687   -15605959.889 9 -12149701.72947  21897405.010    21897415.0254
  22170431.427   -11810194.307 8  -9192356.92846  22170430.001    22170441.2554
 00  4 26  0 44  0.0000000  0  5 17 26 06 23 09
  20034574.237   -25378279.806 9 -19759745.07948  20034575.975    20034585.3154
  20944323.374   -19250022.054 9 -14984956.23747  20944326.384    20944335.1194
  23883494.071    -5971490.483 7  -4632266.61745  23883503.248    23883519.2194
  21888506.060   -15652707.102 9 -12186128.04647  21888509.177    21888519.6684
  22154047.431   -11896261.834 8  -9259422.39347  22154051.995    22154063.0634
 00  4 26  0 44 30.0000000  0  5 17 26 06 23 09
  20032830.237   -25387439.266 9 -19766882.29148  20032833.162    20032842.4744
  20957571.044   -19180409.335 9 -14930712.56847  20957572.730    20957581.7504
  23902038.835    -5874048.840 8  -4556338.25845  23902045.556    23902061.2314
  21879633.223   -15699343.199 9 -12222467.78447  21879634.534    21879645.0994
  22137741.816   -11981976.525 8  -9326212.90947  22137740.937    22137752.4704
 00  4 26  0 45  0.0000000  0  5 17 26 06 23 09
  20031197.643   -25396020.122 9 -19773568.64448  20031200.266    20031209.2234
  20970876.425   -19110478.955 9 -14876221.35947  20970879.863    20970889.5184
  23920600.265    -5776545.282 8  -4480361.61145  23920601.140    23920615.3914
  21870777.592   -15745871.353 9 -12258723.40947  21870780.086    21870790.7984
  22121492.615   -12067352.004 8  -9392739.11447  22121494.480    22121505.6594
 00  4 26  0 45 30.0000000  0  6 17 03 26 06 23 09
  20029670.704   -25404038.661 9 -19779816.83848  20029673.859    20029683.1974
  24642040.902    -1270640.68418   -855626.27155  24642041.506    24642055.4054
  20984241.639   -19040242.685 9 -14821491.79647  20984245.828    20984254.4604
  23939162.460    -5678984.087 8  -4404340.06445  23939167.031    23939181.6774
  21861941.049   -15792299.473 9 -12294901.07947  21861944.863    21861954.9884
  22105310.181   -12152388.727 8  -9459001.34947  22105312.513    22105324.0774
 00  4 26  0 46  0.0000000  0  6 17 03 26 06 23 09
  20028254.799   -25411491.484 9 -19785624.21048  20028255.945    20028265.1054
  24634318.273    -1311217.924 8   -887244.78145  24634319.449    24634333.0154
  20997666.815   -18969687.755 9 -14766513.91947  20997671.613    20997680.5064
  23957730.069    -5581363.089 7  -4328271.91445  23957741.743    23957758.3494
  21853127.891   -15838637.076 9 -12331008.22947  21853128.105    21853136.7414
  22089194.158   -12237075.819 8  -9524991.15147  22089197.177    22089208.1024
 00  4 26  0 46 30.0000000  0  6 17 03 26 06 23 09
  20026943.244   -25418387.964 9 -19790998.07048  20026944.005    20026952.8414
  24626685.055    -1351298.204 7   -918476.03445  24626691.969    24626705.6654
  21011157.305   -18898811.774 9 -14711285.87547  21011159.581    21011167.8974
  23976327.502    -5483679.012 8  -4252154.63645  23976332.142    23976348.5744
  21844327.507   -15884870.822 9 -12367034.45947  21844329.998    21844339.3324
  22073147.426   -12321409.613 8  -9590705.67747  22073149.008    22073159.4654
 00  4 26  0 47  0.0000000  0  6 17 03 26 06 23 09
  20025733.028   -25424733.165 9 -19795942.35548  20025735.890    20025745.0104
  24619155.545    -1390869.195 7   -949310.43445  24619160.136    24619175.9854
  21024708.568   -18827610.302 9 -14655804.20747  21024708.574    21024717.6044
  23994923.563    -5385940.388 8  -4175994.87945  23994930.794    23994946.4294
  21835550.938   -15930993.521 9 -12402974.13247  21835552.678    21835562.4744
  22057165.656   -12405384.255 8  -9656140.34647  22057168.876    22057179.1534
 00  4 26  0 47 30.0000000  0  6 17 03 26 06 23 09
  20024632.241   -25430520.086 9 -19800451.61548  20024634.895    20024644.1994
  24611730.302    -1429925.805 7   -979744.04545  24611728.555    24611744.3174
  21038318.690   -18756065.677 9 -14600055.15447  21038322.709    21038331.3464
  24013535.105    -5288174.820 8  -4099814.08845  24013537.019    24013550.8524
  21826798.936   -15976987.429 9 -12438813.47747  21826800.363    21826810.0754
  22041255.335   -12488990.360 8  -9721287.83447  22041258.695    22041269.6254
 00  4 26  0 48  0.0000000  0  6 17 03 26 06 23 09
  20023641.814   -25435736.157 9 -19804516.06848  20023642.228    20023651.4874
  24604387.908    -1468458.228 7  -1009769.17745  24604396.174    24604412.1404
  21051997.287   -18684175.745 9 -14544037.02747  21052002.708    21052012.2584
  24032149.719    -5190386.231 8  -4023615.36245  24032144.901    24032157.8864
  21818074.337   -16022838.591 9 -12474541.55747  21818074.936    21818085.4614
  22025420.535   -12572217.377 8  -9786139.92047  22025421.211    22025431.8474
 00  4 26  0 48 30.0000000  0  6 17 03 26 06 23 09
  20022753.976   -25440388.201 9 -19808141.02348  20022756.815    20022766.2314
  24597159.898    -1506471.519 7  -1039389.80445  24597162.941    24597177.9324
  21065746.152   -18611945.601 9 -14487753.81347  21065747.963    21065756.8564
  24050753.312    -5092587.793 8  -3947408.93945  24050753.175    24050769.2344
  21809375.173   -16068541.400 9 -12510154.04547  21809377.936    21809387.2694
  22009654.727   -12655073.012 8  -9850702.64747  22009654.559    22009665.1994
 00  4 26  0 49  0.0000000  0  6 17 03 26 06 23 09
  20021977.001   -25444466.898 9 -19811319.21048  20021980.842    20021990.2784
  24590026.170    -1543978.521 7  -1068615.89745  24590024.874    24590039.2384
  21079553.150   -18539383.571 9 -14431211.97547  21079555.664    21079564.9554
  24069370.191    -4994783.575 7  -3871198.01645  24069365.936    24069382.2904
  21800699.887   -16114116.831 9 -12545667.30047  21800704.843    21800714.3884
  21993952.459   -12737552.814 8  -9914972.48647  21993959.073    21993969.4824
 00  4 26  0 49 30.0000000  0  6 17 03 26 06 23 09
  20021312.978   -25447964.321 9 -19814044.45148  20021315.625    20021324.5954
  24582982.088    -1580983.823 7  -1097451.10945  24582983.604    24582998.8114
  21093421.324   -18466506.567 9 -14374424.69347  21093424.010    21093432.9134
  24087980.632    -4896966.339 7  -3794976.94445  24087979.713    24087997.2124
  21792052.471   -16159573.432 9 -12581087.93947  21792054.290    21792064.4574
  21978334.549   -12819656.871 8  -9978949.54947  21978335.359    21978346.0144
 00  4 26  0 50  0.0000000  0  7 17 03 26 21 06 23 09
  20020758.167   -25450880.941 9 -19816317.12648  20020760.587    20020769.6594
  24576036.210    -1617498.174 8  -1125903.72945  24576035.461    24576049.9134
  21107345.841   -18393335.278 9 -14317408.12547  21107347.915    21107357.2074
  24966383.660     -202008.08817   -149264.64055  24966384.744    24966402.4954
  24106592.230    -4799126.543 7  -3718738.38145  24106599.401    24106616.1364
  21783422.421   -16204923.630 9 -12616425.66447  21783424.701    21783434.9454
  21962785.478   -12901382.218 8 -10042631.54547  21962783.093    21962794.1264
 00  4 26  0 50 30.0000000  0  7 17 03 26 21 06 23 09
  20020312.732   -25453217.475 9 -19818137.78848  20020315.597    20020324.9234
  24569174.898    -1653531.048 7  -1153981.21445  24569177.756    24569191.9334
  21121322.755   -18319880.405 9 -14260170.56947  21121325.797    21121335.0284
  24951647.969     -279416.704 7   -209582.75345  24951653.916    24951667.1464
  24125209.706    -4701258.563 7  -3642477.81545  24125222.192    24125238.2164
  21774811.509   -16250174.259 9 -12651685.82347  21774813.842    21774824.1484
  21947300.843   -12982721.427 8 -10106012.62147  21947304.922    21947315.3234
 00  4 26  0 51  0.0000000  0  7 17 03 26 21 06 23 09
  20019982.847   -25454961.085 9 -19819496.42948  20019984.108    20019993.1124
  24562406.996    -1689085.690 7  -1181686.03145  24562411.400    24562426.7104
  21135354.329   -18246154.032 9 -14202721.46747  21135355.880    21135364.3894
  24936924.584     -356826.724 7   -269902.01845  24936923.077    24936939.0964
  24143848.935    -4603360.826 7  -3566194.03945  24143851.253    24143867.2924
  21766222.684   -16295318.050 9 -12686862.73647  21766223.723    21766233.0194
  21931899.692   -13063659.082 8 -10169080.80847  21931902.548    21931912.7134
 00  4 26  0 51 30.0000000  0  7 17 03 26 21 06 23 09
  20019760.501   -25456124.236 9 -19820402.75548  20019762.556    20019771.7174
  24555742.128    -1724149.394 7  -1209008.31245  24555740.353    24555754.4034
  21149435.714   -18172153.087 9 -14145058.40047  21149437.691    21149446.4994
  24922191.484     -434246.053 7   -330228.52145  24922191.330    24922207.6214
  24162482.004    -4505435.315 8  -3489888.66745  24162487.310    24162502.9614
  21757655.721   -16340341.033 9 -12721945.51047  21757655.420    21757665.7564
  21916573.552   -13144194.430 8 -10231835.50747  21916577.286    21916587.4284
 00  4 26  0 52  0.0000000  0  7 17 03 26 21 06 23 09
  20019646.625   -25456713.298 9 -19820861.74948  20019650.372    20019659.6924
  24549160.211    -1758711.720 7  -1235939.88045  24549160.675    24549176.9214
  21163569.731   -18097866.380 9 -14087172.67047  21163573.631    21163582.6034
  24907451.986     -511680.738 7   -390566.95245  24907455.767    24907469.9464
  24181118.637    -4407494.831 7  -3413571.62045  24181124.730    24181141.3344
  21749107.664   -16385241.691 9 -12756932.99947  21749111.464    21749121.4194
  21901328.823   -13224318.407 8 -10294269.66247  21901330.151    21901340.4654
 00  4 26  0 52 30.0000000  0  7 17 03 26 21 06 23 09
  20019645.876   -25456727.367 9 -19820872.70348  20019647.695    20019656.8954
  24542676.159    -1792767.739 8  -1262476.95545  24542682.164    24542695.6924
  21177765.272   -18023280.641 9 -14029053.91347  21177766.966    21177776.0544
  24892713.385     -589130.179 7   -450916.92045  24892717.452    24892733.1024
  24199756.247    -4309544.654 7  -3337247.01145  24199763.830    24199780.8244
  21740586.527   -16430020.736 9 -12791825.72447  21740590.040    21740600.2724
  21886155.053   -13304026.116 8 -10356379.45447  21886161.771    21886172.7984
 00  4 26  0 53  0.0000000  0  7 17 03 26 21 06 23 09
  20019751.632   -25456169.364 9 -19820437.87848  20019753.969    20019762.8754
  24536296.797    -1826311.314 7  -1288614.78545  24536298.946    24536312.2254
  21192019.699   -17948385.460 9 -13970694.04347  21192019.471    21192028.0294
  24877969.688     -666610.333 7   -511290.78445  24877972.171    24877988.4854
  24218393.015    -4211598.415 7  -3260925.49045  24218401.337    24218420.3014
  21732090.081   -16474681.993 9 -12826626.64147  21732091.394    21732101.1804
  21871068.583   -13383333.980 8 -10418177.66747  21871069.628    21871080.6544
 00  4 26  0 53 30.0000000  0  7 17 03 26 21 06 23 09
  20019965.204   -25455045.273 9 -19819561.94748  20019967.941    20019976.7064
  24530014.523    -1859325.957 7  -1314340.40145  24530015.554    24530028.7584
  21206328.930   -17873177.786 9 -13912090.65847  21206330.431    21206339.5624
  24863222.908     -744132.877 7   -571697.70345  24863219.256    24863235.4324
  24237026.116    -4113660.550 7  -3184610.48945  24237038.848    24237056.2614
  21723609.998   -16519235.893 9 -12861343.89147  21723612.945    21723623.0824
  21856054.025   -13462236.326 9 -10479659.88647  21856055.635    21856065.6184
 00  4 26  0 54  0.0000000  0  7 17 03 26 21 06 23 09
  20020291.067   -25453338.826 9 -19818232.23448  20020292.750    20020301.5514
  24523828.432    -1891827.420 7  -1339666.15445  24523831.373    24523845.6074
  21220696.792   -17797659.498 9 -13853245.25047  21220701.508    21220710.6674
  24848453.886     -821705.617 7   -632143.76445  24848458.368    24848472.2214
  24255668.927    -4015724.402 7  -3108296.80145  24255677.566    24255693.0004
  21715153.170   -16563681.771 9 -12895976.96147  21715155.119    21715165.2934
  21841115.741   -13540726.575 9 -10540821.01747  21841119.153    21841129.4514
 00  4 26  0 54 30.0000000  0  7 17 03 26 21 06 23 09
  20020727.461   -25451044.021 9 -19816444.06248  20020729.191    20020738.4454
  24517742.854    -1923823.177 7  -1364597.89745  24517741.939    24517757.0124
  21235125.445   -17721844.879 9 -13794168.92447  21235128.575    21235138.3274
  24833681.777     -899333.274 7   -692632.58845  24833685.788    24833700.6134
  24274316.616    -3917779.266 7  -3031976.15745  24274314.981    24274331.6934
  21706717.204   -16608016.193 9 -12930523.18947  21706718.756    21706728.8204
  21826259.535   -13618815.318 8 -10601669.26047  21826258.310    21826269.7244
 00  4 26  0 55  0.0000000  0  7 17 03 26 21 06 23 09
  20021275.797   -25448158.242 9 -19814195.38348  20021278.202    20021287.5854
  24511747.207    -1955307.229 7  -1389130.87745  24511752.057    24511766.0574
  21249607.632   -17645744.415 9 -13734869.86747  21249610.430    21249619.1974
  24818902.398     -977014.736 7   -753163.38045  24818902.410    24818916.9164
  24292955.289    -3819824.301 7  -2955647.85445  24292955.711    24292971.4734
  21698301.997   -16652233.823 9 -12964978.44547  21698304.228    21698314.2344
  21811470.474   -13696495.995 8 -10662199.54747  21811477.088    21811486.4914
 00  4 26  0 55 30.0000000  0  8 17 03 26 21 06 23 29 09
  20021939.958   -25444671.637 9 -19811478.52748  20021941.660    20021950.9584
  24505856.365    -1986279.086 7  -1413264.76845  24505858.807    24505871.4074
  21264145.174   -17569365.239 9 -13675353.64347  21264144.560    21264153.5464
  24804104.390    -1054743.802 7   -813731.23345  24804109.840    24804126.1224
  24311597.222    -3721857.713 7  -2879310.46845  24311596.651    24311613.9524
  21689909.002   -16696326.621 9 -12999336.41247  21689913.229    21689923.5584
  24538105.316    -1473979.28517  -1136182.88755  24538104.967    24538121.2684
  21796775.209   -13773744.351 8 -10722392.94047  21796776.341    21796787.6344
 00  4 26  0 56  0.0000000  0  8 17 03 26 21 06 23 29 09
  20022718.787   -25440572.295 9 -19808284.22048  20022721.649    20022730.9474
  24500055.767    -2016751.092 7  -1437009.15645  24500059.527    24500072.7974
  21278730.674   -17492701.951 9 -13615616.02547  21278733.652    21278742.0174
  24789314.558    -1132512.285 7   -874329.87745  24789314.894    24789326.9514
  24330236.563    -3623880.418 7  -2802964.74645  24330242.822    24330258.7734
  21681545.759   -16740290.692 9 -13033594.08647  21681547.481    21681557.6494
  24520167.124    -1568243.002 7  -1209634.83945  24520165.286    24520182.4494
  21782153.110   -13850586.226 8 -10782269.59547  21782154.451    21782164.9224
 00  4 26  0 56 30.0000000  0  8 17 03 26 21 06 23 29 09
  20023615.435   -25435864.563 9 -19804615.83948  20023617.857    20023626.8944
  24494352.413    -2046702.609 7  -1460347.99945  24494358.266    24494371.7704
  21293373.395   -17415758.153 9 -13555659.81747  21293375.342    21293383.7714
  24774510.503    -1210300.856 7   -934944.12645  24774510.643    24774525.2074
  24348888.942    -3525915.974 7  -2726629.05345  24348885.044    24348900.5534
  21673204.426   -16784132.748 9 -13067756.67547  21673204.798    21673214.6334
  24502255.871    -1662343.943 7  -1282959.88745  24502259.847    24502274.6234
  21767608.805   -13927028.981 8 -10841835.25247  21767607.557    21767618.2874
 00  4 26  0 57  0.0000000  0  8 17 03 26 21 06 23 29 09
  20024627.299   -25430550.207 9 -19800474.76948  20024629.178    20024638.3274
  24488760.841    -2076132.683 7  -1483280.54845  24488759.271    24488773.2224
  21308070.050   -17338525.163 9 -13495478.27747  21308072.145    21308080.6144
  24759706.878    -1288096.599 7   -995564.00045  24759705.374    24759721.0044
  24367514.954    -3427989.606 7  -2650323.03345  24367519.140    24367535.9884
  21664882.816   -16827851.211 9 -13101822.95147  21664885.104    21664895.0914
  24484376.853    -1756284.852 7  -1356160.29545  24484384.152    24484398.7784
  21753136.772   -14003053.979 9 -10901075.39747  21753140.445    21753150.5994
 00  4 26  0 57 30.0000000  0  8 17 03 26 21 06 23 29 09
  20025752.259   -25424630.726 9 -19795862.16848  20025755.546    20025764.8034
  24483253.316    -2105045.701 7  -1505810.14845  24483256.032    24483271.0024
  21322821.461   -17261006.505 9 -13435074.11747  21322823.699    21322832.1814
  24744897.453    -1365890.495 7  -1056182.39445  24744901.713    24744917.0584
  24386142.685    -3330111.823 7  -2574054.87145  24386145.050    24386163.0534
  21656587.253   -16871448.290 9 -13135794.67947  21656589.492    21656598.7954
  24466542.362    -1850073.518 7  -1429242.04445  24466536.187    24466550.8144
  21738750.680   -14078665.768 9 -10959993.56647  21738752.072    21738762.2074
 00  4 26  0 58  0.0000000  0  8 17 03 26 21 06 23 29 09
  20026991.658   -25418117.115 9 -19790786.61448  20026994.835    20027004.1814
  24477852.391    -2133443.858 7  -1527938.56645  24477852.572    24477866.6684
  21337623.737   -17183204.967 9 -13374449.54947  21337628.076    21337637.4614
  24730091.159    -1443678.096 7  -1116795.91145  24730097.773    24730114.6324
  24404762.321    -3232288.235 7  -2497828.93345  24404761.615    24404778.6804
  21648311.448   -16914931.120 9 -13169677.35147  21648314.887    21648324.5974
  24448709.074    -1943714.937 7  -1502209.06045  24448714.532    24448730.6114
  21724439.817   -14153866.075 9 -11018591.08847  21724441.503    21724452.2354
 00  4 26  0 58 30.0000000  0  8 17 03 26 21 06 23 29 09
  20028340.800   -25411028.102 9 -19785262.69148  20028344.147    20028353.2304
  24472546.168    -2161317.646 7  -1549658.38045  24472548.968    24472562.7884
  21352481.787   -17105129.214 9 -13313611.30847  21352484.625    21352495.1254
  24715283.493    -1521468.644 7  -1177411.71545  24715295.718    24715311.8934
  24423361.050    -3134525.671 7  -2421650.55345  24423364.515    24423381.4284
  21640059.347   -16958292.637 9 -13203465.47847  21640062.806    21640072.8244
  24430910.050    -2037221.300 7  -1575070.84745  24430919.892    24430936.7704
  21710206.146   -14228619.059 8 -11076840.06247  21710216.623    21710227.2374
 00  4 26  0 59  0.0000000  0  8 17 03 26 21 06 23 29 09
  20029800.398   -25403369.163 9 -19779294.66848  20029801.738    20029810.6044
  24467341.776    -2188683.082 7  -1570982.07345  24467340.321    24467353.2054
  21367391.084   -17026779.993 9 -13252559.99747  21367394.563    21367404.2204
  24700495.381    -1599277.728 7  -1238041.98745  24700489.527    24700504.3164
  24441955.314    -3036814.978 7  -2345512.61045  24441957.940    24441976.6294
  21631835.697   -17001522.282 9 -13237150.86047  21631836.773    21631846.1844
  24413147.783    -2130597.683 7  -1647831.42145  24413151.863    24413166.3814
  21696081.177   -14302912.554 9 -11134730.97047  21696079.091    21696089.4164
 00  4 26  0 59 30.0000000  0  8 17 03 26 21 06 23 29 09
  20031366.429   -25395135.784 9 -19772879.03748  20031368.234    20031377.0414
  24462228.767    -2215530.722 7  -1591902.24845  24462230.841    24462246.7154
  21382352.121   -16948162.670 9 -13191299.74347  21382354.978    21382364.6994
  24685673.230    -1677125.285 7  -1298702.25245  24685675.803    24685691.5214
  24460541.508    -2939139.232 7  -2269401.92045  24460545.607    24460563.7064
  21623631.981   -17044630.992 9 -13270742.02247  21623633.445    21623642.8204
  24395407.331    -2223847.769 7  -1720493.55645  24395407.609    24395421.8674
  21682021.650   -14376751.428 8 -11192267.65747  21682027.826    21682037.9234
 00  4 26  1  0  0.0000000  0  8 17 03 26 21 06 23 29 09
  20033039.968   -25386332.280 9 -19766019.14748  20033043.051    20033052.2834
  24457224.723    -2241858.425 7  -1612417.28245  24457224.817    24457237.0874
  21397363.580   -16869282.260 9 -13129834.49647  21397365.197    21397374.6064
  24670841.209    -1755030.945 7  -1359407.78445  24670849.699    24670866.0214
  24479111.409    -2841488.962 7  -2193311.04745  24479127.010    24479143.4004
  21615451.870   -17087618.396 9 -13304238.66047  21615452.708    21615462.4354
  24377681.235    -2316969.457 8  -1793055.66345  24377687.208    24377702.2544
  21668062.804   -14450138.499 9 -11249452.27947  21668062.880    21668073.0314
 00  4 26  1  0 30.0000000  0  8 17 03 26 21 06 23 29 09
  20034827.851   -25376946.894 9 -19758705.84648  20034829.255    20034838.3394
  24452305.280    -2267669.959 7  -1632530.07945  24452310.698    24452324.7434
  21412421.682   -16790154.821 9 -13068176.76947  21412423.245    21412432.5864
  24656013.002    -1832998.561 7  -1420161.60045  24656013.923    24656029.4694
  24497702.970    -2743852.876 7  -2117231.25445  24497706.126    24497725.3034
  21607294.742   -17130476.845 9 -13337634.79847  21607297.014    21607306.7624
  24359996.808    -2409957.820 7  -1865513.88645  24359992.167    24360006.5744
  21654181.235   -14523075.334 9 -11306286.06847  21654183.509    21654193.5834
 00  4 26  1  1  0.0000000  0  8 17 03 26 21 06 23 29 09
  20036727.618   -25366962.491 9 -19750925.78648  20036729.584    20036738.3174
  24447493.670    -2292969.658 7  -1652244.06645  24447495.731    24447509.9894
  21427521.194   -16710786.284 9 -13006331.16647  21427526.654    21427535.8324
  24641158.857    -1911015.246 7  -1480953.66445  24641166.116    24641183.4824
  24516284.827    -2646230.263 7  -2041161.93745  24516285.289    24516303.0334
  21599161.985   -17173216.767 9 -13370938.57047  21599163.990    21599173.6174
  24342318.403    -2502801.456 7  -1937859.34245  24342323.600    24342337.8844
  21640385.721   -14595562.353 9 -11362769.35747  21640389.555    21640399.7524
 00  4 26  1  1 30.0000000  0  7 17 03 26 21 23 29 09
  20038741.266   -25356377.381 9 -19742677.63348  20038743.631    20038752.7514
  24442776.115    -2317753.638 7  -1671556.20745  24442779.635    24442793.8184
  21442669.773   -16631188.281 9 -12944306.76247  21442673.734    21442682.8824
  24626306.180    -1989069.059 7  -1541774.66045  24626312.769    24626328.8354
  21591049.452   -17215838.552 9 -13404150.26447  21591053.272    21591062.4284
  24324688.566    -2595493.768 7  -2010086.92345  24324686.018    24324698.3654
  21626676.170   -14667603.893 9 -11418905.53747  21626680.078    21626689.3134
 00  4 26  1  2  0.0000000  0  7 17 03 26 21 23 29 09
  20040869.893   -25345192.462 9 -19733962.09348  20040871.934    20040881.0534
  24438153.759    -2342035.263 7  -1690476.86345  24438158.933    24438174.2114
  21457861.969   -16551369.365 9 -12882110.22047  21457863.079    21457872.0214
  24611461.020    -2067145.647 7  -1602613.38445  24611455.955    24611472.6494
  21582964.071   -17258328.438 9 -13437259.14547  21582967.494    21582976.9654
  24307078.497    -2688019.701 7  -2082184.78545  24307077.861    24307090.6104
  21613052.102   -14739191.084 9 -11474687.65747  21613057.128    21613066.7934
 00  4 26  1  2 30.0000000  0  7 17 03 26 21 23 29 09
  20043113.681   -25333392.947 9 -19724767.65448  20043117.511    20043126.3754
  24433632.544    -2365815.825 7  -1709007.09245  24433632.926    24433646.6424
  21473096.206   -16471320.294 9 -12819734.34847  21473096.099    21473104.7394
  24596596.769    -2145223.194 7  -1663452.90845  24596598.072    24596615.1644
  21574905.800   -17300683.994 9 -13470263.33647  21574907.643    21574917.2114
  24289507.628    -2780381.033 7  -2154154.43945  24289499.550    24289516.3454
  21599522.311   -14810299.086 8 -11530096.38847  21599525.879    21599535.8494
 00  4 26  1  3  0.0000000  0  7 17 03 26 21 23 29 09
  20045474.756   -25320989.216 9 -19715102.39748  20045477.733    20045486.5444
  24429196.930    -2389085.003 7  -1727138.84845  24429204.900    24429221.5484
  21488368.191   -16391032.226 9 -12757172.22947  21488374.296    21488383.4264
  24581742.610    -2223296.718 7  -1724289.28245  24581742.031    24581755.0934
  21566869.286   -17342906.339 9 -13503163.77947  21566872.887    21566882.8674
  24271938.355    -2872574.868 7  -2225993.59345  24271957.498    24271970.1724
  21586084.957   -14880924.287 9 -11585128.90747  21586086.068    21586096.3294
 00  4 26  1  3 30.0000000  0  7 17 03 26 21 23 29 09
  20047949.896   -25307984.941 9 -19704969.18548  20047952.550    20047961.5834
  24424876.735    -2411841.572 7  -1744871.11045  24424874.758    24424889.2824
  21503695.204   -16310501.515 9 -12694421.05147  21503698.281    21503707.9094
  24566867.310    -2301377.305 7  -1785131.17845  24566882.298    24566898.6234
  21558863.629   -17384991.833 9 -13535957.65447  21558864.961    21558874.3134
  24254451.660    -2964594.584 7  -2297697.01545  24254445.521    24254462.1784
  21572734.777   -14951074.802 9 -11639791.56047  21572736.922    21572747.2214
 00  4 26  1  4  0.0000000  0  7 17 03 26 21 23 29 09
  20050540.281   -25294372.589 9 -19694362.14248  20050542.788    20050551.8724
  24420644.053    -2434077.081 7  -1762197.35245  24420644.173    24420656.7884
  21519064.927   -16229715.827 9 -12631471.18047  21519071.304    21519080.8294
  24552021.679    -2379481.451 7  -1845991.38145  24552021.226    24552035.4674
  21550878.775   -17426944.356 9 -13568647.92247  21550881.274    21550890.4644
  24236948.438    -3056445.300 7  -2369268.77745  24236965.952    24236982.7134
  21559479.964   -15020738.618 9 -11694074.95047  21559480.367    21559490.6304
 00  4 26  1  4 30.0000000  0  7 17 03 26 21 23 29 09
  20053244.855   -25280157.249 9 -19683285.24548  20053247.710    20053256.8214
  24416512.613    -2455784.084 8  -1779111.83145  24416513.252    24416528.6984
  21534492.464   -16148669.988 9 -12568318.59247  21534494.247    21534503.1424
  24537157.734    -2457619.607 7  -1906878.18445  24537151.252    24537165.3094
  21542918.153   -17468773.734 9 -13601242.19447  21542921.171    21542930.7624
  24219519.078    -3148128.083 7  -2440709.63045  24219520.201    24219534.6554
  21546315.459   -15089925.531 9 -11747986.73547  21546315.051    21546324.8464
 00  4 26  1  5  0.0000000  0  7 17 03 26 21 23 29 09
  20056064.366   -25265348.380 9 -19671745.85048  20056065.873    20056074.5354
  24412481.527    -2476957.865 8  -1795610.78545  24412483.530    24412496.8254
  21549966.040   -16067365.130 9 -12504964.17747  21549965.387    21549974.3004
  24522264.045    -2535812.885 7  -1967807.82345  24522270.756    24522284.6254
  21534979.216   -17510494.266 9 -13633751.60647  21534981.877    21534991.6064
  24202104.839    -3239629.195 7  -2512008.97545  24202108.400    24202123.3454
  21533236.517   -15158651.196 9 -11801539.09247  21533236.758    21533246.3244
 00  4 26  1  5 30.0000000  0  7 17 03 26 21 23 29 09
  20058998.108   -25249929.573 9 -19659731.17748  20059000.017    20059008.5854
  24408551.409    -2497602.817 7  -1811697.65645  24408555.650    24408570.7724
  21565483.250   -15985797.957 9 -12441405.36147  21565487.126    21565496.1204
  24507375.084    -2614069.036 7  -2028786.52645  24507378.995    24507394.0124
  21527061.494   -17552107.931 9 -13666177.73047  21527063.526    21527072.6584
  24184730.451    -3330954.277 8  -2583171.13245  24184730.600    24184744.1004
  21520242.387   -15226920.807 9 -11854736.09947  21520244.630    21520254.7744
 00  4 26  1  6  0.0000000  0  7 17 03 26 21 23 29 09
  20062047.675   -25233903.670 9 -19647243.45048  20062049.868    20062058.4564
  24404719.750    -2517714.495 7  -1827368.98545  24404728.664    24404743.2504
  21581055.570   -15903978.146 9 -12377649.69147  21581057.391    21581066.3094
  24492478.131    -2692379.632 7  -2089807.64345  24492478.887    24492492.3354
  21519160.873   -17593622.136 9 -13698526.32147  21519162.691    21519172.1054
  24167376.723    -3422118.286 7  -2654207.75445  24167380.940    24167395.6844
  21507337.289   -15294735.242 9 -11907578.41347  21507340.179    21507350.3424
 00  4 26  1  6 30.0000000  0  7 17 03 26 21 23 29 09
  20065210.293   -25217277.902 9 -19634288.29748  20065213.514    20065222.6534
  24401006.215    -2537296.120 7  -1842627.25945  24401002.030    24401014.4184
  21596670.232   -15821915.752 9 -12313704.99847  21596673.411    21596681.8524
  24477571.678    -2770718.273 7  -2150850.61645  24477569.637    24477584.6604
  21511279.215   -17635042.303 9 -13730801.66347  21511280.926    21511289.5404
  24150049.295    -3513117.998 7  -2725116.30445  24150063.664    24150079.4714
  21494516.738   -15362099.680 9 -11960070.10047  21494521.375    21494530.8714
 00  4 26  1  7  0.0000000  0  7 17 03 26 21 23 29 09
  20068487.638   -25200048.633 9 -19620862.88348  20068491.775    20068500.9114
  24397373.168    -2556344.920 7  -1857470.38545  24397375.538    24397390.6704
  21612328.127   -15739627.307 9 -12249584.13547  21612332.450    21612341.2754
  24462656.928    -2849069.319 7  -2211903.24945  24462660.194    24462674.2024
  21503417.841   -17676353.150 9 -13762991.86747  21503420.009    21503428.4754
  24132772.449    -3603961.307 7  -2795903.03745  24132777.650    24132791.6394
  21481788.410   -15429006.247 9 -12012204.99147  21481788.927    21481799.2204
 00  4 26  1  7 30.0000000  0  7 17 03 26 21 23 29 09
  20071881.660   -25182222.205 9 -19606972.15048  20071884.272    20071893.0614
  24393843.764    -2574861.096 7  -1871898.49745  24393852.684    24393867.2464
  21628027.337   -15657126.762 8 -12185298.01947  21628031.091    21628040.6564
  24447751.633    -2927421.914 7  -2272957.09045  24447751.572    24447764.5674
  21495581.662   -17717534.559 9 -13795081.16747  21495583.098    21495592.0324
  24115516.821    -3694657.000 7  -2866574.76645  24115518.375    24115532.3034
  21469138.402   -15495458.352 9 -12063985.75247  21469143.231    21469153.5674
 00  4 26  1  8  0.0000000  0  7 17 03 26 21 23 29 09
  20075385.486   -25163813.734 9 -19592627.87048  20075387.288    20075396.0264
  24390429.621    -2592850.968 7  -1885916.50545  24390429.569    24390443.4704
  21643762.353   -15574422.174 8 -12120852.92047  21643769.366    21643778.6654
  24432844.189    -3005772.184 7  -2334009.11445  24432839.293    24432852.0604
  21487767.929   -17758580.481 9 -13827064.88647  21487772.169    21487781.3844
  24098288.221    -3785198.107 8  -2937126.02145  24098290.397    24098303.7894
  21456585.296   -15561433.692 9 -12115395.02347  21456589.258    21456598.9714
 00  4 26  1  8 30.0000000  0  7 17 03 26 21 23 29 09
  20079000.380   -25144813.802 9 -19577822.71448  20079002.473    20079012.0284
  24387099.865    -2610325.544 7  -1899532.96745  24387104.664    24387118.2544
  21659544.786   -15491519.112 8 -12056253.15947  21659545.369    21659554.3944
  24417921.740    -3084137.382 7  -2395072.79645  24417927.929    24417940.9484
  21479990.188   -17799471.253 9 -13858927.74047  21479991.306    21479999.4614
  24081089.659    -3875574.008 8  -3007548.51845  24081091.027    24081105.2634
  21444124.477   -15626912.919 9 -12166417.68647  21444128.833    21444138.1294
 00  4 26  1  9  0.0000000  0  7 17 03 26 21 23 29 09
  20082728.026   -25125215.391 9 -19562551.22048  20082731.780    20082741.0924
  24383874.829    -2627286.686 7  -1912749.32645  24383877.225    24383889.4194
  21675354.372   -15408424.908 9 -11991504.46147  21675357.841    21675366.8754
  24403006.532    -3162526.621 7  -2456155.16145  24403011.599    24403023.9214
  21472236.849   -17840194.117 9 -13890659.75547  21472241.436    21472250.6174
  24063916.672    -3965783.262 7  -3077841.16845  24063924.005    24063938.2014
  21431762.267   -15691890.284 9 -12217049.31347  21431763.626    21431772.8474
 00  4 26  1  9 30.0000000  0  7 17 03 26 21 23 29 09
  20086573.630   -25105012.918 9 -19546809.02348  20086576.696    20086585.7114
  24380747.485    -2643738.922 7  -1925569.20945  24380745.496    24380761.2574
  21691205.518   -15325126.624 8 -11926596.72747  21691208.997    21691218.4024
  24388083.023    -3240951.999 7  -2517265.66545  24388085.556    24388100.8734
  21464520.111   -17880753.462 9 -13922264.39547  21464523.063    21464532.3324
  24046785.871    -4055820.448 8  -3147999.76945  24046791.053    24046804.9264
  21419496.163   -15756349.363 9 -12267277.06547  21419497.453    21419506.5184
 00  4 26  1 10  0.0000000  0  7 17 03 26 21 23 29 09
  20090537.058   -25084188.181 9 -19530581.95148  20090539.375    20090548.6054
  24377704.812    -2659684.299 7  -1937994.05045  24377711.536    24377726.1054
  21707099.954   -15241628.282 9 -11861533.10947  21707098.555    21707107.4124
  24373154.533    -3319415.497 7  -2578405.88545  24373156.414    24373169.1044
  21456832.502   -17921156.363 9 -13953747.11447  21456834.923    21456844.5424
  24029689.472    -4145674.318 8  -3218015.51945  24029692.719    24029706.0204
  21407330.152   -15820272.173 9 -12317086.96247  21407333.653    21407343.1084
 00  4 26  1 10 30.0000000  0  7 17 03 26 21 23 29 09
  20094618.616   -25062738.795 9 -19513868.13748  20094620.870    20094629.9544
  24374769.406    -2675116.636 7  -1950019.18445  24374775.420    24374788.2254
  21723024.276   -15157925.500 9 -11796310.18847  21723026.624    21723035.4114
  24358215.976    -3397901.160 8  -2639563.38545  24358220.513    24358235.0234
  21449172.382   -17961410.926 9 -13985114.28347  21449174.856    21449183.9834
  24012625.593    -4235339.104 8  -3287883.89145  24012628.635    24012642.6584
  21395265.764   -15883679.491 9 -12366495.17047  21395267.415    21395276.8904
 00  4 26  1 11  0.0000000  0  7 17 03 26 21 23 29 09
  20098817.499   -25040671.999 9 -19496673.22748  20098820.166    20098829.0614
  24371933.685    -2690020.748 7  -1961632.70145  24371938.920    24371951.8854
  21738995.153   -15074000.295 8 -11730913.94647  21738996.848    21739006.3024
  24343277.618    -3476400.249 8  -2700731.40445  24343283.825    24343296.5494
  21441537.119   -18001527.236 9 -14016373.71447  21441540.697    21441550.1754
  23995599.723    -4324801.282 8  -3357594.44545  23995605.277    23995616.9024
  21383290.428   -15946583.911 9 -12415511.50547  21383296.748    21383306.6194
 00  4 26  1 11 30.0000000  0  7 17 03 26 21 23 29 09
  20103134.827   -25017996.651 9 -19479004.11748  20103135.185    20103144.1684
  24369196.507    -2704396.984 7  -1972834.88845  24369202.614    24369216.4274
  21755011.013   -14989841.584 8 -11665335.76247  21755011.530    21755020.8064
  24328341.915    -3554932.035 8  -2761924.85845  24328338.914    24328352.5504
  21433927.653   -18041518.339 9 -14047535.58248  21433930.945    21433940.2794
  23978623.054    -4414056.462 8  -3427143.67645  23978620.350    23978633.2544
  21371420.353   -16008983.764 9 -12464134.67947  21371422.296    21371431.6674
 00  4 26  1 12  0.0000000  0  7 17 03 26 21 23 29 09
  20107562.399   -24994721.177 9 -19460867.38148  20107564.167    20107573.3404
  24366568.553    -2718238.245 7  -1983620.25245  24366568.712    24366582.5534
  21771067.249   -14905451.064 8 -11599576.93347  21771071.200    21771079.7844
  24313384.366    -3633490.758 7  -2823139.28845  24313388.941    24313402.5384
  21426341.964   -18081394.856 9 -14078608.11748  21426342.506    21426351.8394
  23961676.530    -4503100.442 8  -3496528.38145  23961675.978    23961688.0324
  21359638.156   -16070891.875 9 -12512374.68047  21359642.307    21359651.5844
 00  4 26  1 12 30.0000000  0  7 17 03 26 21 23 29 09
  20112100.071   -24970863.541 9 -19442277.01148  20112104.188    20112113.3124
  24364033.504    -2731541.672 7  -1993986.46445  24364037.028    24364051.5344
  21787176.161   -14820822.125 9 -11533632.31347  21787175.735    21787184.3254
  24298432.547    -3712084.277 7  -2884380.83145  24298432.789    24298446.7094
  21418776.182   -18121152.312 9 -14109587.88248  21418776.742    21418786.2524
  23944765.605    -4591939.752 8  -3565753.60245  23944770.611    23944783.6524
  21347951.001   -16132307.771 9 -12560231.12847  21347954.636    21347964.2924
 00  4 26  1 13  0.0000000  0  7 17 03 26 21 23 29 09
  20116754.142   -24946420.944 9 -19423230.82648  20116755.523    20116764.2994
  24361609.626    -2744301.604 7  -2003929.22845  24361610.334    24361623.6774
  21803320.747   -14735969.680 8 -11467513.54347  21803322.534    21803331.2204
  24283459.188    -3790739.751 7  -2945670.61245  24283465.348    24283479.2134
  21411232.922   -18160784.102 9 -14140469.74848  21411235.127    21411244.4594
  23927900.924    -4680581.289 7  -3634824.72345  23927901.250    23927915.6374
  21336366.861   -16193208.781 9 -12607686.36547  21336365.399    21336375.3704
 00  4 26  1 13 30.0000000  0  7 17 03 26 21 23 29 09
  20121514.501   -24921394.402 9 -19403729.62448  20121517.831    20121526.9494
  24359281.184    -2756528.102 7  -2013456.29545  24359283.987    24359296.9894
  21819508.067   -14650920.641 9 -11401241.58047  21819506.828    21819515.8604
  24268482.855    -3869454.140 8  -3007006.36645  24268486.686    24268499.5944
  21403715.023   -18200293.708 9 -14171256.41848  21403716.712    21403726.1074
  23911070.127    -4769045.158 7  -3703757.35245  23911065.239    23911080.6704
  21324869.233   -16253585.142 9 -12654732.78847  21324876.479    21324885.7044
 00  4 26  1 14  0.0000000  0  7 17 03 26 21 23 29 09
  20126388.810   -24895777.166 9 -19383768.13548  20126392.567    20126401.5384
  24357048.791    -2768225.735 7  -2022571.29045  24357054.895    24357070.1964
  21835721.918   -14565696.168 8 -11334832.91547  21835724.273    21835733.2084
  24253502.685    -3948201.602 8  -3068367.87945  24253502.573    24253514.9744
  21396221.213   -18239673.455 9 -14201941.88948  21396222.822    21396232.0844
  23894256.262    -4857343.514 8  -3772560.99545  23894263.874    23894276.5954
  21313483.193   -16313435.607 9 -12701369.42747  21313486.640    21313496.1994
 00  4 26  1 14 30.0000000  0  7 17 03 26 21 23 29 09
  20131378.250   -24869563.188 9 -19363341.65448  20131381.067    20131389.9704
  24354923.300    -2779406.609 7  -2031283.60245  24354929.200    24354942.1704
  21851965.369   -14480315.194 8 -11268302.29547  21851971.189    21851980.8784
  24238504.395    -4026973.004 7  -3129748.00445  24238510.658    24238525.8444
  21388752.996   -18278916.483 9 -14232520.83048  21388755.263    21388764.5314
  23877494.990    -4945483.783 8  -3841241.48045  23877492.252    23877504.8164
  21302194.061   -16372758.254 9 -12747594.77247  21302198.035    21302207.4954
 00  4 26  1 15  0.0000000  0  7 17 03 26 21 23 29 09
  20136482.704   -24842738.146 9 -19342439.02448  20136485.878    20136494.4824
  24352889.333    -2790082.541 7  -2039602.43345  24352895.779    24352910.7974
  21868246.544   -14394787.271 8 -11201657.18147  21868246.865    21868256.2984
  24223520.210    -4105748.450 8  -3191131.26645  24223520.959    24223534.5574
  21381308.721   -18318037.271 9 -14263004.52348  21381310.910    21381320.0414
  23860745.069    -5033473.067 8  -3909804.33445  23860747.746    23860760.9724
  21291005.766   -16431555.957 9 -12793411.06647  21291008.699    21291019.0344
 00  4 26  1 15 30.0000000  0  7 17 03 26 21 23 29 09
  20141702.322   -24815305.379 9 -19321062.83248  20141705.971    20141714.8334
  24350955.641    -2800261.848 7  -2047534.31145  24350958.953    24350972.7604
  21884552.092   -14309100.352 9 -11134888.16847  21884553.339    21884562.2424
  24208538.489    -4184504.271 8  -3252499.28845  24208535.228    24208548.3394
  21373887.697   -18357040.814 9 -14293396.85648  21373888.257    21373897.7234
  23844033.311    -5121308.838 8  -3978247.55545  23844032.478    23844045.7564
  21279914.588   -16489841.500 9 -12838828.27047  21279917.065    21279927.2814
 00  4 26  1 16  0.0000000  0  7 17 03 26 21 23 29 09
  20147041.466   -24787255.645 9 -19299205.89648  20147043.660    20147052.5484
  24349117.933    -2809949.949 7  -2055083.42845  24349116.705    24349130.7074
  21900888.707   -14223238.255 8 -11067982.66647  21900892.071    21900901.0774
  24193549.195    -4263241.328 8  -3313852.71845  24193550.816    24193564.0524
  21366484.102   -18395922.475 9 -14323694.20247  21366489.272    21366498.1794
  23827351.274    -5208973.380 8  -4046557.32545  23827351.265    23827362.8844
  21268924.517   -16547607.625 9 -12883840.75847  21268924.944    21268934.6894
 00  4 26  1 16 30.0000000  0  7 17 03 26 21 23 29 09
  20152495.765   -24758589.876 9 -19276868.92748  20152498.801    20152507.3814
  24347369.214    -2819136.484 7  -2062241.70545  24347367.717    24347381.4774
  21917264.749   -14137182.812 8 -11000926.48947  21917267.510    21917276.3104
  24178563.019    -4341981.113 8  -3375208.23845  24178566.332    24178579.2544
  21359114.698   -18434676.186 9 -14353891.84047  21359115.266    21359123.5374
  23810701.807    -5296449.505 8  -4114720.29245  23810703.730    23810717.2254
  21258026.461   -16604850.545 9 -12928445.54647  21258032.083    21258041.5294
 00  4 26  1 17  0.0000000  0  7 17 03 26 21 23 29 09
  20158066.338   -24729316.112 9 -19254058.19448  20158069.376    20158078.0914
  24345716.384    -2827813.189 7  -2069002.70645  24345715.720    24345730.3334
  21933677.961   -14050916.601 8 -10933706.06847  21933683.659    21933692.6114
  24163574.623    -4420744.502 8  -3436582.13545  24163578.057    24163591.1384
  21351763.864   -18473291.918 9 -14383981.96947  21351766.519    21351775.6144
  23794097.242    -5383725.603 8  -4182727.37445  23794095.737    23794108.0784
  21247234.737   -16661566.250 9 -12972639.50947  21247239.418    21247248.9284
 00  4 26  1 17 30.0000000  0  7 17 03 26 21 23 29 09
  20163751.654   -24699447.099 9 -19230783.64148  20163753.186    20163761.7554
  24344155.142    -2835967.406 7  -2075356.58045  24344164.752    24344178.7844
  21950139.249   -13964443.534 8 -10866324.47847  21950139.133    21950147.4064
  24148582.340    -4499555.177 8  -3497992.87345  24148581.101    24148594.2024
  21344447.131   -18511750.179 9 -14413949.41747  21344447.925    21344456.8614
  23777525.060    -5470790.071 8  -4250569.57245  23777527.365    23777539.1314
  21236543.283   -16717750.989 9 -13016419.74747  21236547.677    21236557.3364
 00  4 26  1 18  0.0000000  0  7 17 03 26 21 23 29 09
  20169548.773   -24668980.273 9 -19207043.25548  20169550.805    20169559.7344
  24342707.897    -2843604.464 7  -2081307.48645  24342711.081    24342725.6664
  21966629.297   -13877773.999 8 -10798789.79547  21966631.256    21966640.7514
  24133575.791    -4578423.851 8  -3559448.80845  24133572.825    24133586.1184
  21337159.542   -18550037.463 9 -14443783.62847  21337162.033    21337170.8814
  23760995.212    -5557644.068 8  -4318247.78345  23760999.954    23761014.3774
  21225955.864   -16773392.809 9 -13059776.93247  21225959.512    21225968.7514
 00  4 26  1 18 30.0000000  0  7 17 03 26 21 23 29 09
  20175455.356   -24637932.589 9 -19182850.25148  20175458.702    20175467.8084
  24341357.297    -2850713.482 7  -2086846.93545  24341357.982    24341371.7054
  21983158.557   -13790913.609 8 -10731106.40047  21983160.453    21983169.5964
  24118551.344    -4657341.543 8  -3620942.95745  24118554.172    24118566.5774
  21329905.707   -18588149.048 9 -14473480.91248  21329909.229    21329918.8034
  23744509.027    -5644304.999 8  -4385775.49545  23744508.320    23744521.8284
  21215472.887   -16828495.356 9 -13102713.89747  21215474.144    21215483.1084
 00  4 26  1 19  0.0000000  0  7 17 03 26 21 23 29 09
  20181476.458   -24606303.071 9 -19158203.87448  20181478.048    20181486.9254
  24340100.419    -2857303.252 7  -2091981.77345  24340104.450    24340117.9424
  21999721.246   -13703880.635 8 -10663288.52947  21999722.080    21999731.8384
  24103533.809    -4736290.894 8  -3682461.78245  24103532.152    24103543.7224
  21322687.698   -18626092.637 9 -14503047.33148  21322689.411    21322698.1904
  23728044.605    -5730782.503 8  -4453160.32345  23728053.081    23728065.6444
  21205091.484   -16883049.611 9 -13145223.62747  21205092.162    21205101.5674
 00  4 26  1 19 30.0000000  0  7 17 03 26 21 23 29 09
  20187609.953   -24574073.214 9 -19133089.69548  20187610.918    20187620.1484
  24338949.490    -2863376.535 7  -2096714.19645  24338949.921    24338963.3334
  22016304.829   -13616687.837 8 -10595346.12047  22016314.510    22016323.7884
  24088508.514    -4815246.923 8  -3743985.80045  24088506.409    24088519.7564
  21315495.138   -18663886.209 9 -14532496.84847  21315497.347    21315506.1004
  23711625.858    -5817092.015 8  -4520414.25345  23711628.267    23711640.6154
  21194815.718   -16937042.561 9 -13187295.97447  21194817.662    21194827.0064
 00  4 26  1 20  0.0000000  0  7 17 03 26 21 23 29 09
  20193858.071   -24541231.959 9 -19107499.11148  20193860.495    20193869.2944
  24337881.713    -2868934.911 7  -2101045.34545  24337890.687    24337904.4264
  22032937.244   -13529327.233 8 -10527272.95047  22032938.652    22032948.0204
  24073480.474    -4894197.921 8  -3805505.90445  24073482.428    24073495.8814
  21308329.898   -18701541.750 9 -14561838.73447  21308331.371    21308340.7054
  23695229.880    -5903239.644 8  -4587542.06245  23695234.847    23695246.2514
  21184648.635   -16990470.525 9 -13228928.09347  21184650.813    21184659.5474
 00  4 26  1 20 30.0000000  0  7 17 03 26 21 23 29 09
  20200226.066   -24507774.301 9 -19081428.21048  20200227.412    20200235.3854
  24336934.418    -2873961.806 7  -2104962.36545  24336934.003    24336948.6774
  22049592.118   -13441808.438 8 -10459076.50347  22049592.908    22049601.2764
  24058450.352    -4973145.369 8  -3867023.25245  24058459.234    24058471.4494
  21301186.687   -18739068.937 9 -14591080.64147  21301190.651    21301199.2984
  23678874.695    -5989211.729 8  -4654533.04345  23678874.997    23678886.0224
  21174587.471   -17043342.490 9 -13270126.94047  21174589.627    21174598.7204
 00  4 26  1 21  0.0000000  0  7 17 03 26 21 23 29 09
  20206713.188   -24473682.155 9 -19054862.90548  20206715.029    20206723.2564
  24336072.134    -2878461.179 7  -2108468.27645  24336076.255    24336092.6834
  22066274.859   -13354134.986 8 -10390759.56047  22066276.652    22066285.6684
  24043433.787    -5052098.710 8  -3928545.17746  24043435.739    24043447.8344
  21294070.409   -18776478.516 9 -14620230.91947  21294071.505    21294080.4194
  23662546.794    -6074989.514 8  -4721372.61545  23662550.541    23662564.4114
  21164631.862   -17095661.012 9 -13310894.56147  21164633.507    21164642.8964
 00  4 26  1 21 30.0000000  0  7 17 03 26 21 23 29 09
  20213320.671   -24438958.813 9 -19027805.75748  20213322.830    20213331.3384
  24335319.429    -2882423.370 7  -2111555.67845  24335324.297    24335338.9574
  22082986.746   -13266297.828 8 -10322315.05847  22082991.693    22083000.9944
  24028404.119    -5131069.383 8  -3990080.61746  24028408.314    24028420.1284
  21286973.700   -18813764.766 9 -14649285.09948  21286976.145    21286985.3234
  23646262.320    -6160572.576 8  -4788060.51245  23646265.803    23646277.9284
  21154780.983   -17147434.188 9 -13351237.22847  21154781.705    21154790.6134
 00  4 26  1 22  0.0000000  0  7 17 03 26 21 23 29 09
  20220042.841   -24403626.913 9 -19000274.41248  20220045.903    20220054.9674
  24334673.072    -2885846.467 7  -2114223.02145  24334671.172    24334686.4684
  22099737.577   -13178291.841 8 -10253738.99247  22099738.592    22099747.9464
  24013369.507    -5210070.333 8  -4051639.68045  24013373.646    24013386.8284
  21279906.086   -18850900.973 9 -14678222.34148  21279909.063    21279918.3364
  23630017.255    -6245942.930 8  -4854582.65845  23630020.220    23630032.5104
  21145029.753   -17198668.269 9 -13391159.82347  21145032.124    21145040.8404
 00  4 26  1 22 30.0000000  0  7 17 03 26 21 23 29 09
  20226881.112   -24367700.970 9 -18972280.17648  20226882.460    20226891.0534
  24334115.296    -2888738.362 7  -2116476.36745  24334121.725    24334136.4094
  22116512.180   -13090122.223 8 -10185035.43847  22116517.726    22116526.5404
  23998331.448    -5289087.228 8  -4113211.14946  23998337.802    23998349.7614
  21272872.764   -18887877.141 9 -14707034.88647  21272872.622    21272881.6324
  23613805.871    -6331106.727 8  -4920943.85545  23613812.974    23613826.7734
  21135381.413   -17249361.407 9 -13430660.89247  21135384.928    21135394.2434
 00  4 26  1 23  0.0000000  0  7 17 03 26 21 23 29 09
  20233828.586   -24331195.223 9 -18943834.14148  20233829.179    20233837.9384
  24333665.904    -2891112.021 7  -2118325.92745  24333670.034    24333684.6644
  22133326.434   -13001784.174 8 -10116200.63547  22133327.243    22133336.2344
  23983301.159    -5368105.902 8  -4174784.01346  23983301.797    23983313.1554
  21265862.599   -18924686.483 9 -14735717.43247  21265867.822    21265877.1884
  23597642.606    -6416086.371 8  -4987161.55245  23597641.937    23597655.2794
  21125843.346   -17299497.995 9 -13469728.29247  21125844.565    21125853.9264
 00  4 26  1 23 30.0000000  0  7 17 03 26 21 23 29 09
  20240880.403   -24294128.968 9 -18914951.36148  20240882.881    20240891.4734
  24333311.964    -2892968.939 7  -2119772.83745  24333315.935    24333330.8594
  22150166.443   -12913288.571 8 -10047243.06447  22150166.903    22150176.1794
  23968263.557    -5447111.531 8  -4236346.67246  23968266.486    23968279.0164
  21258897.191   -18961313.133 9 -14764257.62847  21258898.268    21258907.0744
  23581507.469    -6500889.543 8  -5053241.71445  23581503.219    23581516.5354
  21116410.702   -17349068.351 9 -13508354.46847  21116411.742    21116420.9294
 00  4 26  1 24  0.0000000  0  7 17 03 26 21 23 29 09
  20248040.243   -24256502.459 9 -18885632.01048  20248042.919    20248051.7394
  24333044.868    -2894323.106 7  -2120828.02145  24333059.935    24333072.9174
  22167033.034   -12824649.781 8  -9978173.91746  22167034.626    22167043.3144
  23953234.260    -5526088.918 8  -4297887.39946  23953238.134    23953249.7974
  21251958.972   -18997769.979 9 -14792665.52347  21251960.961    21251969.8504
  23565403.537    -6585505.374 8  -5119175.88545  23565402.989    23565414.8724
  21107087.386   -17398062.573 9 -13546531.71647  21107088.470    21107096.9314
 00  4 26  1 24 30.0000000  0  7 17 03 26 21 23 29 09
  20255309.488   -24218303.644 9 -18855866.71248  20255311.912    20255320.7524
  24332902.252    -2895177.553 7  -2121493.80245  24332896.676    24332910.1144
  22183925.227   -12735883.279 8  -9909005.24647  22183926.218    22183936.1814
  23938211.018    -5605038.734 8  -4359406.64646  23938214.546    23938227.1204
  21245047.160   -19034084.858 9 -14820962.79347  21245050.220    21245058.8574
  23549336.691    -6669937.439 8  -5184966.84745  23549335.420    23549346.7594
  21097872.721   -17446474.760 9 -13584255.43847  21097875.578    21097884.3874
 00  4 26  1 25  0.0000000  0  7 17 03 26 21 23 29 09
  20262686.131   -24179523.029 9 -18825648.05848  20262691.238    20262700.2954
  24332829.402    -2895527.575 7  -2121766.52645  24332831.923    24332843.7724
  22200837.003   -12646993.519 8  -9839740.53246  22200841.163    22200851.0364
  23923191.677    -5683983.296 8  -4420921.73645  23923191.616    23923203.1924
  21238159.808   -19070273.575 9 -14849161.74547  21238163.779    21238172.3164
  23533304.935    -6754164.827 8  -5250598.36045  23533307.891    23533319.1864
  21088771.301   -17494297.302 9 -13621519.68247  21088774.916    21088784.2784
 00  4 26  1 25 30.0000000  0  7 17 03 26 21 23 29 09
  20270181.708   -24140145.927 9 -18794964.61348  20270184.410    20270193.5064
  24332864.528    -2895376.851 7  -2121649.04745  24332857.615    24332873.4324
  22217775.099   -12557982.086 8  -9770381.01247  22217779.834    22217789.5844
  23908161.277    -5762945.654 8  -4482450.74445  23908165.159    23908177.3064
  21231297.132   -19106352.231 9 -14877274.93048  21231298.361    21231306.9604
  23517314.076    -6838167.730 8  -5316054.94245  23517321.305    23517333.9444
  21079785.026   -17541543.125 9 -13658334.54647  21079784.323    21079793.8664
 00  4 26  1 26  0.0000000  0  7 17 03 26 21 23 29 09
  20277790.564   -24100152.902 9 -18763801.22348  20277794.960    20277803.7054
  24332977.652    -2894726.181 7  -2121142.03045  24332983.918    24332995.3904
  22234737.594   -12468841.315 8  -9700920.71446  22234742.765    22234752.2634
  23893130.529    -5841957.737 8  -4544018.43145  23893129.377    23893140.5124
  21224450.733   -19142325.074 9 -14905305.65148  21224452.924    21224461.6514
  23501376.498    -6921946.004 8  -5381336.55145  23501379.406    23501390.8804
  21070900.508   -17588222.519 9 -13694708.02547  21070901.647    21070910.5804
 00  4 26  1 26 30.0000000  0  7 17 03 26 21 23 29 09
  20285520.460   -24059540.308 9 -18732155.04748  20285523.642    20285532.1794
  24333196.699    -2893564.758 7  -2120236.98345  24333202.259    24333215.9134
  22251731.901   -12379560.548 8  -9631351.32146  22251732.296    22251742.1584
  23878081.061    -5921036.793 8  -4605638.34545  23878079.684    23878092.3494
  21217630.727   -19178170.150 9 -14933236.83148  21217632.133    21217640.6994
  23485476.262    -7005507.596 8  -5446449.25445  23485477.204    23485489.4314
  21062123.660   -17634342.225 9 -13730645.39547  21062125.277    21062133.8514
 00  4 26  1 27  0.0000000  0  7 17 03 26 21 23 29 09
  20293366.161   -24018312.565 9 -18700029.54048  20293369.035    20293377.7454
  24333516.132    -2891890.736 7  -2118932.55345  24333522.108    24333533.6174
  22268747.367   -12290125.382 8  -9561661.63147  22268751.487    22268760.8844
  23863015.843    -6000180.945 8  -4667308.98545  23863019.563    23863031.7254
  21210835.927   -19213867.546 9 -14961052.93248  21210838.914    21210847.3974
  23469614.706    -7088856.452 8  -5511396.22045  23469616.066    23469628.2694
  21053452.201   -17679910.953 9 -13766153.42547  21053454.078    21053463.0824
 00  4 26  1 27 30.0000000  0  7 17 03 26 21 23 29 09
  20301328.703   -23976467.455 9 -18667422.97048  20301331.849    20301340.6084
  24333932.523    -2889699.053 7  -2117224.75045  24333939.108    24333951.0774
  22285796.745   -12200529.897 8  -9491847.00247  22285800.949    22285810.7954
  23847948.646    -6079378.603 8  -4729021.30945  23847947.812    23847961.2114
  21204076.837   -19249398.069 9 -14988739.00348  21204077.843    21204086.1614
  23453793.766    -7172006.020 8  -5576187.88845  23453793.756    23453805.4304
  21044880.598   -17724938.082 9 -13801239.43247  21044885.448    21044894.3024
 00  4 26  1 28  0.0000000  0  7 17 03 26 21 23 29 09
  20309406.564   -23934021.951 9 -18634348.56048  20309408.929    20309417.4794
  24334458.390    -2886974.380 7  -2115101.57545  24334457.903    24334470.8574
  22302885.824   -12110769.065 8  -9421903.53746  22302882.403    22302891.1824
  23832867.906    -6158606.764 8  -4790757.39145  23832871.532    23832884.2754
  21197348.977   -19284752.005 9 -15016287.46648  21197350.424    21197358.5774
  23438004.933    -7254969.288 8  -5640834.37946  23438006.914    23438018.3984
  21036423.824   -17769402.905 9 -13835887.28847  21036424.050    21036432.8794
 00  4 26  1 28 30.0000000  0  7 17 03 26 21 23 29 09
  20317594.334   -23890991.304 9 -18600818.19248  20317597.278    20317605.8264
  24335076.895    -2883722.624 7  -2112567.68845  24335078.672    24335089.2364
  22319990.253   -12020845.172 8  -9351833.01146  22319994.294    22320003.2224
  23817793.754    -6237830.744 8  -4852490.21345  23817796.151    23817806.3574
  21190652.697   -19319935.398 9 -15043703.04248  21190654.993    21190663.5054
  23422250.918    -7337747.181 8  -5705336.41446  23422254.520    23422266.5544
  21028070.669   -17813285.030 9 -13870081.08047  21028073.786    21028082.0234
 00  4 26  1 29  0.0000000  0  7 17 03 26 21 23 29 09
  20325893.959   -23847383.550 9 -18566838.13648  20325895.766    20325904.3644
  24335792.918    -2879953.822 7  -2109630.88845  24335794.316    24335804.9684
  22337130.185   -11930774.650 8  -9281648.21546  22337133.985    22337142.4794
  23802719.941    -6317035.765 8  -4914208.32445  23802723.960    23802734.1854
  21183985.079   -19354962.995 9 -15070997.22748  21183989.160    21183998.0714
  23406538.410    -7420329.470 8  -5769686.02246  23406540.292    23406550.5284
  21019831.244   -17856584.973 9 -13903821.22347  21019833.639    21019842.5324
 00  4 26  1 29 30.0000000  0  7 17 03 26 21 23 29 09
  20334299.548   -23803202.710 9 -18532411.51648  20334302.981    20334311.8714
  24336604.962    -2875678.173 7  -2106299.15745  24336607.827    24336620.8944
  22354293.453   -11840575.705 8  -9211363.34046  22354298.116    22354307.2004
  23787656.699    -6396216.809 8  -4975907.67345  23787655.465    23787668.2854
  21177349.125   -19389842.916 9 -15098176.31848  21177352.037    21177360.3974
  23390859.141    -7502710.749 8  -5833879.02746  23390862.364    23390873.8644
  21011705.075   -17899291.418 9 -13937098.91447  21011707.407    21011715.8484
 00  4 26  1 30  0.0000000  0  7 17 03 26 21 23 29 09
  20342816.929   -23758453.609 9 -18497542.10248  20342818.238    20342827.4664
  24337507.760    -2870910.814 7  -2102584.35145  24337514.673    24337527.9994
  22371474.978   -11750270.678 8  -9140995.80846  22371482.660    22371491.3114
  23772589.257    -6475378.957 8  -5037592.26346  23772591.752    23772603.7694
  21170740.553   -19424573.389 9 -15125238.96148  21170742.786    21170751.3254
  23375223.502    -7584883.446 8  -5897909.49746  23375224.779    23375236.7874
  21003694.636   -17941390.244 9 -13969903.12347  21003696.035    21003704.8164
 00  4 26  1 30 30.0000000  0  7 17 03 26 21 23 29 09
  20351440.299   -23713125.942 9 -18462221.86148  20351443.817    20351452.9464
  24338510.943    -2865663.550 7  -2098495.55345  24338513.413    24338526.4944
  22388682.883   -11659880.318 8  -9070561.78446  22388683.296    22388692.3954
  23757531.709    -6554533.051 8  -5099270.59346  23757529.453    23757541.4914
  21164161.471   -19459141.975 9 -15152175.45848  21164164.410    21164173.2584
  23359630.870    -7666836.463 8  -5961768.75346  23359630.818    23359641.1324
  20995796.583   -17982890.842 9 -14002241.17947  20995798.667    20995807.3044
 00  4 26  1 31  0.0000000  0  7 17 03 26 21 23 29 09
  20360176.499   -23667221.499 9 -18426452.17448  20360179.388    20360188.0744
  24339601.604    -2859929.263 7  -2094027.20145  24339605.216    24339615.8984
  22405895.749   -11569407.920 8  -9000063.83446  22405899.573    22405908.7024
  23742461.461    -6633699.127 8  -5160958.25946  23742464.579    23742476.5604
  21157616.529   -19493538.737 9 -15178978.07348  21157618.921    21157627.4404
  23344078.474    -7748564.746 8  -6025452.89546  23344078.480    23344089.4654
  20988012.366   -18023801.600 9 -14034119.63047  20988013.760    20988021.9984
 00  4 26  1 31 30.0000000  0  7 17 03 26 21 23 29 09
  20369023.157   -23620727.347 9 -18390222.98348  20369026.924    20369035.7984
  24340795.966    -2853694.361 7  -2089168.74645  24340794.512    24340803.8034
  22423131.495   -11478842.077 8  -8929493.06146  22423133.457    22423143.2564
  23727388.280    -6712884.132 8  -5222660.71146  23727394.480    23727407.3054
  21151108.385   -19527744.462 9 -15205631.83948  21151109.643    21151118.4494
  23328560.018    -7830083.149 8  -6088973.50946  23328564.695    23328575.9824
  20980341.932   -18064110.631 9 -14065529.21347  20980342.894    20980351.3374
 00  4 26  1 32  0.0000000  0  7 17 03 26 21 23 29 09
  20377985.729   -23573633.568 9 -18353526.54948  20377988.365    20377997.4234
  24342074.948    -2846950.158 7  -2083913.48145  24342075.313    24342086.3954
  22440388.293   -11388172.216 8  -8858841.24746  22440387.311    22440396.6894
  23712316.652    -6792095.611 8  -5284383.78846  23712322.133    23712334.1184
  21144636.765   -19561751.398 9 -15232130.72248  21144638.591    21144647.1544
  23313094.209    -7911392.430 8  -6152331.19446  23313091.763    23313103.2374
  20972782.486   -18103820.606 9 -14096471.99547  20972786.402    20972794.8894
 00  4 26  1 32 30.0000000  0  7 17 03 26 21 23 29 09
  20387064.503   -23525938.326 9 -18316361.44048  20387064.589    20387073.4964
  24343454.881    -2839694.374 7  -2078259.56045  24343454.836    24343467.1044
  22457664.131   -11297379.388 8  -8788093.62646  22457665.057    22457674.6934
  23697238.149    -6871322.481 8  -5346118.88346  23697246.520    23697257.1884
  21138202.587   -19595567.856 9 -15258481.17848  21138203.340    21138211.7524
  23297657.330    -7992492.990 8  -6215526.22946  23297659.862    23297670.7674
  20965337.586   -18142947.504 9 -14126960.42848  20965341.044    20965349.4034
 00  4 26  1 33  0.0000000  0  7 17 03 26 21 23 29 09
  20396251.400   -23477641.157 9 -18278727.29548  20396255.127    20396264.2504
  24344932.530    -2831918.027 7  -2072200.00045  24344935.542    24344948.8984
  22474968.903   -11206445.882 8  -8717236.37946  22474968.832    22474978.3324
  23682162.939    -6950567.501 8  -5407868.07446  23682166.536    23682177.4454
  21131799.721   -19629206.310 9 -15284692.90348  21131802.078    21131810.6954
  23282261.699    -8073383.134 8  -6278557.30646  23282266.308    23282278.1204
  20958004.386   -18181496.074 9 -14156998.21248  20958004.611    20958013.9554
 00  4 26  1 33 30.0000000  0  7 17 03 26 21 23 29 09
  20405558.182   -23428742.751 9 -18240624.66848  20405560.142    20405569.2434
  24346510.652    -2823625.240 7  -2065738.08345  24346512.273    24346525.2974
  22492289.923   -11115371.891 8  -8646269.67346  22492299.744    22492309.7034
  23667086.010    -7029823.236 8  -5469625.67146  23667084.809    23667095.0654
  21125432.179   -19662673.021 9 -15310770.81448  21125433.473    21125442.2894
  23266908.338    -8154062.721 8  -6341424.33346  23266913.510    23266924.5564
  20950776.771   -18219459.198 9 -14186579.81548  20950780.430    20950789.5694
 00  4 26  1 34  0.0000000  0  7 17 03 26 21 23 29 09
  20414972.519   -23379258.541 9 -18202065.56348  20414976.728    20414985.7014
  24348174.640    -2814836.052 7  -2058889.31345  24348185.394    24348197.5424
  22509656.606   -11024159.045 8  -8575194.76146  22509657.122    22509667.0334
  23651997.689    -7109087.851 8  -5531390.17246  23652000.054    23652010.5344
  21119092.304   -19695988.079 9 -15336730.55048  21119093.587    21119102.3354
  23251603.568    -8234517.764 8  -6404116.36446  23251603.291    23251614.3134
  20943665.797   -18256828.385 9 -14215698.59347  20943669.515    20943678.4244
 00  4 26  1 34 30.0000000  0  7 17 03 26 21 23 29 09
  20424499.395   -23329201.411 9 -18163060.02648  20424502.206    20424511.4904
  24349958.837    -2805549.988 7  -2051653.32745  24349954.786    24349964.6404
  22527037.399   -10932820.535 8  -8504021.92846  22527038.350    22527048.0514
  23636914.422    -7188351.686 8  -5593154.05746  23636916.017    23636927.5194
  21112781.279   -19729153.671 9 -15362573.82748  21112782.366    21112790.9544
  23236332.399    -8314750.515 8  -6466635.20246  23236334.236    23236345.8694
  20936670.863   -18293592.514 9 -14244345.90647  20936673.359    20936682.2484
 00  4 26  1 35  0.0000000  0  7 17 03 26 21 23 29 09
  20434133.330   -23278590.648 9 -18123623.08248  20434132.964    20434142.4204
  24351807.499    -2795766.553 7  -2044029.87945  24351812.463    24351824.4864
  22544438.668   -10841368.045 8  -8432760.28846  22544440.769    22544450.2674
  23621829.259    -7267618.978 8  -5654920.60746  23621832.636    23621843.3744
  21106497.675   -19762171.966 9 -15388302.31748  21106499.204    21106508.2344
  23221102.699    -8394765.875 8  -6528984.63446  23221107.229    23221118.6934
  20929796.151   -18329729.861 9 -14272504.83447  20929796.547    20929805.0404
 00  4 26  1 35 30.0000000  0  7 17 03 26 21 23 29 09
  20443865.879   -23227429.038 9 -18083756.91348  20443868.771    20443878.0474
  24353764.789    -2785512.345 7  -2036039.54245  24353763.885    24353778.9174
  22561860.337   -10749817.096 8  -8361421.88446  22561862.294    22561872.3804
  23606749.726    -7346867.948 8  -5716672.88846  23606752.073    23606763.2984
  21100245.294   -19795036.141 9 -15413910.71848  21100245.695    21100253.9924
  23205920.974    -8474571.990 8  -6591171.02146  23205921.715    23205932.3994
  20923041.699   -18365225.663 9 -14300163.84247  20923042.432    20923050.7804
 00  4 26  1 36  0.0000000  0  7 17 03 26 21 23 29 09
  20453704.435   -23175712.170 9 -18043458.07648  20453710.342    20453719.2354
  24355804.516    -2774791.206 7  -2027685.37045  24355804.989    24355819.0704
  22579300.682   -10658181.323 8  -8290017.43546  22579300.703    22579310.5374
  23591668.315    -7426096.998 8  -5778409.65346  23591675.335    23591685.4894
  21094018.574   -19827745.847 9 -15439398.75448  21094020.913    21094029.6694
  23190775.040    -8554169.098 8  -6653194.54246  23190775.165    23190784.8934
  20916404.690   -18400091.032 9 -14327331.60647  20916407.553    20916416.2044
 00  4 26  1 36 30.0000000  0  7 17 03 26 21 23 29 09
  20463655.563   -23123442.496 9 -18002728.48048  20463657.071    20463665.9244
  24357936.408    -2763598.135 7  -2018963.48545  24357936.228    24357948.5464
  22596754.505   -10566461.243 8  -8218547.27946  22596754.484    22596763.5144
  23576600.083    -7505296.582 8  -5840123.44746  23576603.941    23576614.9874
  21087825.746   -19860295.321 9 -15464761.94348  21087827.192    21087835.7774
  23175659.830    -8633562.260 8  -6715059.14546  23175664.992    23175677.6094
  20909885.638   -18434343.394 9 -14354021.70247  20909888.813    20909897.7374
 00  4 26  1 37  0.0000000  0  7 17 03 26 21 23 29 09
  20473710.531   -23070608.935 9 -17961559.48948  20473710.841    20473719.9844
  24360150.778    -2751943.249 7  -2009881.77945  24360151.816    24360165.9134
  22614222.621   -10474646.629 8  -8147003.47446  22614226.487    22614236.2344
  23561534.720    -7584480.184 8  -5901824.78546  23561535.505    23561546.6804
  21081659.818   -19892687.312 9 -15490002.41048  21081663.098    21081671.4534
  23160589.304    -8712749.866 8  -6776763.58446  23160596.834    23160608.0484
  20903484.114   -18467995.666 9 -14380244.20247  20903485.611    20903494.3034
 00  4 26  1 37 30.0000000  0  7 17 03 26 21 23 29 09
  20483873.151   -23017188.995 9 -17919933.58748  20483876.348    20483885.6534
  24362456.243    -2739825.805 7  -2000439.57445  24362460.320    24362471.9624
  22631712.442   -10382734.560 8  -8075383.72046  22631716.228    22631726.3474
  23546465.062    -7663656.541 8  -5963520.49146  23546467.394    23546479.5404
  21075529.536   -19924912.620 9 -15515113.01348  21075530.213    21075539.2584
  23145566.512    -8791719.985 8  -6838298.56746  23145568.647    23145580.9634
  20897191.459   -18501061.320 9 -14406009.58948  20897193.700    20897201.6424
 00  4 26  1 38  0.0000000  0  7 17 03 26 21 23 29 09
  20494150.260   -22963183.405 9 -17877851.33248  20494153.513    20494162.6554
  24364853.280    -2727218.664 7  -1990615.78045  24364857.690    24364872.0804
  22649229.136   -10290710.483 8  -8003676.70646  22649228.254    22649237.3794
  23531399.178    -7742848.547 8  -6025228.41246  23531398.716    23531410.1124
  21069427.143   -19956968.323 9 -15540091.45648  21069430.537    21069439.1494
  23130576.826    -8870470.502 8  -6899662.42546  23130582.632    23130594.0504
  20891008.183   -18533549.119 9 -14431324.70547  20891011.002    20891019.0784
 00  4 26  1 38 30.0000000  0  7 17 03 26 21 23 29 09
  20504538.897   -22908597.397 9 -17835316.79448  20504540.967    20504549.9134
  24367350.520    -2714115.143 7  -1980405.20045  24367350.949    24367367.5744
  22666759.538   -10198561.939 8  -7931872.68146  22666763.535    22666771.8804
  23516322.398    -7822063.588 8  -6086954.28146  23516325.355    23516335.7214
  21063362.297   -19988843.644 9 -15564929.33748  21063364.698    21063373.3614
  23115635.237    -8949009.144 8  -6960861.20946  23115637.990    23115648.5764
  20884935.458   -18565451.595 9 -14456183.73447  20884939.771    20884948.4204
 00  4 26  1 39  0.0000000  0  7 17 03 26 21 23 29 09
  20515034.510   -22853429.429 9 -17792328.79248  20515038.781    20515047.9144
  24369943.566    -2700500.730 7  -1969796.57345  24369941.171    24369954.8344
  22684318.075   -10106303.479 8  -7859983.00346  22684319.318    22684329.1814
  23501238.904    -7901311.321 8  -6148705.66446  23501243.501    23501255.4254
  21057332.481   -20020537.023 9 -15589625.46348  21057333.727    21057342.1344
  23100730.432    -9027333.101 8  -7021892.70846  23100732.928    23100744.7544
  20878979.113   -18596754.240 9 -14480575.35048  20878983.643    20878992.0034
 00  4 26  1 39 30.0000000  0  7 17 03 26 21 23 29 09
  20525642.409   -22797693.670 9 -17748898.35048  20525645.010    20525653.9694
  24372627.062    -2686371.954 7  -1958787.10245  24372627.222    24372646.2554
  22701886.486   -10013945.389 8  -7788015.73046  22701894.384    22701904.4564
  23486158.843    -7980575.921 8  -6210470.16546  23486159.532    23486171.9684
  21051333.933   -20052041.898 9 -15614174.68948  21051338.493    21051346.7064
  23085866.890    -9105449.677 8  -7082762.57346  23085868.481    23085879.4464
  20873140.330   -18627450.364 9 -14504494.35648  20873142.727    20873150.6044
 00  4 26  1 40  0.0000000  0  7 17 03 26 21 23 29 09
  20536353.411   -22741402.931 9 -17705035.45748  20536357.104    20536365.7434
  24375410.938    -2671725.662 7  -1947374.36745  24375417.364    24375429.9094
  22719489.451    -9921496.771 8  -7715977.86846  22719487.368    22719495.8164
  23471074.664    -8059846.133 8  -6272239.05646  23471075.648    23471087.0694
  21045376.283   -20083361.810 9 -15638579.77348  21045378.634    21045386.8094
  23071043.007    -9183364.000 8  -7143474.86346  23071042.379    23071052.2314
  20867417.412   -18657528.530 9 -14527931.83448  20867418.618    20867426.8184
 00  4 26  1 40 30.0000000  0  7 17 03 26 21 23 29 09
  20547171.789   -22684561.828 9 -17660743.71048  20547173.762    20547182.6624
  24378300.617    -2656578.728 7  -1935571.56945  24378299.869    24378313.9134
  22737090.014    -9828982.998 8  -7643889.25846  22737092.403    22737102.0294
  23455990.713    -8139116.201 8  -6334007.82946  23455990.893    23456002.8244
  21039450.338   -20114507.418 9 -15662849.03348  21039451.944    21039460.0774
  23056246.675    -9261076.950 8  -7204030.23746  23056251.828    23056262.7264
  20861812.884   -18686970.913 9 -14550873.90148  20861815.431    20861823.8834
 00  4 26  1 41  0.0000000  0  7 17 03 26 21 23 29 09
  20558093.134   -22627159.260 9 -17616014.45748  20558096.917    20558105.7964
  24381271.193    -2640942.953 7  -1923387.80744  24381274.816    24381288.1874
  22754703.825    -9736414.350 8  -7571757.90646  22754707.073    22754716.9444
  23440908.780    -8218373.549 8  -6395766.73946  23440908.422    23440918.9564
  21033555.730   -20145483.753 9 -15686986.40548  21033557.190    21033565.4134
  23041506.360    -9338574.416 8  -7264417.65646  23041504.836    23041515.0344
  20856332.458   -18715767.927 9 -14573313.08347  20856335.439    20856343.5354
 00  4 26  1 41 30.0000000  0  7 17 03 26 21 23 29 09
  20569124.536   -22569195.400 9 -17570847.82848  20569126.726    20569135.4554
  24384339.725    -2624836.053 7  -1910836.91444  24384337.670    24384353.2524
  22772329.469    -9643791.552 8  -7499584.34046  22772332.970    22772342.6614
  23425827.482    -8297614.253 8  -6457512.66846  23425830.084    23425838.5244
  21027695.140   -20176285.644 9 -15710987.87348  21027696.019    21027703.8134
  23026792.442    -9415846.890 8  -7324629.80846  23026800.849    23026811.4704
  20850974.508   -18743916.091 9 -14595246.66647  20850979.208    20850987.0444
 00  4 26  1 42  0.0000000  0  7 17 03 26 21 23 29 09
  20580264.448   -22510658.317 9 -17525234.53148  20580265.929    20580275.3554
  24387489.911    -2608249.621 7  -1897912.44845  24387498.075    24387511.9844
  22789965.285    -9551113.889 8  -7427368.02446  22789968.591    22789978.7504
  23410749.675    -8376846.474 8  -6519251.93746  23410752.138    23410762.6744
  21021864.966   -20206917.231 9 -15734856.62848  21021866.796    21021874.8254
  23012142.392    -9492880.590 8  -7384655.89546  23012141.795    23012151.7154
  20845746.937   -18771406.165 9 -14616667.45948  20845748.151    20845755.9864
 00  4 26  1 42 30.0000000  0  7 17 03 26 21 23 29 09
  20591514.037   -22451540.462 9 -17479168.70148  20591515.822    20591525.4294
  24390749.959    -2591185.044 7  -1884615.36345  24390744.690    24390757.4314
  22807615.223    -9458383.919 8  -7355110.94946  22807614.433    22807624.4664
  23395673.762    -8456072.078 8  -6580986.06346  23395675.760    23395685.4934
  21016069.051   -20237375.690 9 -15758590.46948  21016070.293    21016078.8694
  22997521.990    -9569677.815 8  -7444497.74046  22997527.694    22997536.6244
  20840641.487   -18798242.260 9 -14637578.65248  20840641.752    20840649.7374
 00  4 26  1 43  0.0000000  0  7 17 03 26 21 23 29 09
  20602871.335   -22391845.466 9 -17432653.15748  20602875.413    20602884.9814
  24394080.165    -2573640.959 7  -1870944.60745  24394081.466    24394097.3464
  22825269.874    -9365588.305 8  -7282802.73246  22825273.371    22825282.8194
  23380600.583    -8535284.353 8  -6642709.82146  23380602.322    23380612.9724
  21010307.117   -20267650.963 9 -15782181.56048  21010309.494    21010318.0744
  22982960.407    -9646226.396 8  -7504145.82046  22982960.902    22982971.7494
  20835652.371   -18824444.288 9 -14657995.76948  20835655.269    20835663.5744
 00  4 26  1 43 30.0000000  0  7 17 03 26 21 23 29 09
  20614339.591   -22331587.909 9 -17385699.24448  20614341.998    20614351.5514
  24397515.571    -2555614.962 7  -1856898.35044  24397511.851    24397526.2054
  22842941.642    -9272722.153 8  -7210439.50746  22842945.369    22842953.9194
  23365528.054    -8614497.469 8  -6704434.21146  23365528.570    23365538.8864
  21004581.385   -20297742.960 9 -15805629.83648  21004583.226    21004591.6394
  22968433.206    -9722547.253 8  -7563616.45146  22968437.291    22968447.0704
  20830783.041   -18850025.967 9 -14677929.50348  20830786.972    20830795.6634
 00  4 26  1 44  0.0000000  0  7 17 03 26 21 23 29 09
  20625915.970   -22270757.571 9 -17338299.01048  20625917.741    20625926.9924
  24401027.563    -2537110.798 7  -1842479.48745  24401032.855    24401044.0534
  22860630.357    -9179772.888 8  -7138011.53746  22860632.928    22860642.2684
  23350453.696    -8693710.251 8  -6766158.33346  23350455.153    23350464.1654
  20998889.587   -20327646.938 9 -15828931.60248  20998892.757    20998901.1254
  22953946.627    -9798666.081 8  -7622929.68846  22953953.024    22953961.5054
  20826032.950   -18874996.293 9 -14697386.84848  20826034.966    20826044.1974
 00  4 26  1 44 30.0000000  0  7 17 03 26 21 23 29 09
  20637596.444   -22209375.010 9 -17290468.47248  20637598.252    20637607.7234
  24404643.011    -2518149.930 7  -1827704.77245  24404642.840    24404655.9964
  22878332.426    -9086739.319 8  -7065517.88346  22878336.607    22878346.0504
  23335376.581    -8772917.397 8  -6827878.06046  23335381.920    23335392.5914
  20993232.963   -20357360.006 9 -15852084.61548  20993237.752    20993246.8544
  22939499.743    -9874586.260 8  -7682088.10646  22939505.536    22939515.2464
  20821394.939   -18899366.651 9 -14716376.69248  20821397.442    20821406.2444
 00  4 26  1 45  0.0000000  0  7 17 03 26 21 23 29 09
  20649380.966   -22147450.288 9 -17242215.46047  20649382.364    20649391.4354
  24408332.888    -2498733.487 7  -1812575.03445  24408340.406    24408348.1864
  22896048.231    -8993607.803 8  -6992947.91246  22896059.283    22896068.0444
  23320310.852    -8852122.587 8  -6889596.30346  23320310.515    23320320.1974
  20987617.446   -20386887.988 9 -15875093.40248  20987619.213    20987627.9364
  22925095.422    -9950302.715 8  -7741087.79146  22925096.772    22925107.4794
  20816873.191   -18923145.990 9 -14734906.01148  20816872.498    20816881.1364
 00  4 26  1 45 30.0000000  0  7 17 03 26 21 23 29 09
  20661270.159   -22084973.799 9 -17193532.51447  20661271.290    20661280.5034
  24412122.191    -2478857.714 7  -1797087.41445  24412119.425    24412132.2804
  22913801.783    -8900383.174 8  -6920305.38446  22913798.862    22913807.6204
  23305234.367    -8931331.372 8  -6951317.35546  23305236.792    23305246.8044
  20982033.460   -20416230.375 9 -15897957.57548  20982035.472    20982044.2554
  22910724.659   -10025820.262 8  -7799932.47446  22910725.859    22910735.9914
  20812460.632   -18946319.137 9 -14752962.96148  20812462.796    20812471.6034
 00  4 26  1 46  0.0000000  0  7 17 03 26 21 23 29 09
  20673264.696   -22021940.532 9 -17144415.71648  20673266.259    20673275.4814
  24415988.995    -2458517.238 7  -1781237.65145  24415991.489    24416001.4714
  22931550.821    -8807075.015 8  -6847597.77146  22931554.544    22931563.5454
  23290166.689    -9010523.611 8  -7013025.49146  23290166.900    23290177.9324
  20976484.445   -20445397.951 9 -15920685.53048  20976485.371    20976493.7644
  22896397.109   -10101104.699 8  -7858595.49146  22896400.167    22896409.7654
  20808169.797   -18968875.534 9 -14770539.33748  20808170.862    20808179.2554
 00  4 26  1 46 30.0000000  0  7 17 03 26 21 23 29 09
  20685361.942   -21958364.928 9 -17094876.31148  20685364.419    20685373.8554
  24419946.242    -2437704.329 7  -1765019.78645  24419951.364    24419961.2924
  22949318.884    -8713695.776 8  -6774834.76646  22949324.356    22949333.7294
  23275095.859    -9089701.783 8  -7074722.63546  23275099.376    23275110.2944
  20970962.544   -20474404.282 9 -15943287.83248  20970965.402    20970974.1764
  22882122.183   -10176128.504 8  -7917055.43946  22882123.762    22882133.2234
  20803994.136   -18990817.162 9 -14787636.66648  20803995.239    20804003.5884
 00  4 26  1 47  0.0000000  0  7 17 03 26 21 23 29 09
  20697565.770   -21894230.097 9 -17044901.13848  20697569.072    20697577.9304
  24424012.582    -2416410.327 7  -1748427.07345  24424005.034    24424016.2114
  22967106.902    -8620247.396 8  -6702017.88946  22967106.719    22967116.2374
  23260035.710    -9168855.284 8  -7136400.54146  23260037.284    23260047.9384
  20965473.818   -20503250.347 9 -15965765.23648  20965476.303    20965484.8084
  22867892.457   -10250897.897 8  -7975317.14346  22867894.816    22867904.9784
  20799937.179   -19012127.341 9 -14804241.95748  20799940.011    20799948.1834
 00  4 26  1 47 30.0000000  0  7 17 03 26 21 23 29 09
  20709877.110   -21829534.821 9 -16994489.25448  20709880.243    20709888.5924
  24428140.813    -2394643.804 7  -1731466.13244  24428144.512    24428158.9414
  22984895.037    -8526740.693 8  -6629155.55446  22984900.325    22984909.2314
  23244976.760    -9247966.846 8  -7198045.77246  23244982.670    23244992.6794
  20960017.484   -20531925.808 9 -15988109.70648  20960019.329    20960028.0194
  22853711.982   -10325421.725 8  -8033387.51646  22853713.636    22853722.5184
  20796006.698   -19032784.385 9 -14820338.31748  20796009.017    20796017.2164
 00  4 26  1 48  0.0000000  0  7 17 03 26 21 23 29 09
  20722290.985   -21764301.284 9 -16943657.94947  20722293.552    20722302.2764
  24432377.624    -2372407.984 7  -1714139.51445  24432376.391    24432389.8664
  23002700.860    -8433177.098 8  -6556248.89546  23002705.398    23002715.1414
  23229930.906    -9327032.467 8  -7259655.18646  23229936.808    23229947.0694
  20954594.606   -20560421.540 9 -16010314.13648  20954596.826    20954605.3354
  22839573.078   -10399709.886 8  -8091274.21346  22839576.621    22839585.5254
  20792199.609   -19052789.385 9 -14835926.58848  20792202.595    20792210.7834
 00  4 26  1 48 30.0000000  0  7 17 03 26 21 23 29 09
  20734802.432   -21698541.321 9 -16892416.44147  20734806.807    20734816.2154
  24436691.205    -2349715.763 7  -1696457.27645  24436695.146    24436705.1604
  23020521.090    -8339551.662 8  -6483294.07146  23020522.380    23020531.6084
  23214898.237    -9406063.408 8  -7321237.56946  23214897.772    23214907.7624
  20949210.871   -20588710.687 9 -16032357.60048  20949213.543    20949221.8994
  22825479.031   -10473784.978 8  -8148994.90546  22825480.804    22825489.4504
  20788514.873   -19072133.911 9 -14851000.20248  20788521.142    20788529.4814
 00  4 26  1 49  0.0000000  0  7 17 03 26 21 23 29 09
  20747418.016   -21632264.733 9 -16840772.37447  20747419.483    20747428.2104
  24441090.447    -2326576.923 7  -1678427.01745  24441098.907    24441109.3514
  23038345.404    -8245863.541 8  -6410290.36246  23038350.632    23038359.3244
  23199864.428    -9485061.041 8  -7382794.04846  23199865.151    23199875.3474
  20943872.503   -20616769.931 9 -16054221.92148  20943874.163    20943882.3244
  22811418.077   -10547663.796 8  -8206562.66046  22811421.563    22811431.5914
  20784966.027   -19090808.054 9 -14865551.45148  20784967.403    20784975.3644
 00  4 26  1 49 30.0000000  0  7 17 03 26 21 23 29 09
  20760122.525   -21565488.464 9 -16788738.95147  20760126.328    20760135.6914
  24445580.720    -2302994.010 7  -1660050.68345  24445584.189    24445596.5064
  23056184.434    -8152126.703 8  -6337248.69946  23056187.954    23056196.5624
  23184833.019    -9564051.254 8  -7444344.73546  23184832.799    23184844.3584
  20938579.308   -20644583.006 9 -16075894.43048  20938581.587    20938589.6474
  22797397.788   -10621336.220 8  -8263969.56746  22797401.375    22797411.1994
  20781535.631   -19108827.141 9 -14879592.25448  20781538.826    20781546.7224
 00  4 26  1 50  0.0000000  0  7 17 03 26 21 23 29 09
  20772927.763   -21498211.839 9 -16736315.63747  20772928.362    20772938.0354
  24450158.425    -2278962.672 7  -1641324.95745  24450158.003    24450170.1684
  23074029.887    -8058344.395 8  -6264171.61546  23074033.648    23074044.0774
  23169795.165    -9643052.328 8  -7505903.87846  23169799.103    23169810.5684
  20933332.763   -20672152.099 9 -16097376.81848  20933335.295    20933343.7294
  22783421.224   -10694783.628 8  -8321201.17646  22783424.573    22783435.4344
  20778227.685   -19126207.234 9 -14893135.14148  20778231.110    20778239.4324
 00  4 26  1 50 30.0000000  0  7 17 03 26 21 23 29 09
  20785826.114   -21430414.047 9 -16683486.21947  20785829.557    20785839.1764
  24454813.331    -2254481.052 7  -1622248.39345  24454816.612    24454828.4844
  23091880.952    -7964518.776 8  -6191060.79746  23091887.849    23091898.2424
  23154763.271    -9722062.382 8  -7567470.03146  23154764.171    23154775.2194
  20928127.757   -20699492.487 9 -16118680.98048  20928132.480    20928140.6614
  22769490.405   -10768005.272 8  -8378256.84446  22769491.338    22769501.0994
  20775040.180   -19142959.104 9 -14906188.51048  20775043.229    20775051.4814
 00  4 26  1 51  0.0000000  0  7 17 03 26 21 23 29 09
  20798832.679   -21362078.127 9 -16630237.48447  20798833.803    20798842.9384
  24459560.098    -2229533.845 7  -1602809.00545  24459564.028    24459577.0834
  23109746.785    -7870651.580 8  -6117917.57446  23109750.662    23109760.1084
  23139726.331    -9801081.170 8  -7629043.00746  23139728.233    23139737.6614
  20922967.707   -20726625.946 9 -16139823.89348  20922969.381    20922977.3494
  22755596.832   -10840995.238 8  -8435132.00046  22755601.928    22755611.3274
  20771971.531   -19159094.937 9 -14918761.84248  20771972.867    20771981.1684
 00  4 26  1 51 30.0000000  0  7 17 03 26 21 23 29 09
  20811946.258   -21293182.804 9 -16576552.85247  20811944.703    20811952.8294
  24464401.037    -2204114.615 7  -1583001.83045  24464402.090    24464414.6114
  23127611.286    -7776743.498 8  -6044742.49946  23127620.439    23127630.4604
  23124686.301    -9880098.444 8  -7690614.79446  23124690.231    23124701.4094
  20917838.643   -20753578.612 9 -16160825.92348  20917840.427    20917848.4894
  22741756.144   -10913747.070 8  -8491821.60246  22741757.979    22741768.0264
  20769017.821   -19174607.190 9 -14930849.26348  20769020.670    20769028.7094
 00  4 26  1 52  0.0000000  0  7 17 03 26 21 23 29 09
  20825161.060   -21223716.843 9 -16522423.55847  20825163.590    20825172.1724
  24469323.510    -2178216.406 7  -1562821.37345  24469328.544    24469342.7734
  23145496.747    -7682781.037 8  -5971525.06146  23145501.123    23145511.3204
  23109656.094    -9959092.724 8  -7752168.70246  23109658.403    23109670.3714
  20912739.344   -20780371.923 9 -16181703.79048  20912741.750    20912749.7804
  22727950.100   -10986278.346 8  -8548339.32946  22727954.915    22727964.6534
  20766185.050   -19189495.558 9 -14942450.55048  20766187.494    20766196.0704
 00  4 26  1 52 30.0000000  0  7 17 03 26 21 23 29 09
  20838484.542   -21153692.052 9 -16467858.82247  20838488.597    20838497.8274
  24474330.845    -2151851.507 7  -1542277.29945  24474344.281    24474361.8394
  23163397.923    -7588760.944 8  -5898262.68546  23163392.546    23163402.6284
  23094631.168   -10038056.171 8  -7813698.64346  23094632.610    23094643.7544
  20907670.709   -20807007.081 9 -16202458.44048  20907673.293    20907681.0894
  22714190.220   -11058604.572 8  -8604697.27246  22714191.327    22714201.7514
  20763472.455   -19203745.742 9 -14953554.54848  20763475.946    20763484.5434
 00  4 26  1 53  0.0000000  0  7 17 03 26 21 23 29 09
  20851915.414   -21083127.188 9 -16412873.23847  20851917.149    20851926.2424
  24479448.455    -2125035.681 7  -1521381.81345  24479449.712    24479462.2844
  23181282.922    -7494683.794 8  -5824955.85046  23181294.710    23181304.3634
  23079609.342   -10116988.135 8  -7875204.02346  23079612.931    23079623.2264
  20902633.489   -20833470.468 9 -16223079.24148  20902637.264    20902645.3114
  22700464.815   -11130714.171 8  -8660886.40446  22700469.938    22700480.0054
  20760887.834   -19217346.215 9 -14964152.28048  20760887.988    20760896.0574
 00  4 26  1 53 30.0000000  0  7 17 03 26 21 23 29 09
  20865442.444   -21012045.848 9 -16357485.21847  20865443.650    20865452.1314
  24484622.058    -2097789.730 7  -1500151.19745  24484633.528    24484648.0984
  23199203.734    -7400565.094 8  -5751616.63946  23199204.939    23199214.2304
  23064599.279   -10195877.254 8  -7936675.93246  23064601.199    23064610.4204
  20897635.372   -20859749.871 9 -16243556.66848  20897636.456    20897644.6144
  22686786.363   -11202617.895 8  -8716915.15046  22686785.874    22686796.5044
  20758421.364   -19230303.134 9 -14974248.53848  20758422.185    20758430.0964
 00  4 26  1 54  0.0000000  0  7 17 03 26 21 23 29 09
  20879059.306   -20940477.089 9 -16301717.40247  20879062.313    20879071.4274
  24489892.632    -2070129.808 7  -1478598.00744  24489896.816    24489910.7414
  23217117.470    -7306406.156 8  -5678246.11846  23217122.830    23217133.4054
  23049595.489   -10274720.383 8  -7998111.99846  23049596.934    23049607.1414
  20892672.347   -20885829.762 9 -16263878.63848  20892673.709    20892681.9944
  22673140.475   -11274307.811 8  -8772777.28146  22673144.686    22673153.8164
  20756072.830   -19242629.887 9 -14983853.76148  20756076.677    20756084.3434
 00  4 26  1 54 30.0000000  0  7 17 03 26 21 23 29 09
  20892771.565   -20868431.551 9 -16245578.05547  20892772.405    20892781.4544
  24495234.784    -2042076.191 7  -1456738.11045  24495237.534    24495249.3124
  23235044.577    -7212215.077 8  -5604850.54346  23235047.168    23235056.5504
  23034599.149   -10353516.363 8  -8059511.32246  23034602.483    23034612.9374
  20887748.180   -20911699.780 9 -16284037.07148  20887750.282    20887759.0284
  22659540.692   -11345769.875 8  -8828461.87846  22659545.759    22659554.9824
  20753852.170   -19254307.893 9 -14992953.47248  20753854.170    20753862.3764
 00  4 26  1 55  0.0000000  0  7 17 03 26 21 23 29 09
  20906573.077   -20795898.610 9 -16189058.90947  20906574.983    20906584.1644
  24500645.164    -2013616.975 7  -1434562.07444  24500650.001    24500664.7254
  23252963.415    -7118006.087 8  -5531440.98846  23252974.819    23252983.8324
  23019614.022   -10432265.743 8  -8120874.37646  23019617.224    23019627.7444
  20882864.440   -20937364.542 9 -16304035.56748  20882866.578    20882875.2134
  22645991.138   -11417000.871 8  -8883966.42946  22645991.625    22646000.7444
  20751750.071   -19265348.983 9 -15001556.87848  20751753.010    20751761.1754
 00  4 26  1 55 30.0000000  0  7 17 03 26 21 23 29 09
  20920468.893   -20722871.319 9 -16132154.55747  20920471.553    20920480.9084
  24506150.439    -1984739.575 7  -1412060.13844  24506147.021    24506158.5674
  23270905.121    -7023773.881 8  -5458013.32146  23270906.662    23270915.2634
  23004636.966   -10510977.675 8  -8182208.24346  23004638.408    23004648.8364
  20878020.372   -20962825.410 9 -16323875.17748  20878021.587    20878029.8874
  22632478.915   -11487999.020 8  -8939289.53746  22632480.629    22632490.7844
  20749771.271   -19275750.972 9 -15009662.28548  20749773.707    20749781.8904
 00  4 26  1 56  0.0000000  0  7 17 03 26 21 23 29 09
  20934465.637   -20649335.121 9 -16074853.65847  20934464.782    20934474.7024
  24511720.839    -1955433.145 7  -1389224.00145  24511725.221    24511736.1354
  23288834.264    -6929504.439 8  -5384556.65746  23288844.725    23288855.4314
  22989661.171   -10589662.379 8  -8243520.93346  22989664.614    22989675.7034
  20873214.481   -20988083.187 9 -16343556.53848  20873215.415    20873223.7504
  22619016.603   -11558746.490 8  -8994417.32546  22619017.190    22619027.8744
  20747916.093   -19285492.344 9 -15017252.93148  20747919.836    20747927.7154
 00  4 26  1 56 30.0000000  0  7 17 03 26 21 23 29 09
  20948559.796   -20575267.634 9 -16017138.78247  20948559.520    20948568.8574
  24517380.587    -1925679.816 7  -1366039.59644  24517383.149    24517397.0894
  23306792.601    -6835201.254 8  -5311073.69246  23306790.711    23306799.7814
  22974692.404   -10668335.156 8  -8304824.30446  22974694.005    22974704.2974
  20868447.296   -21013130.753 9 -16363074.09148  20868449.133    20868457.5694
  22605595.817   -11629248.091 8  -9049353.49946  22605600.833    22605609.9364
  20746190.667   -19294572.646 9 -15024328.45348  20746192.043    20746200.1584
 00  4 26  1 57  0.0000000  0  7 17 03 26 21 23 29 09
  20962753.106   -20500661.159 9 -15959003.90547  20962756.741    20962765.6394
  24523139.913    -1895462.237 7  -1342493.39444  24523135.787    24523147.5334
  23324738.986    -6740861.726 8  -5237562.40446  23324742.661    23324752.8424
  22959720.333   -10747004.591 8  -8366125.08346  22959723.430    22959733.7714
  20863723.381   -21037961.186 9 -16382422.45248  20863724.155    20863732.4374
  22592228.653   -11699501.707 8  -9104096.45246  22592232.381    22592241.8764
  20744583.317   -19303012.784 9 -15030905.15048  20744586.095    20744593.9734
 00  4 26  1 57 30.0000000  0  7 17 03 26 21 23 29 09
  20977055.120   -20425523.003 9 -15900454.72947  20977055.035    20977064.0694
  24528970.986    -1864793.721 7  -1318595.89444  24528971.870    24528985.8964
  23342701.626    -6646468.520 8  -5164009.33846  23342704.943    23342715.7654
  22944754.013   -10825666.789 8  -8427420.26546  22944755.112    22944765.0224
  20859039.487   -21062563.424 9 -16401593.00448  20859042.379    20859050.5344
  22578910.561   -11769507.243 8  -9158646.08146  22578911.196    22578920.5274
  20743101.586   -19310809.400 9 -15036980.40348  20743102.877    20743109.7924
 00  4 26  1 58  0.0000000  0  7 17 03 26 21 23 29 09
  20991452.615   -20349858.643 9 -15841495.52147  20991453.336    20991462.5634
  24534891.408    -1833680.288 7  -1294351.63544  24534895.144    24534906.3484
  23360680.476    -6552034.019 8  -5090424.08846  23360676.639    23360685.7944
  22929783.918   -10904310.096 8  -8488700.65146  22929788.131    22929799.8054
  20854402.040   -21086937.918 9 -16420586.10348  20854404.167    20854412.0074
  22565631.182   -11839277.076 8  -9213012.03446  22565634.289    22565643.4034
  20741738.871   -19317964.435 9 -15042555.71348  20741740.783    20741748.6024
 00  4 26  1 58 30.0000000  0  7 17 03 26 21 23 29 09
  21005949.021   -20273675.148 9 -15782131.79347  21005950.734    21005960.1024
  24540898.461    -1802121.678 7  -1269760.56144  24540899.535    24540909.0664
  23378646.112    -6457562.337 8  -5016809.85646  23378653.610    23378662.9864
  22914825.369   -10982933.557 8  -8549965.59046  22914828.104    22914838.4104
  20849806.327   -21111076.135 9 -16439395.07748  20849810.770    20849818.5934
  22552396.738   -11908821.898 8  -9267202.67346  22552399.089    22552409.0464
  20740495.647   -19324490.907 9 -15047641.25048  20740498.686    20740506.8104
 00  4 26  1 59  0.0000000  0  7 17 03 26 21 23 29 09
  21020539.738   -20196993.564 9 -15722379.94547  21020542.844    21020551.7324
  24546973.146    -1770130.691 7  -1244832.56044  24546982.439    24546994.3864
  23396640.622    -6363055.737 8  -4943168.39246  23396637.903    23396646.9034
  22899870.143   -11061529.248 8  -8611208.86546  22899872.260    22899881.4354
  20845258.016   -21134991.870 9 -16458030.68148  20845259.525    20845267.4514
  22539201.928   -11978141.677 8  -9321217.98946  22539208.331    22539218.3144
  20739376.257   -19330383.047 9 -15052232.49948  20739377.400    20739385.7324
 00  4 26  1 59 30.0000000  0  7 17 03 26 21 23 29 09
  21035223.253   -20119830.652 9 -15662253.03947  21035226.373    21035235.6194
  24553149.444    -1737722.397 7  -1219579.26244  24553151.231    24553167.4334
  23414617.172    -6268523.567 8  -4869507.02646  23414626.023    23414637.2084
  22884920.803   -11140084.276 8  -8672420.48746  22884922.804    22884932.2954
  20840747.215   -21158685.288 9 -16476493.04548  20840750.555    20840758.8024
  22526058.541   -12047231.529 8  -9375054.13646  22526060.076    22526070.7844
  20738376.781   -19335629.987 9 -15056320.98648  20738379.041    20738387.2014
 00  4 26  2  0  0.0000000  0  7 17 03 26 21 23 29 09
  21049998.362   -20042184.451 9 -15601749.55247  21050001.943    21050011.4344
  24559396.387    -1704892.415 7  -1193997.47844  24559401.813    24559411.7104
  23432612.493    -6173983.202 8  -4795839.30446  23432617.194    23432627.1964
  22869986.687   -11218591.341 8  -8733594.67046  22869982.939    22869993.7884
  20836282.078   -21182163.473 9 -16494787.70148  20836282.948    20836290.9214
  22512958.330   -12116082.742 8  -9428704.32146  22512958.693    22512968.3014
  20737498.676   -19340235.624 9 -15059909.76248  20737502.610    20737510.6294
 00  4 26  2  0 30.0000000  0  7 17 03 26 21 23 29 09
  21064867.334   -19964057.321 9 -15540871.32047  21064869.178    21064878.7924
  24565718.467    -1671649.866 7  -1168094.24244  24565728.435    24565742.7854
  23450608.155    -6079433.418 8  -4722164.22046  23450609.215    23450618.7864
  22855050.416   -11297051.452 8  -8794732.29746  22855053.077    22855063.2434
  20831852.358   -21205434.966 9 -16512921.29848  20831854.462    20831862.3784
  22499905.578   -12184690.932 8  -9482165.11446  22499903.229    22499912.6774
  20736746.681   -19344204.967 9 -15063002.72648  20736747.130    20736755.0174
 00  4 26  2  1  0.0000000  0  7 17 03 26 21 23 29 09
  21079824.817   -19885450.133 9 -15479619.01347  21079827.691    21079837.0594
  24572127.599    -1638014.947 7  -1141885.23444  24572126.759    24572141.3114
  23468602.138    -5984873.789 8  -4648481.41846  23468602.873    23468612.3264
  22840136.647   -11375450.505 8  -8855822.36746  22840135.076    22840143.7804
  20827460.615   -21228512.298 9 -16530903.60248  20827463.204    20827470.7994
  22486891.058   -12253049.446 8  -9535431.39446  22486895.377    22486904.2054
  20736111.370   -19347533.878 9 -15065596.64648  20736113.411    20736121.6594
 00  4 26  2  1 30.0000000  0  7 17 03 26 21 23 29 09
  21094877.914   -19806348.905 9 -15417981.74347  21094880.589    21094889.5204
  24578599.154    -1603991.486 7  -1115373.47544  24578603.023    24578613.9354
  23486595.911    -5890300.604 8  -4574788.06046  23486599.066    23486610.4784
  22825225.687   -11453781.524 8  -8916859.42546  22825228.345    22825238.1784
  20823108.123   -21251391.354 9 -16548731.41248  20823109.563    20823117.1944
  22473933.075   -12321159.371 8  -9588503.93146  22473934.635    22473943.7644
  20735598.335   -19350214.015 9 -15067685.03548  20735603.572    20735611.7574
 00  4 26  2  2  0.0000000  0  7 17 03 26 21 23 29 09
  21110022.836   -19726749.054 9 -15355955.92647  21110027.719    21110036.5754
  24585161.758    -1569573.852 7  -1088554.54144  24585149.903    24585164.2184
  23504599.410    -5795699.947 8  -4501073.36546  23504601.984    23504612.0694
  22810332.804   -11532057.908 8  -8977853.91646  22810332.039    22810342.6864
  20818789.844   -21274075.227 9 -16566407.14848  20818792.663    20818800.8804
  22461015.704   -12389036.954 8  -9641395.45446  22461017.517    22461026.5064
  20735216.666   -19352237.043 9 -15069261.39048  20735218.492    20735226.6824
 00  4 26  2  2 30.0000000  0  7 17 03 26 21 23 29 09
  21125267.938   -19646652.990 9 -15293543.45347  21125269.455    21125278.3554
  24591763.527    -1534769.566 7  -1061434.36344  24591773.571    24591787.9394
  23522606.740    -5701067.995 8  -4427334.25145  23522610.174    23522619.3874
  22795442.591   -11610291.809 8  -9038815.29446  22795444.724    22795454.6834
  20814514.096   -21296553.049 9 -16583922.31548  20814515.126    20814523.4894
  22448141.540   -12456689.819 8  -9694111.85746  22448143.283    22448151.8044
  20734959.331   -19353586.356 9 -15070312.77148  20734961.761    20734969.6244
 00  4 26  2  3  0.0000000  0  7 17 03 26 21 23 29 09
  21140601.831   -19566061.552 9 -15230744.96947  21140605.598    21140614.9294
  24598464.811    -1499572.944 7  -1034008.44444  24598469.126    24598483.3614
  23540619.116    -5606403.866 8  -4353570.03645  23540624.294    23540633.6244
  22780564.324   -11688473.208 8  -9099735.71646  22780567.660    22780577.6664
  20810277.931   -21318811.238 9 -16601266.32448  20810279.665    20810287.6304
  22435310.864   -12524115.006 8  -9746650.84146  22435311.494    22435321.7334
  20734833.135   -19354258.887 9 -15070836.79148  20734833.788    20734841.5724
 00  4 26  2  3 30.0000000  0  7 17 03 26 21 23 29 09
  21156034.171   -19484981.187 9 -15167565.51047  21156034.349    21156044.0554
  24605248.249    -1463971.400 7  -1006266.92444  24605247.539    24605260.4934
  23558639.776    -5511716.171 8  -4279787.50445  23558641.783    23558652.5514
  22765693.894   -11766617.611 8  -9160627.37546  22765696.574    22765706.1224
  20806084.563   -21340837.374 9 -16618429.50948  20806088.123    20806096.2204
  22422518.970   -12591325.013 8  -9799022.15746  22422523.122    22422531.5304
  20734830.490   -19354254.275 9 -15070833.16748  20734834.404    20734842.6554
 00  4 26  2  4  0.0000000  0  7 17 03 26 21 23 29 09
  21171555.102   -19403414.918 9 -15104007.42047  21171556.337    21171565.5674
  24612095.491    -1427959.887 7   -978206.00844  24612102.657    24612110.5204
  23576660.209    -5417020.012 8  -4205998.38445  23576662.601    23576672.5034
  22750830.221   -11844722.379 8  -9221488.11346  22750833.338    22750843.3644
  20801939.619   -21362619.788 9 -16635402.78448  20801942.923    20801950.9244
  22409770.239   -12658331.739 8  -9851235.09346  22409771.937    22409781.0314
  20734958.219   -19353591.564 9 -15070316.73948  20734960.470    20734968.7764
 00  4 26  2  4 30.0000000  0  7 17 03 26 21 23 29 09
  21187168.861   -19321359.098 9 -15040067.87047  21187171.008    21187180.2554
  24619029.447    -1391539.521 7   -949826.46844  24619031.531    24619040.7644
  23594679.962    -5322332.139 8  -4132215.68445  23594681.546    23594690.4354
  22735977.042   -11922775.636 8  -9282308.73546  22735980.557    22735990.1484
  20797842.210   -21384158.065 9 -16652185.82148  20797844.525    20797852.3674
  22397058.407   -12725124.791 8  -9903281.52746  22397061.448    22397070.4264
  20735204.540   -19352291.629 9 -15069303.77848  20735207.762    20735216.0744
 00  4 26  2  5  0.0000000  0  7 17 03 26 21 23 29 09
  21202871.539   -19238824.881 9 -14975755.54547  21202876.620    21202886.1064
  24626038.037    -1354699.211 7   -921119.75744  24626041.529    24626053.1144
  23612700.204    -5227650.587 8  -4058437.90545  23612698.040    23612707.3314
  22721135.082   -12000777.473 8  -9343089.34146  22721137.643    22721147.4214
  20793789.292   -21405460.648 9 -16668785.22048  20793790.786    20793798.7664
  22384391.921   -12791704.539 8  -9955161.76146  22384392.826    22384401.0414
  20735571.553   -19350370.082 9 -15067806.44348  20735573.887    20735581.7024
 00  4 26  2  5 30.0000000  0  7 17 03 26 21 23 29 09
  21218674.396   -19155809.801 9 -14911068.51747  21218674.235    21218683.0964
  24633121.910    -1317431.383 7   -892079.91444  24633132.281    24633145.8804
  23630707.654    -5132967.495 8  -3984658.93645  23630714.915    23630726.3594
  22706298.586   -12078735.974 8  -9403836.14446  22706302.279    22706312.3894
  20789778.823   -21426526.708 9 -16685200.30048  20789781.441    20789789.9984
  22371762.905   -12858066.287 8 -10006872.11046  22371763.545    22371772.7684
  20736056.567   -19347832.067 9 -15065828.75048  20736056.924    20736064.4374
 00  4 26  2  6  0.0000000  0  8 17 03 26 21 15 23 29 09
  21234557.053   -19072318.240 9 -14846010.19947  21234562.023    21234571.4044
  24640307.537    -1279742.398 7   -862711.93344  24640303.286    24640314.0534
  23648726.543    -5038274.048 8  -3910871.90745  23648734.803    23648745.6514
  22691478.229   -12156638.123 8  -9464538.95946  22691477.924    22691486.8874
  24230291.056     -753651.23917   -570640.84155  24230292.283    24230303.1054
  20785815.922   -21447358.993 9 -16701433.20548  20785817.423    20785825.8244
  22359175.712   -12924187.686 8 -10058395.18346  22359180.654    22359190.4274
  20736652.168   -19344688.076 9 -15063378.86748  20736654.676    20736662.8064
 00  4 26  2  6 30.0000000  0  8 17 03 26 21 15 23 29 09
  21250532.404   -18988375.808 8 -14780600.56747  21250535.590    21250544.8704
  24647550.505    -1241643.215 7   -833024.24344  24647549.704    24647566.4394
  23666756.475    -4943555.874 7  -3837065.60745  23666758.157    23666769.4744
  22676658.044   -12234491.716 8  -9525203.86346  22676663.025    22676671.5524
  24210166.637     -859393.925 7   -653037.52445  24210169.050    24210181.7964
  20781894.820   -21467965.350 9 -16717490.06148  20781896.639    20781904.6334
  22346643.850   -12990048.143 8 -10109714.91646  22346648.114    22346657.2994
  20737369.263   -19340924.203 9 -15060445.95648  20737371.149    20737379.1404
 00  4 26  2  7  0.0000000  0  7 17 26 21 15 23 29 09
  21266588.051   -18904002.385 8 -14714855.08647  21266590.994    21266600.6704
  23684783.673    -4848811.470 8  -3763238.88045  23684787.974    23684799.3554
  22661854.505   -12312293.864 8  -9585828.75646  22661857.450    22661865.5994
  24190069.638     -964934.231 7   -735276.50245  24190085.001    24190099.0984
  20778017.562   -21488338.873 9 -16733365.50548  20778019.330    20778027.4464
  22334156.450   -13055652.264 8 -10160834.90846  22334163.882    22334173.0424
  20738202.616   -19336534.826 9 -15057025.63848  20738206.262    20738214.5194
 00  4 26  2  7 30.0000000  0  7 17 26 21 15 23 29 09
  21282726.992   -18819195.431 8 -14648771.79947  21282729.328    21282739.0974
  23702819.632    -4754056.071 8  -3689403.56645  23702821.463    23702830.7324
  22647063.670   -12390037.283 8  -9646407.90246  22647063.302    22647072.8894
  24170040.404    -1070269.334 7   -817355.59245  24170038.760    24170054.1534
  20774187.071   -21508471.702 9 -16749053.39848  20774188.273    20774196.2254
  22321726.909   -13120996.704 8 -10211752.54946  22321728.925    22321738.6974
  20739157.530   -19331512.278 9 -15053111.93848  20739161.881    20739170.2394
 00  4 26  2  8  0.0000000  0  7 17 26 21 15 23 29 09
  21298942.991   -18733970.288 8 -14582362.64947  21298946.931    21298956.7874
  23720847.822    -4659309.803 8  -3615575.37346  23720850.909    23720860.1734
  22632278.593   -12467722.661 8  -9706941.91446  22632280.303    22632290.1344
  24150023.306    -1175396.576 7   -899272.72045  24150034.322    24150049.1804
  20770399.193   -21528373.679 9 -16764561.41948  20770401.128    20770409.1044
  22309339.862   -13186091.418 8 -10262475.60646  22309342.612    22309350.8864
  20740236.905   -19325849.472 9 -15048699.35148  20740239.518    20740247.6184
 00  4 26  2  8 30.0000000  0  7 17 26 21 15 23 29 09
  21315240.582   -18648316.802 9 -14515619.71747  21315247.087    21315255.9274
  23738871.216    -4564585.662 8  -3541764.40045  23738876.341    23738885.9224
  22617505.974   -12545349.589 8  -9767430.38246  22617508.740    22617517.3934
  24130068.177    -1280313.123 7   -981025.71045  24130069.132    24130083.6104
  20766655.172   -21548048.475 9 -16779892.41548  20766656.899    20766664.9524
  22296993.258   -13250956.021 8 -10313019.35946  22296998.423    22297006.7024
  20741438.370   -19319533.845 9 -15043778.06548  20741441.118    20741449.2814
 00  4 26  2  9  0.0000000  0  7 17 26 21 15 23 29 09
  21331630.018   -18562212.115 9 -14448525.19947  21331632.029    21331641.4294
  23756895.986    -4469883.374 8  -3467970.49645  23756896.814    23756908.5984
  22602746.163   -12622917.909 8  -9827873.12946  22602746.795    22602756.1124
  24110145.007    -1385015.836 7  -1062612.05645  24110145.536    24110158.7704
  20762952.270   -21567495.589 9 -16795045.98848  20762956.205    20762964.3654
  22284696.162   -13315596.333 8 -10363388.34146  22284697.581    22284706.2714
  20742768.147   -19312558.739 9 -15038342.89048  20742768.753    20742776.6734
 00  4 26  2  9 30.0000000  0  7 17 26 21 15 23 29 09
  21348103.853   -18475634.946 8 -14381062.51947  21348107.121    21348116.7714
  23774914.835    -4375191.231 8  -3394184.44745  23774916.338    23774927.4914
  22587992.595   -12700435.704 8  -9888276.47046  22587995.978    22588005.4164
  24090248.326    -1489501.903 7  -1144029.59445  24090261.525    24090276.0954
  20759295.454   -21586721.644 9 -16810027.30248  20759297.539    20759305.6484
  22272435.833   -13380001.159 8 -10413573.81846  22272441.175    22272450.7974
  20744222.321   -19304909.378 9 -15032382.33348  20744224.371    20744232.1514
 00  4 26  2 10  0.0000000  0  7 17 26 21 15 23 29 09
  21364669.201   -18388585.104 9 -14313231.52647  21364672.769    21364681.4934
  23792927.233    -4280498.846 8  -3320398.22945  23792935.643    23792946.8684
  22573251.696   -12777902.195 8  -9948639.83146  22573255.353    22573264.0794
  24070424.448    -1593768.550 7  -1225276.12445  24070420.840    24070432.9864
  20755679.956   -21605720.684 9 -16824831.75148  20755682.328    20755690.2524
  22260229.492   -13444167.856 8 -10463573.72746  22260230.594    22260240.4204
  20745804.057   -19296593.955 9 -15025902.76448  20745806.846    20745814.5104
 00  4 26  2 10 30.0000000  0  7 17 26 21 15 23 29 09
  21381320.533   -18301060.878 8 -14245030.87447  21381327.372    21381337.3934
  23810950.795    -4185794.783 8  -3246602.92245  23810957.442    23810967.3444
  22558519.770   -12855315.507 8 -10008961.77846  22558523.089    22558533.0534
  24050620.848    -1697812.871 7  -1306349.44145  24050621.695    24050633.1064
  20752110.639   -21624479.205 9 -16839448.77548  20752112.541    20752120.4064
  22248066.730   -13508092.389 8 -10513384.96546  22248066.935    22248076.1074
  20747513.432   -19287613.356 9 -15018904.87748  20747515.481    20747523.8704
 00  4 26  2 11  0.0000000  0  7 17 26 21 15 23 29 09
  21398070.174   -18213071.966 8 -14176468.14747  21398071.197    21398080.9284
  23828977.469    -4091077.698 8  -3172797.47045  23828981.130    23828991.4624
  22543799.857   -12932674.503 8 -10069241.39146  22543801.870    22543811.5034
  24030859.657    -1801632.059 7  -1387247.37845  24030864.526    24030876.4194
  20748587.019   -21642989.409 9 -16853872.28448  20748590.271    20748597.7324
  22235948.436   -13571764.891 8 -10562999.84246  22235950.975    22235958.7354
  20749348.746   -19277983.473 9 -15011401.05248  20749348.006    20749356.2334
 00  4 26  2 11 30.0000000  0  7 17 26 21 15 23 29 09
  21414900.566   -18124631.464 8 -14107553.52247  21414900.909    21414910.5594
  23847009.366    -3996360.523 8  -3098991.96345  23847006.013    23847015.3454
  22529090.254   -13009970.239 8 -10129471.78246  22529093.385    22529102.7894
  24011146.663    -1905223.451 7  -1467967.78045  24011152.273    24011163.5894
  20745111.225   -21661255.343 9 -16868105.44448  20745114.295    20745121.7224
  22223876.220   -13635191.175 8 -10612422.82646  22223880.538    22223888.9774
  20751297.513   -19267730.488 9 -15003411.69748  20751299.316    20751307.4114
 00  4 26  2 12  0.0000000  0  7 17 26 21 15 23 29 09
  21431808.914   -18035759.002 8 -14038302.30547  21431812.795    21431822.4524
  23865025.125    -3901649.757 8  -3025191.44545  23865028.687    23865038.6224
  22514397.988   -13087193.534 8 -10189645.75546  22514398.319    22514407.4644
  23991473.289    -2008584.283 7  -1548508.51945  23991484.077    23991496.6134
  20741684.545   -21679277.600 9 -16882148.76248  20741684.798    20741692.4224
  22211853.676   -13698384.982 8 -10661664.68246  22211854.872    22211864.1614
  20753363.213   -19256866.450 9 -14994946.19348  20753366.546    20753374.7704
 00  4 26  2 12 30.0000000  0  7 17 26 21 15 23 29 09
  21448801.086   -17946464.743 8 -13968722.41847  21448804.823    21448815.1784
  23883046.097    -3806945.230 8  -2951395.75445  23883049.568    23883060.5514
  22499714.288   -13164335.774 8 -10249756.47046  22499718.008    22499728.0784
  23971858.364    -2111711.547 8  -1628867.28345  23971859.764    23971871.5814
  20738296.777   -21697063.588 9 -16896007.96448  20738300.119    20738307.9464
  22199872.386   -13761350.889 8 -10710728.94747  22199872.857    22199882.2754
  20755551.136   -19245378.159 9 -14985994.26248  20755552.755    20755561.1184
 00  4 26  2 13  0.0000000  0  7 17 26 21 15 23 29 09
  21465878.816   -17856746.332 8 -13898812.02247  21465877.879    21465887.8924
  23901061.531    -3712247.805 7  -2877605.62745  23901069.016    23901080.6684
  22485048.048   -13241401.720 8 -10309807.69646  22485053.207    22485063.2814
  23952279.422    -2214602.383 8  -1709041.85945  23952280.416    23952291.9474
  20734958.219   -21714614.352 9 -16909683.86948  20734960.466    20734968.4994
  22187932.967   -13824086.720 8 -10759613.92447  22187935.134    22187943.6134
  20757854.379   -19233263.959 9 -14976554.61248  20757857.932    20757866.0034
 00  4 26  2 13 30.0000000  0  7 17 26 21 15 23 29 09
  21483024.858   -17766608.456 8 -13828574.78547  21483030.524    21483040.6334
  23919084.007    -3617552.792 8  -2803817.36845  23919089.775    23919099.5744
  22470397.940   -13318393.640 8 -10369801.26146  22470401.775    22470412.0764
  23932737.229    -2317253.987 7  -1789029.94645  23932745.074    23932759.0544
  20731663.753   -21731926.396 9 -16923173.75348  20731665.837    20731673.9184
  22176038.405   -13886600.204 8 -10808325.64447  22176038.431    22176047.4064
  20760282.414   -19220506.688 9 -14966613.86048  20760285.615    20760293.6354
 00  4 26  2 14  0.0000000  0  7 17 26 21 15 23 29 09
  21500262.446   -17676050.576 8 -13758010.26747  21500263.537    21500272.9444
  23937106.305    -3522866.121 8  -2730035.65445  23937109.850    23937119.5894
  22455763.451   -13395314.857 8 -10429739.79346  22455764.730    22455773.6154
  23913256.499    -2419663.283 7  -1868829.22845  23913258.881    23913270.7204
  20728421.189   -21748973.834 9 -16936457.46848  20728422.112    20728430.1894
  22164182.122   -13948887.416 8 -10856861.04247  22164185.378    22164194.5944
  20762838.246   -19207085.192 9 -14956155.54348  20762839.476    20762847.4534
 00  4 26  2 14 30.0000000  0  7 17 26 21 15 23 29 09
  21517574.570   -17585067.803 8 -13687114.66247  21517576.794    21517586.3284
  23955118.290    -3428203.229 8  -2656272.43345  23955123.323    23955133.0694
  22441139.041   -13472167.446 8 -10489624.82646  22441139.026    22441149.2214
  23893812.694    -2521827.359 7  -1948437.47545  23893816.647    23893828.9354
  20725227.698   -21765748.913 9 -16949528.95448  20725229.712    20725238.4124
  22152373.686   -14010942.787 8 -10905215.82747  22152377.558    22152385.9824
  20765516.360   -19193003.786 9 -14945183.01048  20765519.100    20765527.2694
 00  4 26  2 15  0.0000000  0  7 17 26 21 15 23 29 09
  21534969.248   -17493648.433 8 -13615878.85247  21534973.646    21534983.2084
  23973128.582    -3333577.156 8  -2582537.89445  23973129.310    23973139.6814
  22426524.196   -13548956.992 8 -10549460.73247  22426526.657    22426536.6774
  23874423.782    -2623743.464 7  -2027852.43745  23874422.543    23874433.7904
  20722086.412   -21782251.654 9 -16962388.23448  20722089.218    20722097.5224
  22140608.412   -14072763.148 8 -10953387.49046  22140613.337    22140621.1104
  20768315.096   -19178289.720 9 -14933717.48848  20768318.574    20768326.7924
 00  4 26  2 15 30.0000000  0  7 17 26 21 15 23 29 09
  21552449.396   -17401796.001 8 -13544305.60747  21552452.215    21552461.9994
  23991124.371    -3239002.960 8  -2508843.77445  23991126.912    23991137.2344
  22411927.260   -13625667.816 8 -10609235.39447  22411928.919    22411939.4404
  23855076.058    -2725408.702 8  -2107071.95445  23855077.613    23855087.3424
  20718998.770   -21798490.045 9 -16975041.51248  20718999.552    20719007.3154
  22128891.197   -14134345.210 8 -11001373.43947  22128894.039    22128902.7464
  20771234.003   -19162950.012 9 -14921764.45447  20771237.705    20771246.1614
 00  4 26  2 16  0.0000000  0  7 17 26 21 15 23 29 09
  21570009.206   -17309514.492 8 -13472397.99147  21570012.793    21570022.6884
  24009106.331    -3144485.303 8  -2435193.72045  24009113.092    24009123.1754
  22397344.302   -13702300.315 8 -10668948.99847  22397346.781    22397355.8104
  23835776.792    -2826820.240 8  -2186093.77145  23835780.193    23835789.7784
  20715958.150   -21814469.498 9 -16987493.03848  20715958.867    20715966.4974
  22117222.724   -14195677.352 8 -11049164.64146  22117222.913    22117230.8114
  20774270.301   -19146992.316 9 -14909329.88247  20774274.607    20774282.8844
 00  4 26  2 16 30.0000000  0  7 17 26 21 15 23 29 09
  21587651.690   -17216805.127 8 -13400157.00147  21587654.579    21587664.6914
  24027089.616    -3050007.400 8  -2361574.65245  24027091.110    24027101.9384
  22382776.440   -13778858.324 8 -10728604.45947  22382777.913    22382787.1764
  23816524.119    -2927975.180 7  -2264915.65245  23816529.099    23816542.0444
  20712961.380   -21830212.372 9 -16999760.19248  20712963.087    20712970.8224
  22105598.783   -14256757.071 8 -11096759.16947  22105600.654    22105607.8564
  20777423.070   -19130420.652 9 -14896416.88747  20777427.917    20777436.2714
 00  4 26  2 17  0.0000000  0  7 17 26 21 15 23 29 09
  21605373.862   -17123673.289 8 -13327586.81047  21605377.742    21605387.0124
  24045066.455    -2955553.721 8  -2287974.44745  24045065.246    24045075.2964
  22368220.418   -13855340.218 8 -10788200.64847  22368223.888    22368234.0184
  23797326.981    -3028870.459 8  -2343535.16845  23797330.764    23797341.9704
  20710008.983   -21845721.193 9 -17011844.96648  20710011.733    20710019.7914
  22094022.828   -14317586.263 8 -11144158.46847  22094025.145    22094033.8354
  20780696.235   -19113224.266 9 -14883017.10147  20780700.419    20780708.1044
 00  4 26  2 17 30.0000000  0  7 17 26 21 15 23 29 09
  21623174.065   -17030131.684 8 -13254697.31347  21623177.857    21623187.3404
  24063025.772    -2861103.182 8  -2214376.71745  24063039.098    24063049.1094
  22353685.190   -13931738.880 8 -10847732.07347  22353685.955    22353695.0784
  23778175.185    -3129503.422 7  -2421950.28245  23778179.169    23778191.2014
  20707105.063   -21860984.854 9 -17023738.70548  20707107.168    20707115.1814
  22082495.182   -14378173.175 8 -11191368.97947  22082495.060    22082503.9074
  20784095.478   -19095375.227 9 -14869108.75047  20784096.957    20784105.0394
 00  4 26  2 18  0.0000000  0  7 17 26 21 15 23 29 09
  21641054.356   -16936184.241 8 -13181491.58947  21641055.752    21641065.1614
  24081010.627    -2766630.067 7  -2140761.37245  24081016.233    24081026.9414
  22339157.825   -14008060.946 8 -10907203.81447  22339161.619    22339171.0394
  23759075.284    -3229871.236 7  -2500158.77445  23759078.666    23759092.4474
  20704251.101   -21875988.464 9 -17035429.81048  20704251.775    20704259.8414
  22071008.317   -14438526.680 8 -11238397.60347  22071010.202    22071018.7844
  20787615.873   -19076865.513 9 -14854685.58947  20787618.725    20787627.4294
 00  4 26  2 18 30.0000000  0  7 17 26 21 15 23 29 09
  21659009.430   -16841833.524 8 -13107971.62247  21659010.394    21659019.4724
  24098998.091    -2672130.893 7  -2067125.74645  24098998.818    24099009.7304
  22324654.855   -14084296.568 8 -10966608.16247  22324655.493    22324663.7684
  23740030.962    -3329970.823 8  -2578158.27945  23740031.786    23740044.1204
  20701442.533   -21890738.194 9 -17046923.10448  20701445.134    20701453.0324
  22059564.215   -14498662.260 8 -11285256.44747  22059566.420    22059574.5864
  20791262.354   -19057708.282 9 -14839757.87047  20791264.708    20791272.9424
 00  4 26  2 19  0.0000000  0  7 17 26 21 15 23 29 09
  21677036.564   -16747084.876 8 -13034141.57447  21677039.617    21677049.9704
  24116972.238    -2577610.297 7  -1993473.41945  24116986.495    24116996.4354
  22310164.136   -14160441.409 8 -11025941.69247  22310164.868    22310174.6074
  23721038.792    -3429799.393 8  -2655946.59945  23721034.224    23721046.9074
  20698685.002   -21905226.902 9 -17058212.99948  20698687.954    20698696.0034
  22048160.389   -14558578.603 8 -11331944.44647  22048164.691    22048173.4874
  20795026.600   -19037914.221 9 -14824333.91447  20795031.280    20795039.8014
 00  4 26  2 19 30.0000000  0  7 17 26 21 15 23 29 09
  21695140.250   -16651945.617 8 -12960007.17547  21695144.803    21695154.4354
  24134976.481    -2483075.459 8  -1919809.98645  24134976.215    24134985.3444
  22295694.175   -14236497.625 8 -11085206.14747  22295692.580    22295701.5224
  23702077.098    -3529353.877 7  -2733521.31445  23702088.408    23702101.4714
  20695979.391   -21919455.159 9 -17069299.95148  20695980.719    20695988.4984
  22036802.120   -14618273.668 8 -11378460.00347  22036804.859    22036814.2694
  20798914.677   -19017497.335 9 -14808424.65647  20798915.938    20798924.8034
 00  4 26  2 20  0.0000000  0  7 17 26 21 15 23 29 09
  21713321.066   -16556418.053 8 -12885570.18147  21713323.047    21713333.0184
  24152957.157    -2388549.558 8  -1846153.50045  24152963.092    24152973.9304
  22281232.242   -14312471.801 8 -11144406.72147  22281235.162    22281243.9434
  23683194.987    -3628631.642 8  -2810880.50345  23683196.172    23683208.8694
  20693317.675   -21933436.023 9 -17080194.11148  20693319.874    20693327.7324
  22025484.415   -14677741.152 8 -11424798.22047  22025488.201    22025497.2924
  20802914.624   -18996479.898 9 -14792047.43147  20802916.331    20802924.4074
 00  4 26  2 20 30.0000000  0  7 17 26 21 15 23 29 09
  21731573.387   -16460493.029 8 -12810823.48347  21731577.220    21731586.8444
  24170937.334    -2294061.109 7  -1772526.23145  24170943.394    24170954.5204
  22266791.400   -14388368.343 8 -11203546.83647  22266792.298    22266800.8744
  23664359.028    -3727629.717 7  -2888021.70945  23664358.288    23664372.2934
  20690705.427   -21947169.552 9 -17090895.55148  20690706.552    20690714.3784
  22014210.487   -14736974.984 8 -11470954.36447  22014216.411    22014225.4834
  20807025.663   -18974875.159 9 -14775212.56347  20807027.646    20807035.2284
 00  4 26  2 21  0.0000000  0  7 17 26 21 15 23 29 09
  21749901.827   -16364169.718 8 -12735766.43147  21749906.411    21749916.0694
  24188910.522    -2199623.286 7  -1698938.36245  24188913.834    24188924.6174
  22252362.985   -14464180.527 8 -11262621.31947  22252365.995    22252374.6854
  23645566.602    -3826345.229 7  -2964942.68645  23645572.839    23645586.7604
  20688143.774   -21960632.493 9 -17101386.14648  20688144.918    20688152.5044
  22002991.406   -14795963.805 8 -11516919.61447  22002991.552    22002999.4894
  20811252.328   -18952664.168 9 -14757905.29047  20811253.688    20811261.8154
 00  4 26  2 21 30.0000000  0  7 17 26 21 15 23 29 09
  21768312.021   -16267447.831 8 -12660398.81047  21768312.593    21768322.1574
  24206871.885    -2105249.441 7  -1625400.37445  24206872.497    24206884.3554
  22237956.830   -14539896.474 8 -11321620.72347  22237957.957    22237966.8094
  23626845.138    -3924775.190 8  -3041641.18945  23626843.434    23626855.0534
  20685635.344   -21973811.214 9 -17111655.25848  20685636.899    20685644.6784
  21991807.159   -14854714.057 8 -11562698.95447  21991811.698    21991820.4264
  20815597.327   -18929836.190 9 -14740117.24747  20815597.918    20815606.0464
 00  4 26  2 22  0.0000000  0  7 17 26 21 15 23 29 09
  21786787.577   -16170329.876 8 -12584722.56347  21786793.224    21786803.4104
  24224820.208    -2010938.198 7  -1551911.19245  24224820.055    24224830.3384
  22223565.880   -14615508.898 8 -11380539.33747  22223568.487    22223577.4374
  23608157.272    -4022916.618 7  -3118114.90245  23608166.736    23608178.4854
  20683182.996   -21986694.236 9 -17121693.95348  20683185.573    20683192.9754
  21980676.562   -14913221.945 8 -11608289.44147  21980678.518    21980686.4724
  20820056.760   -18906387.572 9 -14721845.59047  20820059.653    20820068.0514
 00  4 26  2 22 30.0000000  0  7 17 26 21 15 23 29 09
  21805345.332   -16072830.593 8 -12508749.18247  21805346.551    21805357.3874
  24242755.036    -1916670.082 8  -1478455.58545  24242758.560    24242768.8694
  22209199.472   -14691013.104 8 -11439373.76047  22209200.887    22209210.1884
  23589544.904    -4120766.728 7  -3194361.58745  23589546.014    23589558.3484
  20680790.440   -21999277.240 9 -17131498.86648  20680791.037    20680798.4194
  21969589.997   -14971478.306 8 -11653683.94547  21969592.361    21969600.9454
  20824640.666   -18882309.036 9 -14703083.08547  20824642.154    20824650.0594
 00  4 26  2 23  0.0000000  0  7 17 26 21 15 23 29 09
  21823967.206   -15974974.631 8 -12432497.85747  21823968.423    21823979.0694
  24260684.802    -1822430.668 8  -1405022.31645  24260691.874    24260702.6104
  22194853.985   -14766394.916 8 -11498112.72747  22194855.895    22194864.6644
  23570980.391    -4218322.781 8  -3270379.10745  23570981.680    23570994.9924
  20678450.176   -22011575.558 9 -17141081.95348  20678450.504    20678457.9274
  21958551.898   -15029487.944 8 -11698886.18547  21958553.837    21958562.3924
  20829343.816   -18857596.216 9 -14683826.33848  20829345.038    20829352.8144
 00  4 26  2 23 30.0000000  0  7 17 26 21 15 23 29 09
  21842655.041   -15876757.657 8 -12355965.23547  21842658.401    21842668.6634
  24278617.372    -1728211.874 8  -1331605.14045  24278621.964    24278630.5464
  22180526.729   -14841678.047 8 -11556774.74447  22180529.003    22180538.7024
  23552473.363    -4315581.776 8  -3346165.19545  23552475.109    23552487.0244
  20676158.709   -22023610.841 9 -17150460.07648  20676160.341    20676167.9934
  21947561.985   -15087252.449 8 -11743897.40647  21947561.710    21947569.8984
  20834164.111   -18832266.688 9 -14664089.03848  20834164.957    20834173.0094
 00  4 26  2 24  0.0000000  0  7 17 26 21 15 23 29 09
  21861413.368   -15778174.738 8 -12279147.45047  21861418.337    21861428.6574
  24296538.564    -1634012.063 8  -1258202.72945  24296547.039    24296557.4064
  22166219.590   -14916871.828 8 -11615367.16847  22166220.704    22166229.5714
  23534018.656    -4412540.633 8  -3421717.40545  23534023.351    23534035.5194
  20673913.645   -22035403.683 9 -17159649.28848  20673916.284    20673923.9344
  21936612.003   -15144769.808 8 -11788716.04947  21936616.111    21936624.7594
  20839099.118   -18806321.255 9 -14643871.81648  20839102.407    20839110.4984
 00  4 26  2 24 30.0000000  0  7 17 26 21 15 23 29 09
  21880250.259   -15679210.815 8 -12202032.78647  21880250.484    21880260.0784
  24314464.321    -1539847.981 8  -1184828.19545  24314466.047    24314476.1354
  22151921.541   -14991981.743 8 -11673894.23847  22151927.395    22151937.1234
  23515628.660    -4509196.525 8  -3497033.57045  23515629.965    23515641.9974
  20671714.288   -22046962.464 9 -17168656.13048  20671716.565    20671724.2874
  21925712.672   -15202046.259 8 -11833346.96847  21925716.127    21925724.9764
  20844154.026   -18779752.556 9 -14623168.93048  20844158.170    20844166.3584
 00  4 26  2 25  0.0000000  0  7 17 26 21 15 23 29 09
  21899155.316   -15579844.725 8 -12124604.74147  21899159.660    21899169.6074
  24332371.104    -1445740.516 8  -1111497.78545  24332374.815    24332384.8174
  22137649.405   -15067005.914 8 -11732354.50047  22137650.580    22137660.0934
  23497296.494    -4605546.732 8  -3572111.48745  23497295.592    23497308.5304
  20669560.951   -22058277.712 9 -17177473.19948  20669563.405    20669571.0294
  21914856.463   -15259097.073 8 -11877802.06547  21914860.761    21914868.4734
  20849329.015   -18752562.799 9 -14601982.09148  20849331.775    20849340.3054
 00  4 26  2 25 30.0000000  0  7 17 26 21 15 23 29 09
  21918144.033   -15480062.264 8 -12046852.25446  21918146.862    21918157.1714
  24350260.759    -1351697.071 8  -1038217.26545  24350270.807    24350281.6734
  22123386.715   -15141947.213 8 -11790750.20047  22123388.816    22123399.2044
  23479018.009    -4701588.395 8  -3646948.97545  23479020.606    23479031.9514
  20667457.129   -22069333.999 9 -17186088.47848  20667459.550    20667467.1664
  21904044.445   -15315917.177 8 -11922077.41047  21904047.617    21904055.8614
  20854622.091   -18724753.111 9 -14580312.19748  20854624.515    20854632.2904
 00  4 26  2 26  0.0000000  0  7 17 26 21 15 23 29 09
  21937207.368   -15379885.123 8 -11968792.23047  21937210.822    21937221.4054
  24368149.163    -1257710.793 7   -964981.26045  24368154.881    24368166.4984
  22109145.120   -15216781.055 8 -11849062.19247  22109148.975    22109158.5914
  23460797.778    -4797318.422 8  -3721543.69645  23460802.585    23460813.8944
  20665403.645   -22080117.185 9 -17194490.96248  20665407.278    20665415.3534
  21893275.252   -15372513.766 8 -11966178.58347  21893277.319    21893284.7544
  20860032.311   -18696315.662 9 -14558153.13448  20860035.620    20860043.6064
 00  4 26  2 26 30.0000000  0  7 17 26 21 15 23 29 09
  21956343.266   -15279332.440 8 -11890439.55947  21956345.291    21956355.7284
  24386029.559    -1163767.546 8   -891778.80445  24386031.930    24386042.5754
  22094928.446   -15291494.659 8 -11907280.46847  22094931.056    22094940.0244
  23442645.776    -4892733.877 8  -3795893.26545  23442645.426    23442655.8254
  20663408.849   -22090612.931 9 -17202669.46048  20663409.955    20663417.9724
  21882546.091   -15428888.199 8 -12010106.64447  21882550.011    21882557.9014
  20865563.025   -18667258.571 9 -14535511.23548  20865565.143    20865573.1004
 00  4 26  2 27  0.0000000  0  7 17 26 21 15 23 29 09
  21975542.636   -15178428.701 8 -11811813.35547  21975546.479    21975557.3274
  24403905.445    -1069856.346 7   -818601.31945  24403902.410    24403913.2574
  22080735.834   -15366074.181 8 -11965394.25047  22080738.640    22080748.0544
  23424542.663    -4987832.012 8  -3869995.54645  23424546.732    23424559.3134
  20661468.282   -22100811.011 9 -17210616.02948  20661469.475    20661477.4064
  21871861.369   -15485039.565 8 -12053860.89847  21871864.610    21871872.1474
  20871209.567   -18637593.613 9 -14512395.68048  20871210.324    20871217.9504
 00  4 26  2 27 30.0000000  0  7 17 26 21 15 23 29 09
  21994810.264   -15077197.116 8 -11732931.67147  21994810.339    21994821.0474
  24421767.280     -975967.693 7   -745441.43245  24421769.250    24421779.3984
  22066566.941   -15440519.607 8 -12023403.49547  22066572.174    22066581.9714
  23406513.912    -5082609.870 8  -3943848.28645  23406512.971    23406522.9554
  20659582.274   -22110713.385 9 -17218332.15248  20659584.698    20659593.0244
  21861220.136   -15540966.268 8 -12097440.07547  21861222.129    21861229.7094
  20876970.194   -18607317.827 9 -14488804.15148  20876971.253    20876979.6394
 00  4 26  2 28  0.0000000  0  8 17 26 21 15 23 05 29 09
  22014130.519   -14975654.808 8 -11653807.88846  22014132.440    22014144.0394
  24439634.996     -882103.801 7   -672300.79145  24439630.685    24439641.4734
  22052425.898   -15514830.568 8 -12081308.00247  22052431.324    22052441.1074
  23388537.587    -5177064.617 8  -4017449.25545  23388540.340    23388549.7344
  20657757.078   -22120311.975 9 -17225811.55848  20657758.670    20657766.4184
  24537538.219      -85342.64717    -54939.32255                  24537558.8034
  21850618.448   -15596677.682 8 -12140851.49847  21850620.093    21850627.9224
  20882848.761   -18576428.563 9 -14464734.58548  20882849.681    20882857.4154
 00  4 26  2 28 30.0000000  0  8 17 26 21 15 23 05 29 09
  22033510.550   -14873793.576 8 -11574435.59446  22033516.339    22033527.2534
  24457484.301     -788283.688 7   -599194.28345  24457483.671    24457495.5804
  22038311.052   -15589025.958 8 -12139122.51947  22038313.078    22038322.1984
  23370624.247    -5271193.344 8  -4090796.16445  23370626.364    23370637.6314
  20655988.694   -22129606.659 9 -17233054.15548  20655989.975    20655997.6324
  24522245.798     -165774.063 7   -117612.88445  24522237.655    24522250.3214
  21840059.208   -15652163.527 8 -12184087.14847  21840062.085    21840070.1474
  20888838.303   -18544934.919 9 -14440194.08448  20888842.794    20888850.4994
 00  4 26  2 29  0.0000000  0  8 17 26 21 15 23 05 29 09
  22052959.564   -14771608.421 8 -11494810.87646  22052961.736    22052972.4604
  24475323.711     -694512.093 7   -526125.59945  24475328.072    24475340.0714
  22024210.634   -15663123.656 8 -12196860.94647  22024212.616    22024221.5584
  23352777.166    -5364993.180 8  -4163886.78845  23352777.192    23352787.6074
  20654277.391   -22138600.018 9 -17240061.95348  20654278.341    20654286.1004
  24506947.262     -246119.148 7   -180219.08445  24506947.794    24506962.1804
  21829545.687   -15707416.940 8 -12227141.70247  21829547.280    21829555.2844
  20894948.271   -18512841.120 9 -14415185.92048  20894949.932    20894957.9704
 00  4 26  2 29 30.0000000  0  8 17 26 21 15 23 05 29 09
  22072468.676   -14669083.891 8 -11414921.73146  22072471.526    22072482.1814
  24493171.372     -600775.110 7   -453083.90045  24493166.151    24493176.7694
  22010124.133   -15737139.260 8 -12254535.43347  22010127.621    22010136.3214
  23334987.615    -5458461.057 8  -4236718.77045  23334990.314    23335001.6364
  20652620.238   -22147303.322 9 -17246843.72948  20652622.097    20652629.8804
  24491666.308     -326389.684 7   -242767.24745  24491672.840    24491687.8154
  21819077.926   -15762427.178 8 -12270006.75247  21819079.051    21819086.6624
  20901170.498   -18480145.927 9 -14389709.14647  20901171.372    20901179.4204
 00  4 26  2 30  0.0000000  0  8 17 26 21 15 23 05 29 09
  22092045.226   -14566201.356 8 -11334753.61446  22092050.172    22092060.1734
  24510988.056     -507073.488 7   -380069.72245  24510996.852    24511007.4774
  21996056.651   -15811075.294 8 -12312147.91347  21996058.258    21996066.7814
  23317267.438    -5551594.048 8  -4309289.81445  23317268.168    23317278.7424
  20651019.550   -22155717.349 9 -17253400.09348  20651021.563    20651029.0574
  24476417.847     -406598.195 7   -305267.09345  24476408.377    24476425.7984
  21808657.538   -15817179.450 8 -12312670.81047  21808660.403    21808668.0104
  20907504.446   -18446855.452 9 -14363768.51547  20907505.961    20907514.2224
 00  4 26  2 30 30.0000000  0  8 17 26 21 15 23 05 29 09
  22111697.113   -14462941.334 8 -11254291.36346  22111699.813    22111709.8374
  24528825.939     -413397.206 7   -307075.32245  24528823.914    24528834.6204
  21982001.693   -15884928.102 8 -12369695.52747  21982004.882    21982013.8594
  23299608.581    -5644389.600 8  -4381597.85545  23299607.773    23299620.6374
  20649467.969   -22163858.830 9 -17259744.09248  20649471.813    20649479.8874
  24461152.449     -486758.008 7   -367728.96144  24461153.764    24461167.7504
  21798292.646   -15871653.102 8 -12355117.77447  21798294.055    21798301.4954
  20913948.468   -18412979.571 9 -14337371.72447  20913952.544    20913960.6804
 00  4 26  2 31  0.0000000  0  8 17 26 21 15 23 05 29 09
  22131421.502   -14359303.974 8 -11173535.08446  22131421.958    22131431.4204
  24546650.437     -319736.370 7   -234092.91345  24546647.748    24546656.7844
  21967967.942   -15958674.785 8 -12427160.33547  21967970.941    21967980.0974
  23282006.816    -5736844.704 8  -4453640.66245  23282014.296    23282026.5374
  20647973.046   -22171728.958 9 -17265876.67048  20647974.010    20647981.8004
  24445904.659     -566883.547 7   -430164.14045  24445907.088    24445922.6224
  21787974.198   -15925860.417 8 -12397357.18647  21787978.322    21787986.2314
  20920512.888   -18378506.190 9 -14310509.35247  20920512.456    20920520.7034
 00  4 26  2 31 30.0000000  0  8 17 26 21 15 23 05 29 09
  22151212.287   -14255292.020 8 -11092486.90446  22151213.886    22151224.2054
  24564459.995     -226112.995 7   -161139.72845  24564463.722    24564473.4874
  21953959.650   -16032293.383 8 -12484525.35947  21953961.929    21953971.2054
  23264486.167    -5828956.452 8  -4525415.91045  23264487.357    23264497.1734
  20646527.987   -22179318.189 9 -17271790.34148  20646529.720    20646537.3344
  24430676.017     -646967.943 7   -492567.27745  24430668.164    24430683.1364
  21777711.348   -15979806.899 8 -12439393.35047  21777712.559    21777721.4374
  20927185.232   -18343427.762 9 -14283175.51247  20927187.753    20927195.5154
 00  4 26  2 32  0.0000000  0  8 17 26 21 15 23 05 29 09
  22171074.317   -14150926.479 8 -11011163.19146  22171074.602    22171084.7634
  24582266.300     -132545.353 7    -88229.95845  24582268.035    24582278.4394
  21939976.746   -16105761.454 8 -12541773.04847  21939981.092    21939990.5744
  23247019.374    -5920721.856 8  -4596921.29845  23247024.477    23247034.3614
  20645139.461   -22186611.176 9 -17277473.16948  20645142.020    20645149.8414
  24415444.497     -726995.946 7   -554926.41245  24415438.282    24415453.9904
  21767491.911   -16033509.995 8 -12481239.85247  21767493.167    21767501.3584
  20933975.246   -18307742.861 9 -14255369.09947  20933978.837    20933986.4504
 00  4 26  2 32 30.0000000  0  8 17 26 21 15 23 05 29 09
  22190994.408   -14046234.680 8 -10929585.27946  22190996.796    22191007.5754
  24600057.667      -39028.171 7    -15359.52845  24600062.872    24600074.6614
  21926031.636   -16179062.253 8 -12598890.50047  21926032.426    21926041.3994
  23229633.267    -6012137.952 8  -4668154.46945  23229627.598    23229638.6214
  20643808.054   -22193608.416 9 -17282925.55448  20643810.635    20643818.2954
  24400211.717     -806957.348 7   -617233.66445  24400221.606    24400236.9684
  21757314.015   -16086988.363 8 -12522911.25347  21757316.762    21757324.6234
  20940884.567   -18271450.484 9 -14227089.33547  20940884.787    20940892.6494
 00  4 26  2 33  0.0000000  0  8 17 26 21 15 23 05 29 09
  22210975.557   -13941239.337 8 -10847770.83746  22210976.464    22210986.0574
  24617841.822       54430.580 7     57465.40045  24617847.875    24617859.5424
  21912114.089   -16252201.803 8 -12655882.33447  21912115.169    21912122.9364
  23212297.255    -6103202.214 8  -4739113.45846  23212299.643    23212312.3364
  20642536.724   -22200291.828 9 -17288133.40248  20642538.767    20642546.6184
  24385015.831     -886834.721 7   -679475.52945  24385020.465    24385036.8954
  21747179.011   -16140261.105 8 -12564422.43047  21747179.631    21747187.2394
  20947903.944   -18234545.491 9 -14198332.20047  20947906.913    20947915.4754
 00  4 26  2 33 30.0000000  0  8 17 26 21 15 23 05 29 09
  22231013.463   -13835954.249 8 -10765730.59046  22231011.964    22231021.6634
  24635617.707      147836.525 7    130249.17545  24635621.889    24635633.8794
  21898222.942   -16325192.398 8 -12712758.15547  21898224.666    21898233.4994
  23195034.876    -6193911.626 8  -4809796.02545  23195038.359    23195046.6634
  20641324.534   -22206662.977 9 -17293097.92548  20641326.434    20641334.1024
  24369830.589     -966623.669 7   -741648.49345  24369837.128    24369852.0404
  21737079.239   -16193317.559 8 -12605765.09047  21737083.304    21737090.6624
  20955037.797   -18197047.769 9 -14169113.19847  20955043.062    20955051.3534
 00  4 26  2 34  0.0000000  0  8 17 26 21 15 23 05 29 09
  22251098.067   -13730385.709 8 -10683469.49946  22251101.022    22251111.5154
  24653390.787      241208.793 7    203006.70445  24653390.338    24653402.5864
  21884359.223   -16398044.102 8 -12769525.74247  21884361.653    21884370.1004
  23177850.612    -6284263.796 8  -4880200.19045  23177842.956    23177855.5544
  20640168.120   -22212736.363 9 -17297830.43448  20640170.612    20640178.5174
  24354672.809    -1046336.461 7   -803762.09845  24354668.520    24354683.1574
  21727024.112   -16246159.302 8 -12646940.42647  21727026.895    21727035.4494
  20962288.592   -18158969.170 9 -14139441.56847  20962289.453    20962297.1054
 00  4 26  2 34 30.0000000  0  8 17 26 21 15 23 05 29 09
  22271243.080   -13624527.351 8 -10600982.58946  22271245.215    22271255.5404
  24671152.970      334536.757 7    275729.70845  24671150.783    24671161.9934
  21870517.102   -16470779.009 8 -12826202.24947  21870520.572    21870529.4504
  23160709.454    -6374255.094 8  -4950323.12046  23160719.304    23160731.2024
  20639068.274   -22218521.179 9 -17302338.06748  20639070.011    20639077.7694
  24339514.272    -1125977.005 7   -865819.36345  24339513.089    24339527.9584
  21717012.446   -16298778.118 8 -12687942.05447  21717014.047    21717022.3704
  20969643.191   -18120319.326 9 -14109324.81747  20969643.839    20969651.6964
 00  4 26  2 35  0.0000000  0  8 17 26 21 15 23 05 29 09
  22291446.166   -13518369.642 8 -10518262.40846  22291446.688    22291457.3774
  24688895.788      427801.179 7    348403.19145  24688899.032    24688910.6074
  21856696.900   -16543410.588 8 -12882798.26947  21856699.760    21856708.3224
  23143662.771    -6463882.928 8  -5020162.84545  23143663.480    23143672.6084
  20638021.989   -22224016.787 9 -17306620.34448  20638024.327    20638032.1014
  24324360.414    -1205545.943 7   -927820.93745  24324372.829    24324388.4334
  21707042.045   -16351163.089 8 -12728761.46447  21707045.858    21707053.9354
  20977103.724   -18081107.126 9 -14078769.86047  20977105.730    20977113.8704
 00  4 26  2 35 30.0000000  0  8 17 26 21 15 23 05 29 09
  22311702.673   -13411907.100 8 -10435304.72046  22311705.765    22311716.3464
  24706632.806      520992.683 7    421019.84745  24706632.339    24706644.6764
  21842898.119   -16615922.909 9 -12939301.31647  21842901.077    21842909.2004
  23126678.306    -6553144.281 8  -5089717.08745  23126677.704    23126686.2754
  20637030.411   -22229234.804 9 -17310686.30848  20637031.356    20637038.8984
  24309231.621    -1285045.896 7   -989768.69145  24309243.204    24309258.7244
  21697120.385   -16403303.047 8 -12769389.97847  21697124.297    21697131.3484
  20984671.853   -18041335.882 9 -14047779.27847  20984674.170    20984682.0964
 00  4 26  2 36  0.0000000  0  8 17 26 21 15 23 05 29 09
  22332020.084   -13305129.424 8 -10352101.44046  22332025.116    22332035.4234
  24724345.499      614102.012 7    493572.48645  24724351.910    24724360.6744
  21829124.985   -16688310.891 9 -12995707.43147  21829126.175    21829134.2744
  23109758.878    -6642036.304 8  -5158983.45246  23109762.407    23109773.7844
  20636091.173   -22234163.926 9 -17314527.18348  20636093.185    20636101.0194
  24294135.998    -1364460.654 7  -1051650.03545  24294131.823    24294144.7324
  21687246.643   -16455202.255 8 -12809830.87947  21687247.915    21687255.4914
  20992348.996   -18000994.991 9 -14016344.82347  20992350.892    20992358.4334
 00  4 26  2 36 30.0000000  0  8 17 26 21 15 23 05 29 09
  22352408.819   -13198034.003 8 -10268650.58646  22352404.437    22352414.3684
  24742043.635      707135.939 7    566066.37345  24742053.911    24742064.9114
  21815371.174   -16760578.399 9 -13052019.76347  21815374.053    21815381.8264
  23092916.345    -6730556.223 8  -5227959.84846  23092916.675    23092928.2464
  20635210.475   -22238792.317 9 -17318133.73048  20635212.365    20635220.0214
  24279038.148    -1443772.316 7  -1113451.09745  24279038.193    24279052.0334
  21677415.218   -16506860.078 8 -12850083.68347  21677417.510    21677425.8594
  21000134.330   -17960072.988 9 -13984457.55647  21000137.673    21000145.8484
 00  4 26  2 37  0.0000000  0  8 17 26 21 15 23 05 29 09
  22372839.071   -13090623.947 8 -10184954.52246  22372843.957    22372854.5514
  24759749.835      800120.241 7    638521.60445  24759749.038    24759759.6554
  21801647.507   -16832705.430 8 -13108222.67847  21801648.228    21801656.5184
  23076142.892    -6818701.362 8  -5296644.24345  23076143.308    23076154.2314
  20634389.547   -22243105.560 9 -17321494.70148  20634391.409    20634399.0824
  24263963.689    -1522975.238 7  -1175167.40245  24263964.775    24263981.9844
  21667629.539   -16558270.683 8 -12890143.85347  21667633.930    21667642.7634
  21008035.340   -17918561.874 9 -13952111.24347  21008037.493    21008045.3054
 00  4 26  2 37 30.0000000  0  8 17 26 21 15 23 05 29 09
  22393341.567   -12982910.151 8 -10101021.82246  22393342.161    22393352.2724
  24777442.633      893071.858 7    710951.38445  24777436.477    24777447.4484
  21787949.581   -16904681.858 9 -13164308.25547  21787951.550    21787960.2684
  23059435.997    -6906468.902 8  -5365034.39146  23059441.460    23059452.3794
  20633630.034   -22247098.185 9 -17324605.83648  20633631.777    20633639.2144
  24248908.527    -1602056.532 7  -1236788.93445  24248916.537    24248931.3344
  21657893.718   -16609438.383 8 -12930014.75047  21657897.322    21657905.7524
  21016046.740   -17876456.012 9 -13919301.49347  21016050.100    21016058.0614
 00  4 26  2 38  0.0000000  0  8 17 26 21 15 23 05 29 09
  22413886.468   -12874898.227 8 -10016856.80746  22413895.332    22413905.8814
  24795115.930      986005.911 7    783367.45645  24795122.359    24795132.7014
  21774280.488   -16976512.721 8 -13220280.33147  21774282.465    21774290.8354
  23042811.739    -6993855.699 8  -5433127.90846  23042812.906    23042824.1064
  20632928.756   -22250772.326 9 -17327468.79948  20632932.638    20632940.0704
  24233889.578    -1681014.678 7  -1298314.49145  24233892.773    24233907.2204
  21648205.704   -16660366.829 8 -12969699.23147  21648206.358    21648214.1294
  21024172.780   -17833758.722 9 -13886030.88147  21024175.130    21024182.8144
 00  4 26  2 38 30.0000000  0  7 17 21 15 23 05 29 09
  22434503.697   -12766596.450 8  -9932465.92846  22434504.973    22434514.4914
  21760639.488   -17048188.139 8 -13276131.29947  21760642.699    21760651.8704
  23026255.304    -7080859.253 8  -5500922.77646  23026255.668    23026266.9794
  20632289.328   -22254145.398 9 -17330097.15848  20632290.694    20632298.3894
  24218886.574    -1759853.171 7  -1359746.85045  24218889.308    24218903.8214
  21638557.720   -16711050.547 8 -13009192.98047  21638561.290    21638569.6284
  21032410.134   -17790475.891 9 -13852304.01247  21032411.763    21032419.3644
 00  4 26  2 39  0.0000000  0  7 17 21 15 23 05 29 09
  22455166.211   -12658012.330 8  -9847855.03346  22455167.867    22455178.5614
  21747033.926   -17119688.065 8 -13331845.54947  21747036.770    21747045.7434
  23009770.847    -7167476.764 8  -5568416.76846  23009774.133    23009785.4354
  20631702.890   -22257223.170 9 -17332495.41748  20631704.913    20631712.6884
  24203913.272    -1838561.695 7  -1421077.96745  24203911.141    24203925.2144
  21628962.821   -16761481.598 8 -13048489.86247  21628964.741    21628973.3334
  21040758.104   -17746611.891 9 -13818124.28747  21040758.633    21040766.7084
 00  4 26  2 39 30.0000000  0  7 17 21 15 23 05 29 09
  22475876.861   -12549142.205 8  -9763021.29646  22475885.484    22475895.5174
  21733458.024   -17191025.848 8 -13387433.46347  21733461.552    21733471.1164
  22993367.343    -7253705.235 8  -5635607.66746  22993366.586    22993375.5554
  20631169.172   -22260028.332 9 -17334681.25848  20631171.172    20631178.8944
  24188959.167    -1917148.278 7  -1482314.07945  24188958.003    24188969.6504
  21619412.580   -16811664.052 8 -13087593.03147  21619414.755    21619423.1364
  21049211.761   -17702174.390 9 -13783497.67147  21049214.764    21049222.3634
 00  4 26  2 40  0.0000000  0  7 17 21 15 23 05 29 09
  22496660.713   -12439974.899 8  -9677955.98646  22496658.159    22496669.5144
  21719912.722   -17262211.030 9 -13442902.38247  21719915.532    21719924.6964
  22977028.428    -7339541.910 8  -5702493.30046  22977029.894    22977040.0614
  20630688.288   -22262561.459 9 -17336655.13348  20630689.535    20630696.8454
  24174020.385    -1995626.604 8  -1543465.80545  24174022.798    24174036.2914
  21609908.264   -16861603.562 8 -13126506.88747  21609911.974    21609919.8504
  21057776.648   -17657162.076 9 -13748423.15347  21057780.390    21057788.2544
 00  4 26  2 40 30.0000000  0  7 17 21 15 23 05 29 09
  22517480.607   -12330519.126 8  -9592665.85646  22517487.670    22517499.0184
  21706396.518   -17333245.696 9 -13498253.99547  21706398.316    21706407.4704
  22960766.337    -7424984.145 8  -5769071.53546  22960770.908    22960783.0564
  20630259.697   -22264810.458 9 -17338407.60248  20630261.114    20630269.0494
  24159109.864    -2073990.153 7  -1604528.07345  24159111.143    24159124.1974
  21600453.631   -16911307.755 8 -13165237.38647  21600453.482    21600461.8434
  21066454.646   -17611570.317 9 -13712897.11547  21066455.980    21066463.4744
 00  4 26  2 41  0.0000000  0  7 17 21 15 23 05 29 09
  22538372.524   -12220776.529 8  -9507152.27746  22538371.062    22538382.9584
  21692903.724   -17404139.480 9 -13553495.88747  21692907.435    21692916.3714
  22944583.667    -7510028.870 8  -5835340.03346  22944588.030    22944597.9084
  20629887.292   -22266758.431 9 -17339925.49048  20629890.333    20629898.2364
  24144213.665    -2152238.266 7  -1665500.38345  24144220.359    24144234.2904
  21591033.873   -16960792.470 8 -13203796.87147  21591037.132    21591045.1684
  21075238.170   -17565401.407 9 -13676921.34147  21075241.498    21075249.7764
 00  4 26  2 41 30.0000000  0  7 17 21 15 23 05 29 09
  22559303.491   -12110747.144 8  -9421415.22346  22559308.627    22559320.1114
  21679438.681   -17474896.486 9 -13608631.16247  21679442.612    21679451.4494
  22928480.733    -7594673.514 8  -5901296.79746  22928480.406    22928490.6444
  20629576.580   -22268398.196 9 -17341203.23648  20629578.440    20629586.1224
  24129355.023    -2230381.737 7  -1726391.20645  24129350.350    24129363.9314
  21581655.220   -17010080.652 8 -13242203.20747  21581657.682    21581665.7034
  21084129.995   -17518671.695 9 -13640508.59347  21084134.051    21084142.1674
 00  4 26  2 42  0.0000000  0  7 17 21 15 23 05 29 09
  22580297.194   -12000448.900 8  -9335468.66646  22580299.142    22580308.6744
  21666007.539   -17545493.411 9 -13663641.72247  21666008.256    21666017.6124
  22912448.103    -7678915.130 8  -5966939.49146  22912449.639    22912459.7004
  20629328.242   -22269700.163 9 -17342217.76548  20629330.696    20629338.5424
  24114506.948    -2308400.160 7  -1787184.57345  24114502.195    24114515.8404
  21572311.722   -17059177.041 8 -13280460.10547  21572315.185    21572323.0984
  21093131.662   -17471384.735 9 -13603661.62847  21093133.085    21093140.0244
 00  4 26  2 42 30.0000000  0  7 17 21 15 23 05 29 09
  22601334.741   -11889893.402 8  -9249321.64646  22601337.495    22601347.5094
  21652604.570   -17615922.448 9 -13718521.46247  21652606.303    21652615.1294
  22896491.895    -7762751.059 8  -6032266.09946  22896495.426    22896505.8004
  20629145.417   -22270656.128 9 -17342962.67748  20629148.260    20629156.8344
  24099679.646    -2386267.970 7  -1847860.56845  24099685.916    24099699.2304
  21563009.420   -17108067.507 9 -13318556.52947  21563011.746    21563018.9754
  21102228.889   -17423564.859 9 -13566399.40347  21102232.255    21102240.0634
 00  4 26  2 43  0.0000000  0  7 17 21 15 23 05 29 09
  22622423.905   -11779073.924 8  -9162968.91846  22622425.823    22622436.2994
  21639235.873   -17686174.561 9 -13773263.38147  21639237.787    21639246.0544
  22880615.809    -7846178.371 8  -6097274.25946  22880620.067    22880631.0474
  20629032.734   -22271259.178 9 -17343432.60248  20629033.935    20629042.0914
  24084888.126    -2463984.080 7  -1908418.31745  24084896.236    24084911.2724
  21553744.190   -17156742.776 9 -13356485.26347  21553749.065    21553756.5284
  21111426.107   -17375232.087 9 -13528737.50447  21111428.765    21111436.8524
 00  4 26  2 43 30.0000000  0  7 17 21 15 23 05 29 09
  22643565.065   -11667999.057 8  -9076417.20546  22643562.021    22643572.8554
  21625901.874   -17756249.821 9 -13827867.41747  21625902.888    21625911.3474
  22864821.970    -7929194.365 8  -6161961.93846  22864823.543    22864833.6504
  20628984.832   -22271504.356 9 -17343623.64548  20628987.502    20628995.3504
  24070139.541    -2541547.192 7  -1968856.87245  24070136.053    24070149.2744
  21544528.797   -17205182.649 9 -13394230.57047  21544530.786    21544538.4084
  21120722.939   -17326381.490 9 -13490672.10847  21120725.431    21120733.5764
 00  4 26  2 44  0.0000000  0  7 17 21 15 23 05 29 09
  22664744.526   -11556670.016 8  -8989667.45046  22664746.101    22664758.7614
  21612597.451   -17826158.025 9 -13882341.27247  21612599.799    21612608.5124
  22849098.705    -8011796.329 8  -6226327.00545  22849102.750    22849111.9544
  20629006.870   -22271395.953 9 -17343539.17348  20629008.526    20629015.8414
  24055395.408    -2618945.794 7  -2029167.26945  24055406.708    24055420.1444
  21535358.119   -17253364.004 9 -13431774.43647  21535362.291    21535369.6604
  21130122.823   -17276995.076 9 -13452189.19747  21130123.737    21130130.8124
 00  4 26  2 44 30.0000000  0  7 17 21 15 23 05 29 09
  22685983.393   -11445076.148 8  -8902711.34446  22685982.826    22685994.7204
  21599325.196   -17895914.791 9 -13936697.11347  21599326.543    21599334.7664
  22833460.025    -8093981.459 8  -6290367.29846  22833464.003    22833473.6564
  20629089.660   -22270958.929 9 -17343198.63348  20629091.666    20629099.0634
  24040711.832    -2696182.737 8  -2089351.69345  24040709.584    24040723.4064
  21526241.487   -17301286.676 9 -13469116.71647  21526242.673    21526250.3754
  21139622.751   -17227067.714 9 -13413284.77247  21139624.153    21139632.7574
 00  4 26  2 45  0.0000000  0  7 17 21 15 23 05 29 09
  22707263.252   -11333213.365 8  -8815545.67546  22707269.482    22707281.0614
  21586079.293   -17965519.044 9 -13990934.12847  21586080.735    21586089.3784
  22817899.950    -8175747.073 8  -6354080.64046  22817904.751    22817915.9184
  20629233.020   -22270205.488 9 -17342611.53448  20629234.708    20629242.4314
  24026038.820    -2773284.403 8  -2149430.73445  24026038.529    24026051.3854
  21517168.613   -17348964.794 9 -13506268.43547  21517170.655    21517178.3584
  21149228.476   -17176571.696 9 -13373937.23547  21149233.513    21149241.6074
 00  4 26  2 45 30.0000000  0  7 17 21 15 23 05 29 09
  22728603.826   -11221091.761 8  -8728178.33146  22728605.800    22728617.1254
  21572860.653   -18034977.653 9 -14045057.64647  21572863.036    21572871.4184
  22802423.949    -8257090.293 8  -6417464.85146  22802424.753    22802434.9924
  20629434.657   -22269144.192 9 -17341784.54348  20629436.422    20629444.2044
  24011384.149    -2850254.521 8  -2209407.25745  24011391.708    24011404.1494
  21508140.447   -17396397.060 9 -13543228.59347  21508143.998    21508151.0874
  21158953.202   -17125489.587 9 -13334133.00647  21158954.442    21158962.0684
 00  4 26  2 46  0.0000000  0  7 17 21 15 23 05 29 09
  22749987.325   -11108719.375 8  -8640615.58146  22749989.449    22750000.9474
  21559673.388   -18104285.871 9 -14099064.00047  21559673.763    21559682.5864
  22787024.979    -8338008.528 8  -6480517.85046  22787027.564    22787036.9244
  20629693.690   -22267783.172 9 -17340724.00448  20629695.411    20629703.0324
  23996766.193    -2927084.331 7  -2269274.43645  23996769.798    23996783.7514
  21499160.911   -17443593.782 9 -13580005.23447  21499162.768    21499169.4064
  21168781.946   -17073830.426 9 -13293879.12247  21168784.530    21168792.3794
 00  4 26  2 46 30.0000000  0  7 17 21 15 23 05 29 09
  22771413.318   -10996111.273 8  -8552869.13846  22771418.920    22771429.3184
  21546515.772   -18173429.891 9 -14152942.38047  21546516.396    21546524.4164
  22771709.160    -8418498.795 8  -6543237.41446  22771710.733    22771719.0404
  20630009.747   -22266114.788 9 -17339423.94948  20630012.726    20630020.7724
  23982175.213    -3003781.791 8  -2329038.49145  23982175.128    23982187.6394
  21490224.685   -17490559.742 9 -13616602.02847  21490225.269    21490232.0444
  21178718.845   -17021609.894 9 -13253187.80947  21178721.743    21178729.9434
 00  4 26  2 47  0.0000000  0  7 17 21 15 23 05 29 09
  22792884.736   -10883285.298 8  -8464952.92146  22792888.602    22792899.5964
  21533389.539   -18242393.192 9 -14206679.95947  21533392.662    21533401.1244
  22756469.116    -8498558.454 8  -6605621.48846  22756474.536    22756484.1384
  20630391.375   -22264117.019 9 -17337867.24248  20630393.106    20630400.8954
  23967599.475    -3080347.887 8  -2388700.22545  23967605.670    23967617.6424
  21481328.972   -17537290.126 9 -13653015.26847  21481332.579    21481340.1164
  21188759.403   -16968833.873 9 -13212063.64747  21188764.413    21188772.3704
 00  4 26  2 47 30.0000000  0  7 17 21 15 23 05 29 09
  22814399.895   -10770261.971 8  -8376882.96446  22814396.588    22814407.7844
  21520305.746   -18311160.432 9 -14260264.76147  21520307.236    21520315.4284
  22741323.840    -8578184.864 8  -6667667.89246  22741323.578    22741333.9614
  20630836.890   -22261788.319 9 -17336052.66148  20630836.115    20630844.3474
  23953069.522    -3156746.935 8  -2448231.75445  23953068.267    23953079.8174
  21472483.828   -17583779.165 9 -13689240.44147  21472485.993    21472493.9434
  21198906.604   -16915514.854 9 -13170516.37247  21198910.190    21198918.9064
 00  4 26  2 48  0.0000000  0  7 17 21 15 23 05 29 09
  22835943.183   -10657032.308 8  -8288652.20946  22835944.249    22835954.4974
  21507257.707   -18379712.753 9 -14313682.07047  21507261.790    21507270.2264
  22726246.759    -8657375.503 8  -6729374.71546  22726252.735    22726262.6214
  20631339.351   -22259134.593 9 -17333984.81548  20631341.075    20631349.3894
  23938558.769    -3232958.757 7  -2507617.37145  23938563.023    23938576.7984
  21463680.336   -17630035.334 9 -13725284.15647  21463683.357    21463691.6694
  21209155.239   -16861661.632 9 -13128552.83047  21209158.525    21209167.1224
 00  4 26  2 48 30.0000000  0  7 17 21 15 23 05 29 09
  22857519.503   -10543586.984 8  -8200253.39446  22857531.524    22857543.4584
  21494259.868   -18448037.430 9 -14366921.96747  21494260.012    21494268.5304
  22711266.717    -8736127.595 8  -6790739.86246  22711268.196    22711276.1054
  20631908.252   -22256150.086 9 -17331659.22148  20631908.984    20631917.0984
  23924091.059    -3308986.641 8  -2566859.70445  23924096.406    23924108.5594
  21454918.438   -17676065.821 8 -13761152.01747  21454924.151    21454932.4154
  21219506.860   -16807279.124 9 -13086176.87147  21219507.568    21219515.5324
 00  4 26  2 49  0.0000000  0  7 17 21 15 23 05 29 09
  22879163.461   -10429910.492 8  -8111674.45046  22879163.451    22879174.8664
  21481298.851   -18516139.556 9 -14419988.50947  21481300.294    21481308.7514
  22696362.477    -8814438.491 8  -6851761.24746  22696365.474    22696374.6554
  20632537.204   -22252844.085 9 -17329083.12248  20632538.460    20632546.2964
  23909666.984    -3384819.044 7  -2625949.68145  23909665.021    23909678.2894
  21446203.875   -17721878.399 9 -13796850.08747  21446206.053    21446213.7364
  21229955.276   -16752365.555 9 -13043387.08447  21229957.564    21229965.3454
 00  4 26  2 49 30.0000000  0  7 17 21 15 23 05 29 09
  22900840.751   -10315994.434 8  -8022908.85446  22900841.313    22900852.3554
  21468376.773   -18584035.304 9 -14472894.26947  21468380.488    21468388.5694
  22681543.113    -8892305.536 8  -6912436.69346  22681547.285    22681557.6924
  20633226.441   -22249223.302 9 -17326261.72448  20633227.488    20633235.2604
  23895274.879    -3460454.706 8  -2684886.37045  23895271.990    23895285.2224
  21437524.371   -17767473.123 9 -13832378.40647  21437530.086    21437537.3794
  21240506.353   -16696924.763 9 -13000186.47747  21240507.262    21240515.1084
 00  4 26  2 50  0.0000000  0  7 17 21 15 23 05 29 09
  22922565.472   -10201823.796 8  -7933944.85046  22922566.888    22922579.0654
  21455493.445   -18651744.128 9 -14525654.40147  21455495.750    21455504.1724
  22666812.864    -8969725.857 8  -6972764.09346  22666814.946    22666825.2344
  20633975.876   -22245277.387 9 -17323186.98948  20633978.266    20633986.2424
  23880904.847    -3535916.238 7  -2743687.37645  23880911.295    23880925.6834
  21428891.419   -17812848.856 8 -13867736.04947  21428895.094    21428903.1594
  21251152.301   -16640975.120 9 -12956589.36747  21251153.625    21251162.5404
 00  4 26  2 50 30.0000000  0  7 17 21 15 23 05 29 09
  22944340.797   -10087416.114 8  -7844796.16946  22944338.338    22944350.5014
  21442642.505   -18719285.975 9 -14578284.35747  21442642.964    21442651.0754
  22652162.568    -9046696.989 8  -7032741.42646  22652167.250    22652178.2814
  20634790.511   -22240999.019 9 -17319853.20148  20634792.319    20634800.2974
  23866585.558    -3611213.665 8  -2802360.48345  23866583.417    23866596.5324
  21420302.337   -17858000.442 9 -13902919.06047  21420302.661    21420310.5894
  21261888.574   -16584530.082 9 -12912606.23647  21261894.712    21261903.4504
 00  4 26  2 51  0.0000000  0  7 17 21 15 23 05 29 09
  22966152.488    -9972784.699 8  -7755473.10246  22966152.340    22966163.3914
  21429817.502   -18786674.198 9 -14630794.60147  21429819.115    21429828.0634
  22637605.632    -9123216.211 8  -7092366.68046  22637607.307    22637616.2834
  20635667.578   -22236390.830 9 -17316262.40948  20635669.290    20635677.3864
  23852281.420    -3686335.627 8  -2860896.89945  23852289.214    23852300.2624
  21411754.893   -17902911.661 8 -13937914.76147  21411756.357    21411764.3804
  21272724.919   -16527585.875 9 -12868234.13847  21272731.482    21272739.3774
 00  4 26  2 51 30.0000000  0  7 17 21 15 23 05 29 09
  22988003.077    -9857944.225 8  -7665987.17746  22988004.987    22988017.8694
  21417025.345   -18853904.896 9 -14683182.08347  21417025.730    21417034.2664
  22623132.374    -9199280.909 8  -7151637.73646  22623131.747    22623141.4944
  20636609.651   -22231440.144 9 -17312404.74048  20636611.379    20636619.2924
  23838026.217    -3761281.496 8  -2919296.11845  23838026.742    23838038.9494
  21403252.452   -17947576.033 8 -13972718.13047  21403257.019    21403265.3734
  21283658.182   -16470146.004 9 -12823475.81947  21283661.248    21283669.8384
 00  4 26  2 52  0.0000000  0  7 17 21 15 23 05 29 09
  23009894.871    -9742896.082 8  -7576339.43646  23009898.522    23009910.6314
  21404260.739   -18920971.083 9 -14735441.38447  21404263.172    21404271.4984
  22608741.865    -9274888.463 8  -7210552.62346  22608744.898    22608752.6704
  20637617.300   -22226147.773 9 -17308280.81948  20637618.372    20637626.3544
  23823804.733    -3836037.843 8  -2977547.62445  23823800.186    23823813.1124
  21394802.576   -17991996.698 8 -14007331.56947  21394803.768    21394811.9814
  21294683.992   -16412209.094 9 -12778330.18947  21294686.626    21294695.1794
 00  4 26  2 52 30.0000000  0  7 17 21 15 23 05 29 09
  23031830.143    -9627653.675 8  -7486540.31746  23031828.779    23031840.5844
  21391534.475   -18987854.873 9 -14787558.55747  21391536.024    21391543.9004
  22594444.342    -9350036.561 8  -7269109.46346  22594444.675    22594452.9014
  20638688.259   -22220515.314 9 -17303891.88848  20638690.278    20638698.1894
  23809609.019    -3910590.092 8  -3035640.11745  23809613.754    23809626.4924
  21386394.451   -18036177.045 8 -14041757.76447  21386397.345    21386404.8894
  21305809.124   -16353751.607 9 -12732778.90947  21305811.346    21305819.1644
 00  4 26  2 53  0.0000000  0  7 17 21 15 23 05 29 09
  23053799.121    -9512209.552 8  -7396583.99646  23053796.603    23053809.3424
  21378846.242   -19054538.387 9 -14839519.65847  21378846.608    21378854.1904
  22580231.525    -9424722.351 8  -7327306.06546  22580232.016    22580242.1864
  20639827.156   -22214532.084 9 -17299229.63148  20639829.214    20639836.7144
  23795465.414    -3984936.180 8  -3093571.94845  23795466.123    23795479.4424
  21378032.587   -18080120.932 9 -14075999.72447  21378035.141    21378042.9664
  21317036.116   -16294753.240 9 -12686806.17547  21317037.710    21317046.3804
 00  4 26  2 53 30.0000000  0  7 17 21 15 23 05 29 09
  23075800.720    -9396550.365 8  -7306460.13846  23075805.728    23075818.1744
  21366195.555   -19121005.113 9 -14891311.85447  21366197.759    21366206.2154
  22566103.828    -9498943.039 8  -7385140.24646  22566107.878    22566118.1654
  20641031.768   -22208199.002 9 -17294294.76248  20641034.297    20641041.9324
  23781356.907    -4059074.490 8  -3151341.89645  23781357.620    23781370.0724
  21369712.364   -18123848.694 9 -14110073.25547  21369714.086    21369721.5234
  21328362.712   -16235222.318 9 -12640418.46647  21328366.607    21328374.7684
 00  4 26  2 54  0.0000000  0  7 17 21 15 23 05 29 09
  23097850.493    -9280681.580 8  -7216172.93846  23097856.118    23097867.9584
  21353590.403   -19187245.556 9 -14942927.71947  21353593.068    21353600.9624
  22552071.681    -9572696.037 8  -7442610.03846  22552073.486    22552084.4964
  20642303.404   -22201517.269 9 -17289088.21648  20642305.735    20642313.6584
  23767289.211    -4133004.570 8  -3208949.57045  23767289.303    23767300.1394
  21361429.958   -18167368.957 9 -14143985.11347  21361432.494    21361439.8254
  21339795.087   -16175157.413 9 -12593614.65447  21339796.134    21339804.2644
 00  4 26  2 54 30.0000000  0  7 17 21 15 23 05 29 09
  23119937.526    -9164612.351 8  -7125729.55046  23119942.816    23119954.9564
  21341029.544   -19253246.454 9 -14994356.95947  21341033.310    21341041.1394
  22538125.505    -9645978.624 8  -7499713.22646  22538127.298    22538139.2144
  20643640.641   -22194495.352 9 -17283616.58748  20643641.792    20643650.1234
  23753255.319    -4206731.181 8  -3266398.72045  23753259.091    23753271.5464
  21353187.448   -18210683.119 9 -14177736.37947  21353189.619    21353197.2684
  21351324.970   -16114561.706 9 -12546397.25047  21351327.167    21351335.1074
 00  4 26  2 55  0.0000000  0  7 17 21 15 23 05 29 09
  23142073.767    -9048343.327 8  -7035130.50346  23142068.483    23142080.0484
  21328515.841   -19319013.843 9 -15045604.28147  21328518.443    21328526.2524
  22524271.433    -9718788.784 8  -7556448.31846  22524273.833    22524283.2224
  20645039.481   -22187139.549 9 -17277884.79548  20645041.626    20645049.7394
  23739267.301    -4280255.816 8  -3323690.48145  23739268.193    23739280.5414
  21344982.395   -18253790.816 8 -14211326.74547  21344985.783    21344994.0094
  21362952.489   -16053452.436 9 -12498779.64847  21362955.862    21362963.7714
 00  4 26  2 55 30.0000000  0  7 17 21 15 23 05 29 09
  23164226.926    -8931884.491 8  -6944383.52846  23164230.030    23164240.5704
  21316043.321   -19384552.940 9 -15096673.66947  21316046.147    21316054.3044
  22510503.929    -9791124.126 8  -7612813.45746  22510506.475    22510518.4424
  20646500.478   -22179462.826 9 -17271902.93248  20646502.491    20646510.6154
  23725317.684    -4353573.559 8  -3380821.04345  23725316.330    23725328.5954
  21336824.057   -18296681.100 9 -14244747.71147  21336824.766    21336832.0914
  21374674.277   -15991852.272 9 -12450779.53447  21374677.789    21374685.6794
 00  4 26  2 56  0.0000000  0  7 17 21 15 23 05 29 09
  23186417.437    -8815254.615 8  -6853503.24746  23186424.127    23186435.1124
  21303614.546   -19449876.633 9 -15147575.25947  21303615.454    21303624.1254
  22496827.850    -9862981.793 8  -7668806.30046  22496833.166    22496843.8764
  20648022.516   -22171463.459 9 -17265669.64648  20648024.663    20648032.3884
  23711399.372    -4426689.987 8  -3437794.73246  23711402.959    23711415.9774
  21328708.304   -18339328.020 9 -14277979.04447  21328709.393    21328716.9244
  21386492.584   -15929758.000 8 -12402394.39747  21386493.945    21386502.3904
 00  4 26  2 56 30.0000000  0  7 17 21 15 23 05 29 09
  23208650.507    -8698458.011 8  -6762493.06945  23208649.183    23208661.0894
  21291222.229   -19514993.513 9 -15198315.72047  21291224.459    21291232.9514
  22483251.333    -9934359.096 8  -7724424.93746  22483251.135    22483260.5874
  20649609.407   -22163132.462 9 -17259177.96248  20649610.071    20649617.6404
  23697526.578    -4499598.816 8  -3494606.66345  23697527.410    23697539.9594
  21320640.824   -18381723.648 9 -14311014.56447  21320642.106    21320649.4674
  21398401.666   -15867174.525 9 -12353628.08047  21398403.608    21398411.5454
 00  4 26  2 57  0.0000000  0  7 17 21 15 23 05 29 09
  23230902.891    -8581496.402 8  -6671354.31145  23230907.012    23230917.7744
  21278870.863   -19579909.870 9 -15248899.91147  21278871.595    21278879.4734
  22469756.506   -10005253.589 8  -7779667.29046  22469760.002    22469769.8954
  20651262.002   -22154445.734 9 -17252409.10048  20651262.877    20651270.7874
  23683693.985    -4572301.362 8  -3551257.83345  23683692.463    23683705.0474
  21312621.500   -18423860.018 9 -14343848.05347  21312623.607    21312630.8714
  21410401.878   -15804110.517 9 -12304487.30747  21410404.326    21410412.6624
 00  4 26  2 57 30.0000000  0  7 17 21 15 23 05 29 09
  23253199.911    -8464367.002 8  -6580084.81545  23253195.801    23253208.1144
  21266554.791   -19644632.402 9 -15299333.06847  21266555.151    21266563.4024
  22456357.642   -10075663.046 8  -7834531.73146  22456360.600    22456370.6034
  20652986.071   -22145387.072 9 -17245350.41648  20652986.765    20652994.5894
  23669900.684    -4644786.593 8  -3607739.67745  23669900.285    23669911.4064
  21304650.675   -18465741.338 9 -14376482.80247  21304652.964    21304661.4704
  21422495.755   -15740566.128 9 -12254972.21547  21422496.320    21422504.6574
 00  4 26  2 58  0.0000000  0  7 17 21 15 23 05 29 09
  23275512.241    -8347066.663 8  -6488682.10345  23275517.414    23275529.7584
  21254272.510   -19709160.071 9 -15349614.38747  21254275.916    21254283.6184
  22443053.956   -10145584.853 8  -7889016.18446  22443055.011    22443064.7784
  20654781.627   -22135944.420 9 -17237992.51648  20654783.905    20654791.6284
  23656147.453    -4717047.442 8  -3664046.69745  23656148.910    23656161.0934
  21296728.564   -18507380.997 9 -14408929.24447  21296729.492    21296737.3664
  21434679.494   -15676531.969 8 -12205075.48947  21434681.478    21434689.8564
 00  4 26  2 58 30.0000000  0  7 17 21 15 23 05 29 09
  23297867.802    -8229585.546 8  -6397138.54445  23297873.719    23297885.7874
  21242035.540   -19773475.247 9 -15399730.07347  21242037.551    21242045.0044
  22429844.171   -10215016.498 8  -7943118.69546  22429843.148    22429852.8474
  20656650.984   -22126114.668 9 -17230332.97948  20656654.361    20656662.2134
  23642431.622    -4789067.412 8  -3720165.99645  23642442.925    23642456.4474
  21288843.413   -18548799.575 9 -14441203.42647  21288847.480    21288855.2204
  21446955.367   -15612015.495 8 -12154802.93047  21446958.233    21446966.9794
 00  4 26  2 59  0.0000000  0  7 17 21 15 23 05 29 09
  23320262.365    -8111909.265 8  -6305442.87946  23320267.494    23320279.5174
  21229838.084   -19837580.909 9 -15449682.48547  21229838.755    21229846.3944
  22416720.322   -10283955.576 8  -7996837.39346  22416723.323    22416732.5914
  20658594.189   -22115916.625 9 -17222386.46348  20658594.897    20658602.5514
  23628788.100    -4860839.219 8  -3776091.91945  23628784.635    23628798.4634
  21281005.259   -18589999.622 9 -14473307.30647  21281007.804    21281015.2184
  21459323.665   -15547020.258 8 -12104157.30147  21459326.930    21459335.0784
 00  4 26  2 59 30.0000000  0  7 17 21 15 23 05 29 09
  23342699.094    -7994035.398 8  -6213593.28846  23342697.867    23342709.8584
  21217679.052   -19901471.864 9 -15499467.63947  21217680.835    21217688.7764
  22403698.646   -10352399.420 8  -8050170.20446  22403700.415    22403709.2464
  20660599.486   -22105363.295 9 -17214163.09648  20660603.076    20660611.0664
  23615177.812    -4932345.982 8  -3831811.32545  23615179.436    23615189.9574
  21273205.179   -18630987.659 9 -14505245.99547  21273208.345    21273215.6304
  21471780.609   -15481544.598 8 -12053137.32747  21471786.151    21471794.4084
 00  4 26  3  0  0.0000000  0  7 17 21 15 23 05 29 09
  23365161.166    -7875976.603 8  -6121599.59945  23365163.692    23365175.3544
  21205564.352   -19965129.716 9 -15549071.13847  21205566.593    21205574.5404
  22390768.101   -10420345.905 8  -8103115.42346  22390769.562    22390779.4364
  20662674.787   -22094465.891 9 -17205671.61148  20662676.694    20662684.5574
  23601620.702    -5003594.043 8  -3887329.16646  23601621.149    23601631.9444
  21265448.502   -18671757.652 9 -14537014.79947  21265450.354    21265457.4534
  21484333.685   -15415600.352 9 -12001752.20747  21484335.230    21484343.3214
 00  4 26  3  0 30.0000000  0  7 17 21 15 23 05 29 09
  23387668.578    -7757733.185 8  -6029462.05245  23387665.136    23387676.6044
  21193496.042   -20028549.946 9 -15598489.47747  21193498.044    21193505.9324
  22377930.494   -10487792.163 8  -8155670.88446  22377935.721    22377944.2374
  20664815.199   -22083227.095 9 -17196914.11348  20664815.526    20664823.1404
  23588108.936    -5074587.214 8  -3942648.38546  23588110.210    23588122.9644
  21257730.648   -18712313.387 9 -14568616.62047  21257732.725    21257739.8944
  21496967.909   -15349197.633 9 -11950009.85847  21496971.219    21496979.4314
 00  4 26  3  1  0.0000000  0  7 17 21 15 23 05 29 09
  23410188.412    -7639316.810 8  -5937189.73345  23410199.399    23410211.0464
  21181471.003   -20091740.135 9 -15647728.55747  21181473.175    21181480.9334
  22365192.577   -10554736.183 8  -8207834.98646  22365194.636    22365206.8424
  20667017.746   -22071643.266 9 -17187887.77948  20667019.902    20667027.6974
  23574648.991    -5145333.120 8  -3997774.89945  23574648.179    23574659.7274
  21250052.662   -18752652.560 9 -14600049.68947  21250055.618    21250063.1264
  21509693.272   -15282338.605 8 -11897911.93147  21509694.529    21509702.4604
 00  4 26  3  1 30.0000000  0  7 17 21 15 23 05 29 09
  23432760.668    -7520750.120 8  -5844800.24545  23432761.698    23432772.4784
  21169493.413   -20154681.547 9 -15696773.78947  21169495.213    21169503.8654
  22352549.041   -10621175.330 8  -8259605.65846  22352553.674    22352563.2294
  20669287.741   -22059709.273 9 -17178588.58848  20669290.823    20669298.7384
  23561228.906    -5215841.195 8  -4052716.13245  23561230.976    23561241.9644
  21242417.878   -18792775.119 9 -14631313.96247  21242420.982    21242428.3024
  21522502.698   -15215025.727 8 -11845460.35147  21522503.526    21522511.4914
 00  4 26  3  2  0.0000000  0  7 17 21 15 23 05 29 09
  23455351.104    -7402042.399 8  -5752300.89445  23455350.597    23455362.2554
  21157562.541   -20217371.738 9 -15745623.25347  21157565.846    21157574.3464
  22340003.039   -10687107.482 8  -8310981.32246  22340006.366    22340015.1024
  20671627.554   -22047424.907 9 -17169016.36948  20671628.537    20671636.6564
  23547859.573    -5286120.854 8  -4107479.37346  23547856.827    23547869.2814
  21234824.082   -18832684.305 9 -14662411.98747  21234826.584    21234833.8894
  21535399.117   -15147249.695 8 -11792647.87447  21535400.509    21535409.0464
 00  4 26  3  2 30.0000000  0  7 17 21 15 23 05 29 09
  23477960.650    -7283193.416 8  -5659691.47945  23477967.591    23477978.7774
  21145682.957   -20279817.709 9 -15794282.43147  21145682.807    21145691.1844
  22327554.794   -10752530.260 8  -8361960.01946  22327557.331    22327566.0054
  20674034.015   -22034782.409 9 -17159165.07448  20674034.629    20674042.2344
  23534527.347    -5356162.246 8  -4162056.93446  23534528.651    23534539.4264
  21227268.762   -18872381.251 9 -14693344.63447  21227272.152    21227279.5634
  21548391.272   -15078991.639 9 -11739459.78347  21548389.871    21548398.5184
 00  4 26  3  3  0.0000000  0  7 17 21 15 23 05 29 09
  23500603.356    -7164216.474 8  -5566982.37445  23500607.928    23500620.7314
  21133846.175   -20342006.623 9 -15842741.26947  21133848.848    21133857.1304
  22315203.379   -10817441.386 8  -8412540.02846  22315204.706    22315213.5694
  20676505.254   -22021781.580 9 -17149034.57248  20676508.238    20676516.0484
  23521242.521    -5425957.205 8  -4216442.48546  23521246.122    23521258.5074
  21219758.501   -18911849.593 9 -14724099.13047  21219761.542    21219769.3034
  21561466.191   -15010250.148 8 -11685894.99247  21561471.008    21561479.6584
 00  4 26  3  3 30.0000000  0  7 17 21 15 23 05 29 09
  23523267.233    -7045121.286 8  -5474181.13245  23523271.580    23523283.8264
  21122062.160   -20403930.898 9 -15890993.92447  21122065.023    21122072.9984
  22302946.391   -10881838.379 8  -8462719.39446  22302949.739    22302958.8494
  20679047.904   -22008428.503 9 -17138629.58948  20679048.923    20679056.9284
  23508010.594    -5495499.343 8  -4270631.00446  23508012.440    23508025.6154
  21212291.612   -18951086.597 9 -14754673.37047  21212294.633    21212302.4514
  21574644.173   -14941019.660 8 -11631949.17247  21574645.142    21574653.0264
 00  4 26  3  4  0.0000000  0  7 17 21 15 23 05 29 09
  23545953.170    -6925907.064 7  -5381287.13545  23545956.760    23545969.7304
  21110324.806   -20465608.907 9 -15939054.68047  21110327.906    21110335.8904
  22290785.772   -10945718.725 8  -8512496.20646  22290793.324    22290803.0314
  20681657.758   -21994709.993 9 -17127939.85348  20681659.733    20681667.6414
  23494827.397    -5564776.128 8  -4324612.79846  23494830.415    23494841.7124
  21204868.996   -18990096.052 9 -14785070.29847  21204871.662    21204879.4774
  21587909.606   -14871304.707 8 -11577625.84947  21587911.237    21587920.1004
 00  4 26  3  4 30.0000000  0  7 17 21 15 23 05 29 09
  23568661.712    -6806566.051 7  -5288294.34245  23568666.817    23568678.8954
  21098636.330   -20527040.262 9 -15986923.22647  21098638.293    21098646.1474
  22278733.128   -11009080.309 8  -8561868.76346  22278736.010    22278745.5404
  20684335.308   -21980633.400 9 -17116971.09248  20684337.968    20684346.2244
  23481699.842    -5633781.450 8  -4378383.01946  23481698.969    23481709.8124
  21197489.607   -19028875.424 9 -14815287.92447  21197492.252    21197499.6214
  21601264.248   -14801121.731 8 -11522937.83047  21601266.789    21601275.0394
 00  4 26  3  5  0.0000000  0  7 17 21 15 23 05 29 09
  23591401.058    -6687102.774 8  -5195206.30845  23591400.255    23591413.8094
  21086992.903   -20588220.876 9 -16034596.43347  21086995.936    21087003.7034
  22266774.299   -11071920.901 8  -8610835.38446  22266778.573    22266786.5074
  20687079.712   -21966213.657 9 -17105734.94648  20687082.289    20687090.5424
  23468611.102    -5702519.428 8  -4431944.94646  23468618.465    23468629.1784
  21190154.283   -19067426.569 9 -14845327.73447  21190156.244    21190163.2144
  21614704.409   -14730487.816 8 -11467898.42547  21614708.122    21614716.6954
 00  4 26  3  5 30.0000000  0  7 17 21 15 23 05 29 09
  23614151.644    -6567518.228 7  -5102023.74345  23614155.779    23614169.7614
  21075393.180   -20649172.771 9 -16082091.40947  21075396.664    21075405.0354
  22254916.522   -11134238.335 8  -8659394.32646  22254918.620    22254928.5694
  20689890.515   -21951451.530 9 -17094232.01048  20689891.800    20689899.5564
  23455582.092    -5770989.676 8  -4485298.24845  23455588.063    23455598.9754
  21182857.362   -19105765.119 9 -14875201.91047  21182860.214    21182867.4374
  21628231.257   -14659410.590 9 -11412513.58647  21628234.061    21628242.1214
 00  4 26  3  6  0.0000000  0  7 17 21 15 23 05 29 09
  23636943.029    -6447795.736 8  -5008733.71445  23636939.228    23636951.7254
  21063840.848   -20709891.315 9 -16129404.55947  21063842.477    21063850.8354
  22243158.936   -11196030.396 8  -8707543.92146  22243161.740    22243170.7334
  20692765.665   -21936333.231 9 -17082451.52848  20692768.557    20692776.2554
  23442606.080    -5839187.372 8  -4538439.15045  23442609.371    23442622.7294
  21175601.662   -19143894.590 9 -14904913.17047  21175604.738    21175612.0244
  21641837.356   -14587902.392 9 -11356792.91247  21641841.493    21641849.8764
 00  4 26  3  6 30.0000000  0  7 17 21 15 23 05 29 09
  23659745.811    -6327941.856 8  -4915341.28445  23659746.255    23659759.5514
  21052333.075   -20770356.461 9 -16176520.27747  21052336.715    21052344.6084
  22231500.423   -11257294.852 8  -8755282.41946  22231502.554    22231511.8144
  20695710.577   -21920865.858 9 -17070399.05648  20695711.778    20695719.3464
  23429685.399    -5907111.840 8  -4591367.16246  23429684.889    23429697.6654
  21168386.404   -19181813.910 9 -14934460.68647  21168389.238    21168396.3134
  21655530.477   -14515964.486 8 -11300737.42047  21655530.511    21655538.9314
 00  4 26  3  7  0.0000000  0  7 17 21 15 23 05 29 09
  23682570.700    -6207983.907 8  -4821867.76745  23682574.217    23682586.6374
  21040878.733   -20830564.172 9 -16223435.36447  21040879.844    21040887.4584
  22219947.619   -11318029.155 8  -8802607.78346  22219946.572    22219954.5854
  20698721.905   -21905033.569 9 -17058062.22948  20698724.831    20698732.4244
  23416814.956    -5974752.872 8  -4644074.31346  23416814.161    23416824.3384
  21161210.946   -19219521.861 9 -14963843.49247  21161213.583    21161220.5484
  21669298.760   -14443607.621 8 -11244355.47647  21669299.836    21669307.4994
 00  4 26  3  7 30.0000000  0  7 17 21 15 23 05 29 09
  23705419.443    -6087918.829 8  -4728310.77245  23705421.561    23705435.6004
  21029468.644   -20890511.440 9 -16270147.48547  21029471.723    21029479.8054
  22208484.758   -11378231.522 8  -8849518.64946  22208487.876    22208499.2514
  20701811.309   -21888808.162 9 -17045419.07048  20701812.432    20701820.0974
  23403999.014    -6042100.033 8  -4696552.48246  23403997.681    23404009.5104
  21154076.711   -19257011.640 9 -14993056.27347  21154079.115    21154086.2634
  21683147.745   -14370832.491 8 -11187647.58647  21683148.248    21683156.1874
 00  4 26  3  8  0.0000000  0  7 17 21 15 23 05 29 09
  23728285.773    -5967750.737 8  -4634673.51645  23728289.694    23728302.3634
  21018115.644   -20950174.999 9 -16316638.53947  21018118.191    21018126.0624
  22197132.714   -11437899.539 8  -8896013.09446  22197135.153    22197144.6594
  20704971.949   -21872194.576 9 -17032473.42848  20704973.940    20704981.7344
  23391223.639    -6109147.361 8  -4748796.99745  23391238.107    23391250.0064
  21146984.842   -19294273.512 9 -15022091.47347  21146987.863    21146995.6304
  21697074.244   -14297637.463 8 -11130612.51447  21697076.949    21697085.2824
 00  4 26  3  8 30.0000000  0  7 17 21 15 23 05 29 09
  23751160.425    -5847504.497 8  -4540975.36045  23751171.992    23751183.7554
  21006818.120   -21009557.916 9 -16362910.93047  21006818.162    21006826.0334
  22185876.628   -11497031.133 8  -8942089.59346  22185881.095    22185892.5424
  20708204.234   -21855207.159 9 -17019236.49248  20708206.618    20708214.3714
  23378534.335    -6175896.781 8  -4800809.42746  23378536.256    23378549.4534
  21139938.567   -19331300.540 9 -15050943.69747  21139941.788    21139949.6584
  21711080.545   -14224020.368 8 -11073248.55547  21711085.643    21711093.5954
 00  4 26  3  9  0.0000000  0  7 17 21 15 23 05 29 09
  23774067.036    -5727167.265 8  -4447206.29045  23774071.627    23774083.8694
  20995566.198   -21068669.644 9 -16408971.99247  20995569.230    20995577.5114
  22174729.997   -11555624.114 8  -8987746.37446  22174731.120    22174741.9214
  20711510.048   -21837838.150 9 -17005702.21848  20711511.675    20711519.2484
  23365892.076    -6242343.152 8  -4852585.66546  23365891.716    23365903.0944
  21132940.996   -19368080.251 9 -15079603.16747  21132943.102    21132951.2304
  21725173.996   -14149979.854 8 -11015554.65447  21725175.102    21725183.1914
 00  4 26  3  9 30.0000000  0  7 17 21 15 23 05 29 09
  23796992.734    -5606716.974 8  -4353349.16346  23796992.067    23797005.5274
  20984370.067   -21127506.920 9 -16454819.20347  20984373.179    20984380.9354
  22163683.062   -11613676.366 8  -9032981.82946  22163684.438    22163694.0074
  20714885.166   -21820093.725 9 -16991875.41448  20714888.304    20714896.0964
  23353304.421    -6308498.866 8  -4904135.43146  23353304.215    23353315.2984
  21125987.420   -19404618.793 9 -15108074.74147  21125990.106    21125997.7214
  21739344.095   -14075498.729 8 -10957517.41947  21739348.363    21739356.1564
 00  4 26  3 10  0.0000000  0  7 17 21 15 23 05 29 09
  23819931.402    -5486163.935 8  -4259411.96546  23819933.491    23819946.6074
  20973228.205   -21186062.330 9 -16500446.76547  20973230.647    20973238.2824
  22152737.358   -11671185.762 8  -9077794.30346  22152740.833    22152750.4424
  20718331.461   -21801991.328 9 -16977769.67048  20718333.191    20718341.0204
  23340764.942    -6374362.751 8  -4955457.81345  23340768.845    23340780.7324
  21119079.676   -19440924.004 9 -15136364.50047  21119081.699    21119089.2734
  21753602.138   -14000574.168 8 -10899134.65947  21753606.365    21753614.5524
 00  4 26  3 10 30.0000000  0  7 17 21 15 23 05 29 09
  23842894.962    -5365501.980 8  -4165389.88346  23842894.923    23842907.8504
  20962139.842   -21244344.749 9 -16545861.62547  20962139.797    20962147.2774
  22141899.014   -11728150.453 8  -9122182.32946  22141901.022    22141910.6944
  20721848.705   -21783517.152 9 -16963374.21448  20721848.658    20721856.5874
  23328292.565    -6439933.522 8  -5006551.80746  23328291.463    23328303.5634
  21112216.992   -19476988.831 9 -15164466.90547  21112218.898    21112225.9894
  21767948.543   -13925207.338 8 -10840407.28447  21767947.764    21767956.4184
 00  4 26  3 11  0.0000000  0  7 17 21 15 23 05 29 09
  23865881.076    -5244718.311 8  -4071272.99846  23865878.452    23865891.9444
  20951097.261   -21302356.102 9 -16591065.25747  20951100.583    20951107.9144
  22131163.573   -11784568.117 8  -9166144.07846  22131165.827    22131174.6774
  20725436.440   -21764657.585 9 -16948678.47248  20725437.294    20725445.5424
  23315873.503    -6505207.178 8  -5057414.25946  23315870.784    23315881.7924
  21105398.268   -19512820.777 9 -15192387.83547  21105400.555    21105406.8574
  21782370.101   -13849398.164 8 -10781335.20947  21782374.216    21782382.6474
 00  4 26  3 11 30.0000000  0  7 17 21 15 23 05 29 09
  23888873.841    -5123832.176 8  -3977076.23745  23888882.184    23888895.6564
  20940111.244   -21360088.021 9 -16636051.15247  20940114.403    20940121.6484
  22120533.666   -11840436.571 8  -9209677.81946  22120533.472    22120543.4564
  20729094.175   -21745419.276 9 -16933687.60848  20729098.168    20729106.3444
  23303503.305    -6570188.224 8  -5108048.69946  23303504.804    23303516.1044
  21098622.008   -19548440.067 9 -15220143.14647  21098622.166    21098628.9494
  21796880.116   -13773156.396 8 -10721926.05847  21796882.275    21796891.1314
 00  4 26  3 12  0.0000000  0  7 17 21 15 23 05 29 09
  23911900.042    -5002862.267 8  -3882814.20845  23911902.879    23911915.6194
  20929178.043   -21417552.009 9 -16680828.26047  20929179.539    20929186.9864
  22110004.432   -11895753.732 8  -9252782.03046  22110006.903    22110016.4704
  20732827.882   -21725800.358 9 -16918400.16348  20732831.517    20732839.8364
  23291194.319    -6634854.766 8  -5158438.09246  23291197.879    23291208.8734
  21091882.079   -19583844.830 9 -15247731.25147  21091884.448    21091891.6064
  21811468.974   -13696497.085 8 -10662191.54547  21811470.273    21811478.7974
 00  4 26  3 12 30.0000000  0  7 17 21 15 23 05 29 09
  23934940.078    -4881804.295 8  -3788483.54845  23934939.889    23934953.2464
  20918291.732   -21474754.576 9 -16725401.67047  20918294.154    20918301.6744
  22099586.504   -11950517.817 8  -9295455.28346  22099586.057    22099594.9594
  20736636.439   -21705799.186 9 -16902814.83648  20736637.908    20736645.9164
  23278945.484    -6699205.747 8  -5208581.60046  23278953.241    23278963.7064
  21085183.232   -19619051.628 9 -15275165.11647  21085185.054    21085192.5664
  21826132.523   -13619430.918 8 -10602139.99747  21826135.127    21826143.9534
 00  4 26  3 13  0.0000000  0  7 17 21 15 23 05 29 09
  23957990.590    -4760671.273 8  -3694094.43645  23957990.969    23958004.3674
  20907458.948   -21531686.076 9 -16769763.86447  20907460.648    20907468.1534
  22089268.266   -12004726.787 8  -9337696.01146  22089270.180    22089279.6764
  20740513.351   -21685425.207 9 -16886939.02648  20740514.865    20740523.1534
  23266767.873    -6763245.470 8  -5258482.56346  23266767.451    23266778.3604
  21078515.799   -19654080.275 9 -15302460.08747  21078518.946    21078526.9384
  21840871.787   -13541964.945 8 -10541776.93647  21840876.631    21840884.7254
 00  4 26  3 13 30.0000000  0  7 17 21 15 23 05 29 09
  23981051.270    -4639465.741 8  -3599648.80345  23981055.872    23981069.1764
  20896679.550   -21588334.607 9 -16813905.56247  20896680.704    20896688.3774
  22079056.198   -12058378.889 8  -9379502.78946  22079059.831    22079070.2414
  20744457.216   -21664688.435 9 -16870780.51748  20744460.905    20744469.2414
  23254640.417    -6826969.890 8  -5308137.83846  23254640.366    23254650.7064
  21071886.558   -19688927.054 9 -15329613.40947  21071888.361    21071895.8994
  21855691.157   -13464107.545 8 -10481108.84047  21855692.952    21855700.3664
 00  4 26  3 14  0.0000000  0  7 17 21 15 23 05 29 09
  24004138.389    -4518179.702 8  -3505140.49445  24004136.219    24004149.2244
  20885951.338   -21644701.607 9 -16857827.88447  20885954.029    20885962.0114
  22068954.426   -12111471.793 8  -9420873.85446  22068957.221    22068967.3424
  20748474.157   -21643586.400 9 -16854337.39148  20748476.054    20748484.7764
  23242574.038    -6890372.713 8  -5357542.51746  23242575.444    23242586.0034
  21065291.898   -19723572.677 9 -15356609.96547  21065295.791    21065302.8584
  21870580.653   -13385851.228 8 -10420129.92447  21870584.633    21870592.3444
 00  4 26  3 14 30.0000000  0  7 17 21 15 23 05 29 09
  24027226.574    -4396804.084 7  -3410562.36545  24027232.433    24027246.5084
  20875280.249   -21700782.174 9 -16901527.02147  20875282.187    20875290.0894
  22058959.766   -12164003.675 8  -9461807.72146  22058960.512    22058970.1334
  20752560.412   -21622117.405 9 -16837608.32847  20752561.775    20752569.8994
  23230563.044    -6953468.846 8  -5406708.19646  23230567.694    23230578.6424
  21058741.312   -19758000.220 9 -15383436.55647  21058743.819    21058751.4164
  21885551.929   -13307194.634 8 -10358839.08847  21885552.809    21885560.6194
 00  4 26  3 15  0.0000000  0  7 17 21 15 23 05 29 09
  24050344.705    -4275339.954 7  -3315915.25845  24050346.549    24050360.7604
  20864663.537   -21756572.167 9 -16944999.74547  20864665.430    20864674.0944
  22049070.931   -12215972.526 8  -9502302.87846  22049072.003    22049080.1964
  20756715.683   -21600271.166 9 -16820585.30648  20756719.136    20756727.2914
  23218619.933    -7016249.196 8  -5455627.82346  23218621.290    23218633.2624
  21052237.677   -19792184.282 9 -15410073.44647  21052239.062    21052246.3274
  21900595.816   -13228130.926 8 -10297231.03747  21900597.724    21900605.3314
 00  4 26  3 15 30.0000000  0  7 17 21 15 23 05 29 09
  24073478.154    -4153781.837 8  -3221194.94545  24073478.921    24073492.4964
  20854102.459   -21812071.207 9 -16988245.74947  20854104.117    20854112.8414
  22039289.375   -12267376.557 8  -9542357.89646  22039290.565    22039298.6894
  20760946.986   -21578039.560 9 -16803261.98348  20760949.849    20760957.6264
  23206737.965    -7078687.209 8  -5504280.71846  23206740.498    23206750.6354
  21045782.658   -19826106.664 9 -15436506.39847  21045784.069    21045790.5544
  21915722.044   -13148652.529 8 -10235299.82947  21915721.994    21915729.7704
 00  4 26  3 16  0.0000000  0  7 17 21 15 23 05 29 09
  24096626.659    -4032141.269 8  -3126410.33545  24096626.879    24096640.4904
  20843596.096   -21867282.076 9 -17031267.20947  20843597.985    20843606.5864
  22029613.278   -12318213.965 8  -9581971.39446  22029615.690    22029625.4044
  20765252.958   -21555425.201 9 -16785640.41648  20765253.262    20765261.2834
  23194923.906    -7140771.016 8  -5552657.59546  23194926.621    23194937.9424
  21039378.176   -19859762.573 9 -15462731.72647  21039379.363    21039386.0724
  21930922.455   -13068762.573 8 -10173047.94847  21930924.608    21930932.7194
 00  4 26  3 16 30.0000000  0  7 17 21 15 23 05 29 09
  24119787.305    -3910419.144 7  -3031562.19045  24119789.227    24119803.5994
  20833147.829   -21922188.574 9 -17074051.48947  20833149.752    20833158.1574
  22020047.142   -12368482.916 8  -9621141.97846  22020049.135    22020058.6204
  20769628.887   -21532426.685 9 -16767719.51248  20769629.649    20769637.6914
  23183182.327    -7202492.343 8  -5600752.00146  23183180.678    23183191.0744
  21033020.638   -19893168.089 9 -15488761.98047  21033022.337    21033028.8414
  21946199.862   -12988474.392 8 -10110485.77147  21946202.786    21946210.9064
 00  4 26  3 17  0.0000000  0  7 17 21 15 23 05 29 09
  24142975.967    -3788630.079 7  -2936661.92845  24142965.572    24142978.9304
  20822763.345   -21976773.280 9 -17116585.01547  20822762.962    20822770.9794
  22010590.831   -12418181.533 8  -9659868.17146  22010592.526    22010600.7734
  20774075.397   -21509043.459 9 -16749498.84847  20774079.019    20774087.1934
  23171504.609    -7263833.541 8  -5648550.21546  23171506.959    23171518.1684
  21026706.512   -19926346.556 9 -15514615.29947  21026708.802    21026715.3364
  21961549.764   -12907793.398 8 -10047617.49247  21961555.381    21961562.8524
 00  4 26  3 17 30.0000000  0  8 17 21 15 23 05 30 29 09
  24166148.311    -3666794.644 7  -2841725.50745  24166150.169    24166162.8234
  20812434.731   -22031032.137 9 -17158864.62847  20812437.694    20812445.7794
  22001245.938   -12467307.935 8  -9698148.49746  22001244.170    22001252.9554
  20778600.000   -21485282.371 9 -16730983.73647  20778600.851    20778608.7264
  23159905.174    -7324798.264 8  -5696055.07646  23159905.820    23159916.1894
  24401653.729      -43286.52917
  21020434.333   -19959311.589 9 -15540302.25747  21020435.605    21020442.1674
  21976984.694   -12826736.909 8  -9984456.61247  21976980.658    21976988.1334
 00  4 26  3 18  0.0000000  0  8 17 21 15 23 05 30 29 09
  24189335.013    -3544926.387 7  -2746763.55345  24189340.365    24189352.6114
  20802170.274   -22084970.657 9 -17200894.63347  20802173.657    20802181.4804
  21992000.030   -12515860.207 8  -9735981.39346  21992004.245    21992014.2374
  20783193.506   -21461139.615 9 -16712171.21247  20783195.067    20783202.8334
  23148371.441    -7385417.036 8  -5743290.36746  23148370.544    23148381.3114
  24383682.322     -137698.994 7    -93835.10955  24383698.710    24383714.0384
  21014199.105   -19992081.595 9 -15565837.32347  21014199.602    21014206.7714
  21992469.838   -12745307.431 8  -9921005.09647  21992475.435    21992483.0494
 00  4 26  3 18 30.0000000  0  8 17 21 15 23 05 30 29 09
  24212528.460    -3423032.379 7  -2651781.51644  24212537.572    24212550.2834
  20791967.670   -22138592.217 9 -17242677.64447  20791969.948    20791977.6764
  21982872.803   -12563836.647 8  -9773365.55846  21982874.742    21982884.3224
  20787864.153   -21436595.312 9 -16693045.80547  20787865.862    20787873.7434
  23136893.044    -7445699.193 8  -5790263.34746  23136899.148    23136910.6384
  24365718.719     -232126.774 7   -167414.93245  24365729.334    24365742.7074
  21007995.826   -20024669.916 9 -15591230.79647  21007998.074    21008005.4484
  22008038.660   -12663503.991 8  -9857262.16447  22008042.509    22008049.7984
 00  4 26  3 19  0.0000000  0  8 17 21 15 23 05 30 29 09
  24235729.285    -3301127.107 7  -2556790.72144  24235735.399    24235747.7584
  20781821.718   -22191916.804 9 -17284229.22947  20781822.311    20781830.6264
  21973854.005   -12611235.514 8  -9810299.65946  21973855.761    21973864.3744
  20792610.794   -21411648.464 9 -16673606.72347  20792613.178    20792621.1874
  23125486.715    -7505644.060 8  -5836973.49846  23125492.120    23125503.3934
  24347754.313     -326565.528 7   -241003.34545  24347759.878    24347771.1964
  21001830.102   -20057066.043 9 -15616474.54547  21001833.304    21001840.7344
  22023682.556   -12581322.522 8  -9793224.69347  22023680.529    22023689.4764
 00  4 26  3 19 30.0000000  0  8 17 21 15 23 05 30 29 09
  24258937.610    -3179206.461 7  -2461787.88644  24258937.075    24258951.8234
  20771725.567   -22244957.633 9 -17325559.70747  20771728.904    20771737.0934
  21964945.482   -12658055.152 8  -9846782.40947  21964946.613    21964954.9554
  20797434.793   -21386305.174 9 -16653858.73347  20797435.907    20797443.9474
  23114145.792    -7565268.090 8  -5883433.66746  23114145.548    23114157.5584
  24329782.094     -421006.443 7   -314593.41045  24329786.624    24329800.1844
  20995706.557   -20089249.016 9 -15641552.20247  20995709.289    20995716.2024
  22039392.676   -12498759.238 8  -9728889.70047  22039392.855    22039400.7674
 00  4 26  3 20  0.0000000  0  8 17 21 15 23 05 30 29 09
  24282142.140    -3057246.024 7  -2366754.14944  24282143.493    24282160.0044
  20761687.893   -22297717.802 9 -17366671.51147  20761689.242    20761696.7274
  21956147.050   -12704293.825 8  -9882812.45046  21956146.850    21956155.6704
  20802329.553   -21360574.207 9 -16633808.65447  20802332.083    20802340.3864
  23102862.530    -7624564.931 8  -5929638.88046  23102862.221    23102872.7704
  24311822.174     -515438.704 7   -388176.77445  24311815.177    24311828.8114
  20989626.269   -20121211.632 9 -15666458.02347  20989626.909    20989634.1044
  22055174.220   -12415807.946 8  -9664252.37047  22055177.298    22055186.0794
 00  4 26  3 20 30.0000000  0  8 17 21 15 23 05 30 29 09
  24305366.510    -2935231.546 7  -2271678.29944  24305362.965    24305379.0824
  20751702.575   -22350184.641 9 -17407554.74447  20751704.798    20751712.6724
  21947455.393   -12749949.851 8  -9918388.54646  21947458.209    21947467.0124
  20807298.111   -21334468.948 9 -16613466.91147  20807299.409    20807307.7594
  23091638.492    -7683507.609 8  -5975568.14946  23091645.356    23091655.4744
  24293837.872     -609850.515 7   -461744.21345  24293851.127    24293863.1484
  20983584.883   -20152946.503 9 -15691186.51047  20983587.807    20983595.0904
  22071029.730   -12332487.735 8  -9599327.55247  22071032.570    22071041.3154
 00  4 26  3 21  0.0000000  0  8 17 21 15 23 05 30 29 09
  24328586.457    -2813152.981 7  -2176552.47144  24328594.686    24328611.6104
  20741777.211   -22402343.607 9 -17448198.07647  20741779.245    20741786.6664
  21938877.287   -12795021.629 8  -9953509.38546  21938881.531    21938889.6094
  20812335.859   -21308002.442 9 -16592843.68447  20812336.079    20812344.1384
  23080495.534    -7742086.306 8  -6021213.78646  23080497.939    23080507.9164
  24275885.397     -704214.694 7   -535274.51745  24275894.331    24275906.7694
  20977590.807   -20184450.859 9 -15715735.36247  20977592.867    20977599.8054
  22086957.900   -12248803.345 8  -9534118.96747  22086957.229    22086965.6154
 00  4 26  3 21 30.0000000  0  9 17 21 15 23 05 30 25 29 09
  24351845.558    -2690996.859 7  -2081366.21945  24351842.463    24351854.9754
  20731915.442   -22454176.444 9 -17488587.29347  20731915.882    20731923.2134
  21930415.966   -12839507.499 8  -9988173.63346  21930416.233    21930424.1384
  20817439.111   -21281181.810 9 -16571944.49747  20817440.163    20817448.0924
  23069421.877    -7800300.452 8  -6066575.35846  23069420.430    23069430.7804
  24257944.268     -798529.418 7   -608766.24545  24257946.300    24257958.5614
  24729367.151    -3841201.76517  -2966801.10955  24729371.702    24729382.7754
  20971637.572   -20215738.510 9 -15740115.37947  20971639.066    20971645.8784
  22102941.940   -12164765.326 8  -9468634.81747  22102949.198    22102957.7524
 00  4 26  3 22  0.0000000  0  9 17 21 15 23 05 30 25 29 09
  24375111.676    -2568773.763 7  -1986127.78144  24375099.876    24375113.4784
  20722115.121   -22505669.588 9 -17528711.81047  20722117.283    20722124.8004
  21922063.581   -12883405.649 8 -10022379.90546  21922063.374    21922071.5144
  20822612.146   -21253989.886 9 -16550756.01747  20822614.445    20822622.7774
  23058411.522    -7858141.217 8  -6111645.97346  23058413.325    23058425.0404
  24240001.037     -892805.684 7   -682228.08345  24240006.145    24240018.3374
  24709530.947    -3945427.025 7  -3048015.45545  24709539.898    24709548.8774
  20965720.950   -20246827.668 9 -15764340.65847  20965723.480    20965729.9024
  22119005.016   -12080383.569 8  -9402882.83447  22119006.607    22119015.4434
 00  4 26  3 22 30.0000000  0  9 17 21 15 23 05 30 25 29 09
  24398358.335    -2446514.959 7  -1890861.52044  24398364.615    24398378.0364
  20712382.793   -22556810.077 9 -17568561.52347  20712385.607    20712392.9384
  21913819.311   -12926714.614 8 -10056127.05247  21913821.659    21913830.1184
  20827862.086   -21226406.030 9 -16529262.12647  20827863.580    20827871.6834
  23047467.987    -7915611.688 8  -6156428.05446  23047477.522    23047488.2194
  24222068.071     -987043.674 7   -755660.01745  24222073.576    24222085.1464
  24689726.737    -4049549.939 7  -3129150.04245  24689723.394    24689734.9954
  20959840.861   -20277721.164 9 -15788413.51647  20959844.301    20959851.2734
  22135124.664   -11995664.902 8  -9336868.31947  22135127.819    22135135.6214
 00  4 26  3 23  0.0000000  0  8 21 15 23 05 30 25 29 09
  20702719.634   -22607594.541 9 -17608133.80147  20702721.302    20702728.6234
  21905690.255   -12969433.054 8 -10089414.09547  21905692.113    21905700.8244
  20833187.430   -21198421.093 9 -16507455.70647  20833188.805    20833196.6834
  23036610.315    -7972721.024 8  -6200928.74346  23036609.307    23036620.5934
  24204142.611    -1081252.678 8   -829069.45145  24204145.393    24204155.5864
  24669940.319    -4153563.402 7  -3210199.32045  24669930.047    24669941.6114
  20954003.584   -20308409.781 9 -15812326.70547  20954004.290    20954011.5874
  22151314.145   -11910601.987 8  -9270585.55347  22151315.580    22151323.8694
 00  4 26  3 23 30.0000000  0  8 21 15 23 05 30 25 29 09
  20693123.143   -22658031.889 9 -17647435.62647  20693123.479    20693131.1074
  21897672.365   -13011559.156 8 -10122239.56447  21897676.124    21897685.1194
  20838591.442   -21170026.124 9 -16485329.78447  20838592.532    20838600.1784
  23025811.062    -8029470.115 8  -6245148.70346  23025810.814    23025820.6714
  24186220.775    -1175454.655 8   -902473.42445  24186218.649    24186229.4064
  24650144.710    -4257464.115 7  -3291160.76645  24650155.968    24650169.3084
  20948204.498   -20338881.876 9 -15836071.18147  20948205.746    20948212.9144
  22167566.508   -11825194.712 8  -9204034.48647  22167568.119    22167576.4474
 00  4 26  3 24  0.0000000  0  8 21 15 23 05 30 25 29 09
  20683586.988   -22708129.209 9 -17686472.48248  20683590.020    20683598.2364
  21889771.682   -13053091.320 8 -10154602.27547  21889772.332    21889781.9244
  20844075.180   -21141208.694 9 -16462874.66947  20844076.353    20844084.1454
  23015077.963    -8085846.925 8  -6289078.58746  23015082.389    23015092.1274
  24168285.472    -1269642.252 8   -975866.16245  24168295.698    24168308.7734
  24630407.824    -4361254.813 7  -3372036.53545  24630406.022    24630418.8444
  20942448.732   -20369126.039 9 -15859638.07847  20942450.365    20942457.4834
  22183882.006   -11739442.804 8  -9137214.84647  22183885.922    22183894.2034
 00  4 26  3 24 30.0000000  0  8 21 15 23 05 30 25 29 09
  20674121.717   -22757886.326 9 -17725244.24048  20674121.608    20674129.7524
  21881981.077   -13094028.034 8 -10186500.91947  21881982.649    21881991.3784
  20849634.451   -21111990.753 9 -16440107.45047  20849636.148    20849644.5484
  23004423.487    -8141837.240 8  -6332707.30546  23004427.645    23004437.7214
  24150375.769    -1363800.801 8  -1049236.24845  24150378.253    24150390.8094
  24610683.551    -4464912.770 7  -3452808.82845  24610680.289    24610691.2374
  20936739.060   -20399131.860 9 -15883019.26247  20936740.956    20936747.2674
  22200269.543   -11653348.472 8  -9070128.38847  22200269.194    22200277.1514
 00  4 26  3 25  0.0000000  0  8 21 15 23 05 30 25 29 09
  20664713.653   -22807316.884 9 -17763761.54548  20664715.641    20664723.1504
  21874301.135   -13134367.971 8 -10217934.59547  21874306.197    21874315.0894
  20855270.940   -21082386.192 9 -16417038.97947  20855269.851    20855278.0124
  22993854.936    -8197431.651 8  -6376027.52746  22993848.432    22993858.4784
  24132463.368    -1457933.577 8  -1122586.24845  24132464.396    24132477.4804
  24590970.705    -4568442.071 7  -3533480.89745  24590980.770    24590992.1034
  20931073.988   -20428896.453 9 -15906212.47147  20931076.703    20931083.4204
  22216717.255   -11566904.677 8  -9002769.62946  22216718.611    22216727.1824
 00  4 26  3 25 30.0000000  0  8 21 15 23 05 30 25 29 09
  20655367.276   -22856424.760 9 -17802027.41348  20655370.608    20655378.4194
  21866743.147   -13174109.591 8 -10248902.03847  21866743.161    21866752.0334
  20860974.936   -21052396.782 9 -16393670.63347  20860976.736    20860985.0234
  22983344.194    -8252629.546 8  -6419038.75846  22983344.626    22983354.9954
  24114553.966    -1552024.556 8  -1195903.69145  24114559.358    24114571.1814
  24571308.330    -4671859.535 7  -3614065.80645  24571300.803    24571313.2364
  20925453.801   -20458434.939 9 -15929229.45747  20925455.472    20925462.6454
  22233234.825   -11480110.694 8  -8935138.00046  22233235.526    22233243.2404
 00  4 26  3 26  0.0000000  0  8 21 15 23 05 30 25 29 09
  20646088.662   -22905197.008 9 -17840031.74448  20646089.487    20646097.2754
  21859295.176   -13213251.600 8 -10279402.33047  21859294.387    21859302.9334
  20866754.429   -21022026.983 9 -16370005.88447  20866756.132    20866764.2764
  22972909.508    -8307437.974 8  -6461746.50546  22972915.040    22972925.3394
  24096665.926    -1646053.471 8  -1269172.77545  24096666.670    24096678.7584
  24551647.724    -4775177.747 8  -3694573.33945  24551640.692    24551652.1864
  20919871.019   -20487770.023 9 -15952087.99047  20919872.958    20919880.1814
  22249816.448   -11392966.140 8  -8867233.16946  22249818.648    22249826.0554
 00  4 26  3 26 30.0000000  0  8 21 15 23 05 30 25 29 09
  20636870.879   -22953632.442 9 -17877773.63048  20636872.056    20636880.3594
  21851959.488   -13251792.509 8 -10309434.25046  21851960.798    21851969.1474
  20872603.834   -20991284.374 9 -16346050.62247  20872605.947    20872614.1754
  22962553.625    -8361865.099 8  -6504157.14046  22962557.042    22962568.8104
  24078785.083    -1740022.596 8  -1342395.25445  24078784.436    24078795.7354
  24531999.136    -4878400.515 8  -3775006.51645  24531998.696    24532008.9864
  20914327.722   -20516905.547 9 -15974791.00547  20914328.841    20914335.6944
  22266469.373   -11305469.625 8  -8799054.10246  22266468.538    22266476.4254
 00  4 26  3 27  0.0000000  0  8 21 15 23 05 30 25 29 09
  20627717.636   -23001731.323 9 -17915253.25348  20627719.534    20627727.1644
  21844738.434   -13289730.898 8 -10338996.59047  21844741.228    21844749.9954
  20878528.862   -20960151.354 9 -16321791.16047  20878530.358    20878538.7224
  22952274.493    -8415913.991 8  -6546273.06146  22952272.469    22952283.1404
  24060908.952    -1833931.331 8  -1415570.68745  24060913.592    24060926.6384
  24512371.907    -4981544.168 8  -3855378.08145  24512370.366    24512381.1274
  20908818.548   -20545854.842 9 -15997348.86447  20908819.979    20908827.1104
  22283179.149   -11217621.794 8  -8730601.29346  22283185.542    22283193.0154
 00  4 26  3 27 30.0000000  0  8 21 15 23 05 30 25 29 09
  20618630.610   -23049477.019 9 -17952457.66648  20618633.740    20618641.6154
  21837632.370   -13327065.385 8 -10368088.35047  21837635.876    21837646.0404
  20884527.304   -20928619.119 9 -16297220.60647  20884530.350    20884538.9264
  22942062.665    -8469579.666 8  -6588090.38946  22942059.670    22942070.3314
  24043048.228    -1927764.181 7  -1488687.03445  24043058.112    24043070.7384
  24492756.289    -5084596.690 8  -3935678.60445  24492760.111    24492770.5914
  20903341.067   -20574626.047 9 -16019767.96147  20903345.034    20903352.0714
  22299965.201   -11129442.626 8  -8661890.28546  22299965.537    22299973.8414
 00  4 26  3 28  0.0000000  0  8 21 15 23 05 30 25 29 09
  20609613.947   -23096869.488 9 -17989386.83648  20609615.247    20609623.4084
  21830644.934   -13363794.531 8 -10396708.40047  21830646.293    21830656.6074
  20890603.506   -20896686.830 9 -16272338.32847  20890607.070    20890615.4634
  22931914.420    -8522849.412 8  -6629599.18046  22931922.146    22931932.6944
  24025222.583    -2021525.766 8  -1561747.80645  24025216.723    24025228.0484
  24473169.938    -5187536.288 8  -4015891.13145  24473170.639    24473182.1974
  20897904.615   -20603203.005 9 -16042035.69647  20897907.047    20897914.1224
  22316800.651   -11040940.164 8  -8592927.37046  22316806.166    22316814.8584
 00  4 26  3 28 30.0000000  0  8 21 15 23 05 30 25 29 09
  20600661.723   -23143920.105 9 -18026049.64448  20600662.200    20600670.0134
  21823769.637   -13399917.219 8 -10424855.91647  21823772.586    21823782.6904
  20896758.306   -20864357.949 9 -16247147.01947  20896759.399    20896767.4244
  22921860.706    -8575698.643 8  -6670780.29346  22921865.878    22921876.1074
  24007389.592    -2115213.016 8  -1634750.68145  24007388.098    24007398.9504
  24453606.521    -5290357.550 7  -4096011.43345  24453603.047    24453614.9594
  20892509.073   -20631562.411 9 -16064133.90247  20892509.630    20892517.5044
  22333707.109   -10952117.086 8  -8523714.60946  22333708.686    22333717.6504
 00  4 26  3 29  0.0000000  0  8 21 15 23 05 30 25 29 09
  20591773.328   -23190620.065 9 -18062439.18848  20591775.648    20591783.2734
  21817016.355   -13435432.206 8 -10452529.94046  21817014.313    21817023.9544
  20902986.325   -20831625.362 9 -16221641.12247  20902988.061    20902996.5084
  22911888.423    -8628119.116 8  -6711627.29746  22911890.351    22911900.5324
  23989571.575    -2208824.636 8  -1707694.63445  23989573.540    23989585.3974
  24434053.925    -5393047.341 7  -4176029.31745  24434062.268    24434074.0624
  20887152.053   -20659704.165 9 -16086062.53047  20887154.907    20887162.6484
  22350668.741   -10862979.387 8  -8454256.72446  22350670.508    22350680.6424
 00  4 26  3 29 30.0000000  0  8 21 15 23 05 30 25 29 09
  20582951.119   -23236976.046 9 -18098560.71248  20582954.146    20582962.0604
  21810369.685   -13470338.008 8 -10479729.26047  21810372.334    21810381.0124
  20909292.598   -20798494.975 9 -16195825.26447  20909292.150    20909301.0014
  22902000.511    -8680115.204 8  -6752143.65046  22901995.532    22902006.4534
  23971768.919    -2302362.226 8  -1780580.89145  23971773.811    23971785.7304
  24414549.665    -5495590.371 8  -4255932.80445  24414548.832    24414561.2244
  20881840.918   -20687615.363 9 -16107811.52547  20881844.094    20881851.1574
  22367695.282   -10773513.362 8  -8384542.97346  22367696.308    22367704.0414
 00  4 26  3 30  0.0000000  0  8 21 15 23 05 30 25 29 09
  20574194.901   -23282997.525 9 -18134421.58448  20574196.397    20574204.6264
  21803844.071   -13504633.510 8 -10506453.04547  21803846.624    21803855.5854
  20915669.482   -20764974.227 9 -16169705.23147  20915671.307    20915679.6624
  22892183.032    -8731691.554 8  -6792332.93146  22892181.277    22892191.6494
  23953982.670    -2395828.745 8  -1853411.77145  23953987.750    23953999.3964
  24395059.409    -5597994.267 7  -4335727.91845  24395063.224    24395073.8024
  20876574.752   -20715298.729 9 -16129383.00547  20876576.231    20876582.4074
  22384787.060   -10683707.306 8  -8314564.25946  22384786.178    22384794.5034
 00  4 26  3 30 30.0000000  0  8 21 15 23 05 30 25 29 09
  20565503.108   -23328674.106 9 -18170013.69848  20565504.484    20565512.2054
  21797434.578   -13538317.195 8 -10532700.06147  21797437.064    21797445.5944
  20922122.512   -20731063.949 9 -16143281.66847  20922124.383    20922132.6854
  22882441.927    -8782853.682 8  -6832199.42746  22882445.791    22882455.5614
  23936217.165    -2489233.744 8  -1926194.70745  23936213.674    23936225.4624
  24375599.467    -5700257.764 8  -4415413.59645  24375603.341    24375613.0624
  20871346.732   -20742763.863 9 -16150784.37247  20871349.298    20871356.1084
  22401929.479   -10593582.956 8  -8244337.53146  22401935.836    22401944.3344
 00  4 26  3 31  0.0000000  0  8 21 15 23 05 30 25 29 09
  20556879.936   -23373984.558 9 -18205320.53048  20556882.263    20556889.7344
  21791138.734   -13571388.400 8 -10558469.84847  21791142.990    21791151.3824
  20928648.766   -20696758.426 9 -16116550.12347  20928652.541    20928660.9794
  22872783.922    -8833619.654 8  -6871757.24346  22872785.580    22872794.9064
  23918452.477    -2582584.420 8  -1998935.33746  23918449.416    23918461.3204
  24356167.552    -5802380.003 7  -4494989.20245  24356169.099    24356180.4164
  20866161.490   -20770016.058 9 -16172019.79847  20866163.412    20866170.0214
  22419144.283   -10503152.985 8  -8173872.66346  22419144.855    22419153.5344
 00  4 26  3 31 30.0000000  0  8 21 15 23 05 30 25 29 09
  20548329.088   -23418921.422 9 -18240336.24348  20548330.766    20548338.6064
  21784966.810   -13603845.552 8 -10583761.13547  21784966.948    21784976.3754
  20935254.712   -20662060.244 9 -16089512.61047  20935255.323    20935263.8214
  22863197.946    -8883984.653 8  -6911002.59646  22863200.390    22863210.3894
  23900696.305    -2675867.135 8  -2071622.99046  23900697.428    23900709.6434
  24336753.631    -5904377.105 7  -4574467.29845  24336759.304    24336771.7374
  20861016.041   -20797056.128 9 -16193089.97847  20861017.914    20861024.7344
  22436404.864   -10412430.515 8  -8103179.86946  22436407.831    22436416.9314
 00  4 26  3 32  0.0000000  0  8 21 15 23 05 30 25 29 09
  20539850.963   -23463465.805 9 -18275046.12648  20539854.164    20539861.8314
  21778904.787   -13635687.433 8 -10608572.94247  21778907.289    21778916.7234
  20941932.031   -20626964.293 9 -16062165.13547  20941933.911    20941942.1324
  22853695.373    -8933942.304 8  -6949930.56446  22853693.164    22853703.9034
  23882947.685    -2769068.131 8  -2144246.95846  23882962.964    23882974.3124
  24317369.985    -6006263.644 8  -4653859.22845  24317370.701    24317381.9324
  20855910.806   -20823880.019 9 -16213991.68247  20855913.233    20855920.4934
  22453720.135   -10321441.962 8  -8032279.75746  22453722.241    22453731.8164
 00  4 26  3 32 30.0000000  0  8 21 15 23 05 30 25 29 09
  20531453.703   -23507605.100 9 -18309440.36148  20531454.915    20531462.2844
  21772964.383   -13666913.274 8 -10632904.79947  21772965.642    21772974.0764
  20948690.664   -20591460.527 9 -16034499.89947  20948690.190    20948698.6314
  22844263.618    -8983491.304 8  -6988540.08846  22844265.250    22844275.0064
  23865249.189    -2862178.501 8  -2216800.32946  23865243.748    23865255.9884
  24298002.397    -6108036.280 8  -4733162.43245  24298005.241    24298015.6114
  20850848.221   -20850485.320 9 -16234723.07147  20850850.171    20850857.3274
  22471080.574   -10230191.713 8  -7961175.73246  22471085.949    22471096.0344
 00  4 26  3 33  0.0000000  0  8 21 15 23 05 30 25 29 09
  20523128.694   -23551348.870 9 -18343526.39548  20523130.850    20523138.0144
  21767138.953   -13697521.829 8 -10656755.59647  21767140.836    21767150.0654
  20955520.731   -20555542.324 9 -16006511.71347  20955524.643    20955533.4874
  22834913.657    -9032630.488 8  -7026830.28946  22834915.065    22834924.5674
  23847551.021    -2955174.863 8  -2289264.85746  23847547.320    23847559.5534
  24278657.578    -6209710.391 8  -4812388.87345  24278656.937    24278667.0854
  20845825.824   -20876879.510 9 -16255289.88247  20845827.618    20845834.8934
  22488504.020   -10138646.805 8  -7889842.07546  22488507.621    22488515.7614
 00  4 26  3 33 30.0000000  0  8 21 15 23 05 30 25 29 09
  20514873.983   -23594721.338 9 -18377323.10348  20514877.117    20514884.3584
  21761433.923   -13727511.985 8 -10680124.47247  21761434.448    21761442.4904
  20962432.684   -20519213.018 9 -15978203.19847  20962438.081    20962446.5754
  22825640.798    -9081349.093 8  -7064792.75346  22825643.498    22825653.6254
  23829877.493    -3048039.453 8  -2361626.70446  23829874.931    23829886.5494
  24259332.788    -6311271.958 8  -4891527.65145  24259330.254    24259340.2324
  20840842.115   -20903072.256 9 -16275699.80747  20840843.719    20840850.8194
  22505983.610   -10046796.810 8  -7818270.69446  22505985.945    22505995.3844
 00  4 26  3 34  0.0000000  0  8 21 15 23 05 30 25 29 09
  20506690.414   -23637730.116 9 -18410836.42748  20506692.850    20506700.2694
  21755842.328   -13756882.833 8 -10703010.77747  21755844.821    21755852.7554
  20969430.055   -20482471.657 9 -15949573.60247  20969430.191    20969438.1074
  22816445.077    -9129649.357 8  -7102429.23246  22816452.054    22816462.6554
  23812224.557    -3140781.214 8  -2433892.85346  23812226.661    23812239.1374
  24240017.934    -6412703.411 7  -4970565.03645  24240027.711    24240038.3234
  20835894.459   -20929068.058 9 -16295956.21848  20835896.702    20835903.6914
  22523525.316    -9954631.149 8  -7746453.34546  22523524.417    22523532.8264
 00  4 26  3 34 30.0000000  0  8 21 15 23 05 30 25 29 09
  20498575.688   -23680384.595 9 -18444073.67848  20498576.531    20498583.8244
  21750373.003   -13785633.441 8 -10725413.81747  21750373.362    21750381.4304
  20976495.426   -20445330.054 9 -15920632.11647  20976498.026    20976506.1234
  22807338.349    -9177525.783 8  -7139735.46146  22807340.989    22807351.0354
  23794597.511    -3233408.831 8  -2506070.04146  23794600.848    23794613.2454
  24220753.299    -6513996.826 7  -5049494.83145  24220750.721    24220762.3494
  20830981.770   -20954872.780 9 -16316063.74948  20830986.003    20830993.0034
  22541121.297    -9862141.189 8  -7674383.26246  22541124.389    22541133.4684
 00  4 26  3 35  0.0000000  0  8 21 15 23 05 30 25 29 09
  20490522.388   -23722695.535 9 -18477043.23648  20490524.724    20490532.1214
  21745021.696   -13813762.725 8 -10747332.75247  21745020.898    21745028.9574
  20983638.532   -20407797.589 9 -15891386.06747  20983640.008    20983648.3334
  22798308.560    -9224971.401 8  -7176705.97346  22798311.701    22798322.6614
  23776988.006    -3325927.851 8  -2578162.61046  23776993.953    23777006.1154
  24201498.363    -6615140.678 7  -5128308.02945  24201502.981    24201516.1724
  20826113.217   -20980472.920 9 -16336011.83648  20826114.678    20826121.5984
  22558783.882    -9769329.413 8  -7602062.45946  22558786.336    22558795.3824
 00  4 26  3 35 30.0000000  0  8 21 15 23 05 30 25 29 09
  20482538.201   -23764651.344 9 -18509736.05748  20482540.459    20482548.0654
  21739786.911   -13841269.693 8 -10768766.72747  21739786.457    21739795.1454
  20990854.209   -20369877.233 9 -15861837.76947  20990856.242    20990864.5344
  22789369.093    -9271976.356 8  -7213333.14446  22789367.746    22789377.6884
  23759406.015    -3418346.629 8  -2650177.08445  23759407.680    23759418.2074
  24182284.538    -6716123.923 7  -5206996.16345  24182285.808    24182299.3304
  20821281.986   -21005853.951 9 -16355789.20748  20821284.473    20821291.6654
  22576499.550    -9676225.378 8  -7529513.90846  22576502.940    22576511.5754
 00  4 26  3 36  0.0000000  0  8 21 15 23 05 30 25 29 09
  20474627.611   -23806230.315 9 -18542135.25548  20474628.567    20474635.9864
  21734667.424   -13868153.396 8 -10789715.05947  21734670.922    21734679.2004
  20998146.324   -20331572.499 9 -15831989.95847  20998145.296    20998153.8554
  22780503.002    -9318538.006 8  -7249614.85746  22780506.783    22780516.6104
  23741835.426    -3510677.395 8  -2722122.96946  23741837.846    23741848.6064
  24163095.261    -6816958.906 8  -5285568.71545  24163099.466    24163110.9004
  20816498.576   -21031003.016 9 -16375385.87248  20816499.251    20816505.9254
  22594269.155    -9582839.481 8  -7456745.71246  22594274.656    22594283.6554
 00  4 26  3 36 30.0000000  0  8 21 15 23 05 30 25 29 09
  20466788.648   -23847424.392 9 -18574234.53648  20466789.505    20466797.0714
  21729669.937   -13894413.023 8 -10810177.10647  21729673.481    21729682.2474
  21005503.407   -20292890.424 9 -15801848.11047  21005506.085    21005514.8124
  22771723.453    -9364649.829 8  -7285546.06946  22771732.108    22771742.6214
  23724282.314    -3602913.096 8  -2793994.81346  23724285.517    23724297.2144
  24143945.238    -6917642.281 8  -5364023.16145  24143941.136    24143951.2784
  20811757.004   -21055911.464 9 -16394795.02248  20811759.080    20811766.4604
  22612093.712    -9489183.463 8  -7383767.05446  22612096.468    22612104.7614
 00  4 26  3 37  0.0000000  0  8 21 15 23 05 30 25 29 09
  20459021.808   -23888224.146 9 -18606026.55148  20459025.319    20459033.0284
  21724794.430   -13920047.626 8 -10830152.13247  21724795.862    21724803.7734
  21012940.061   -20253813.782 9 -15771398.81647  21012942.305    21012950.6814
  22763041.075    -9410303.920 8  -7321120.59646  22763044.666    22763055.7764
  23706750.925    -3695048.963 8  -2865788.82646  23706753.613    23706763.9764
  24124810.345    -7018164.559 8  -5442352.10545  24124811.312    24124821.5324
  20807062.261   -21080585.054 9 -16414021.17148  20807063.827    20807071.0704
  22629965.083    -9395272.704 8  -7310589.85246  22629967.166    22629975.5074
 00  4 26  3 37 30.0000000  0  8 21 15 23 05 30 25 29 09
  20451339.006   -23928609.062 9 -18637495.31948  20451340.535    20451348.2974
  21720035.876   -13945056.269 8 -10849639.33947  21720036.959    21720044.7554
  21020451.235   -20214340.739 9 -15740640.62247  21020453.440    21020461.9454
  22754446.180    -9455499.221 8  -7356337.62746  22754444.278    22754454.8284
  23689238.802    -3787083.973 8  -2937504.24046  23689239.160    23689250.3994
  24105713.793    -7118534.866 7  -5520562.62445  24105712.031    24105720.9944
  20802406.837   -21105041.545 9 -16433078.19648  20802410.193    20802416.8824
  22647878.770    -9301116.825 8  -7237221.70046  22647884.106    22647893.9264
 00  4 26  3 38  0.0000000  0  8 21 15 23 05 30 25 29 09
  20443733.759   -23968569.956 9 -18668633.67948  20443736.134    20443744.3074
  21715392.815   -13969438.332 8 -10868638.32147  21715396.924    21715405.2284
  21028040.118   -20174469.951 9 -15709572.50047  21028040.891    21028048.8754
  22745930.525    -9500233.789 8  -7391195.63746  22745931.762    22745941.8844
  23671742.224    -3879011.481 8  -3009135.85846  23671744.282    23671756.3984
  24086635.338    -7218745.234 7  -5598648.52045  24086640.407    24086651.6204
  20797794.491   -21129291.831 9 -16451974.53448  20797795.419    20797802.3904
  22665852.962    -9206705.177 8  -7163654.22946  22665850.795    22665859.0354
 00  4 26  3 38 30.0000000  0  8 21 15 23 05 30 25 29 09
  20436209.942   -24008112.753 9 -18699446.23448  20436211.564    20436219.3054
  21710876.318   -13993193.072 8 -10887148.51047  21710876.574    21710884.7554
  21035703.762   -20134186.973 9 -15678183.19147  21035706.673    21035714.5454
  22737505.575    -9544513.121 8  -7425698.94346  22737505.899    22737515.3794
  23654270.960    -3970819.034 8  -3080674.05346  23654274.982    23654286.6264
  24067605.529    -7318789.854 7  -5676605.22645  24067603.256    24067614.1434
  20793213.951   -21153353.003 9 -16470723.50548  20793216.423    20793223.7474
  22683862.837    -9112037.647 8  -7089887.37146  22683865.718    22683875.0414
 00  4 26  3 39  0.0000000  0  8 21 15 23 05 30 25 29 09
  20428764.177   -24047239.391 9 -18729934.51748  20428765.925    20428773.8814
  21706471.980   -14016319.591 8 -10905169.23647  21706474.994    21706484.0544
  21043450.694   -20093479.959 9 -15646463.46847  21043453.251    21043460.9874
  22729166.775    -9588346.144 8  -7459854.47146  22729164.326    22729174.7884
  23636822.082    -4062493.021 8  -3152108.15846  23636829.483    23636841.0574
  24048587.979    -7418681.632 8  -5754442.82246  24048595.978    24048606.9924
  20788670.502   -21177232.161 9 -16489330.65548  20788672.114    20788679.5604
  22701928.170    -9017106.842 8  -7015915.37946  22701930.462    22701938.9144
 00  4 26  3 39 30.0000000  0  8 21 15 23 05 30 25 29 09
  20421393.987   -24085959.893 9 -18760106.33048  20421397.360    20421405.5124
  21702192.479   -14038817.008 8 -10922699.67747  21702194.282    21702202.3304
  21051276.125   -20052366.915 9 -15614427.34947  21051276.822    21051284.8934
  22720903.517    -9631746.727 8  -7493673.02346  22720905.847    22720915.2204
  23619411.942    -4154018.944 8  -3223426.90246  23619412.525    23619424.1924
  24029615.528    -7518419.732 8  -5832160.71846  24029615.656    24029627.0744
  20784160.267   -21200924.837 9 -16507792.50948  20784163.944    20784171.1204
  22720044.869    -8921895.441 8  -6941724.70246  22720047.999    22720055.9484
 00  4 26  3 40  0.0000000  0  8 21 15 23 05 30 25 29 09
  20414099.770   -24124298.680 9 -18789980.70048  20414101.648    20414109.9484
  21698031.958   -14060684.666 8 -10939739.34747  21698033.428    21698041.9384
  21059175.788   -20010857.797 9 -15582082.59847  21059175.682    21059183.8204
  22712726.308    -9674706.647 8  -7527148.20646  22712730.393    22712740.7864
  23602025.701    -4245378.974 8  -3294616.34146  23602027.762    23602038.5614
  24010662.889    -7617994.272 8  -5909751.15746  24010667.597    24010678.7284
  20779690.428   -21224423.012 9 -16526102.77248  20779692.292    20779699.8044
  22738217.500    -8826403.247 8  -6867315.24346  22738220.016    22738228.3014
 00  4 26  3 40 30.0000000  0  8 21 15 23 05 30 25 29 09
  20406874.187   -24162269.751 9 -18819568.54748  20406876.105    20406884.2034
  21693989.854   -14081921.829 8 -10956287.75947  21693991.684    21694000.4684
  21067147.627   -19968957.363 9 -15549432.93347  21067148.663    21067157.2264
  22704635.728    -9717226.552 8  -7560280.52546  22704639.407    22704647.5304
  23584674.340    -4336573.155 8  -3365676.57646  23584673.246    23584684.4544
  23991745.761    -7717414.092 8  -5987221.05446  23991748.388    23991758.7394
  20775255.255   -21247723.671 9 -16544259.07748  20775258.649    20775265.3074
  22756438.103    -8730641.141 8  -6792695.45746  22756442.211    22756450.1554
 00  4 26  3 41  0.0000000  0  8 21 15 23 05 30 25 29 09
  20399718.427   -24199870.043 9 -18848867.47148  20399720.863    20399728.8854
  21690068.675   -14102528.087 8 -10972344.57247  21690070.452    21690079.0494
  21075192.372   -19926677.005 9 -15516487.22147  21075194.606    21075203.0414
  22696634.686    -9759295.031 8  -7593061.08246  22696633.792    22696643.2494
  23567345.778    -4427611.786 8  -3436615.61246  23567348.541    23567360.8324
  23972856.327    -7816672.968 8  -6064565.54845  23972858.296    23972868.8974
  20770861.713   -21270813.099 9 -16562250.81648  20770864.368    20770871.3444
  22774720.553    -8634611.309 8  -6717867.07046  22774716.469    22774725.5994
 00  4 26  3 41 30.0000000  0  8 21 15 23 05 30 25 29 09
  20392635.245   -24237097.615 9 -18877875.97348  20392636.804    20392644.8964
  21686266.771   -14122502.927 8 -10987909.38447  21686269.403    21686277.0884
  21083310.498   -19884020.859 9 -15483248.68047  21083312.184    21083320.2504
  22688714.705    -9800897.066 8  -7625478.16746  22688716.475    22688726.1534
  23550047.869    -4518507.410 8  -3507443.18746  23550051.907    23550063.7004
  23954002.594    -7915769.309 8  -6141783.36045  23954001.436    23954012.1144
  20766508.683   -21293682.992 9 -16580071.46948  20766512.368    20766519.2454
  22793038.615    -8538323.093 8  -6642837.36346  22793039.771    22793048.2384
 00  4 26  3 42  0.0000000  0  8 21 15 23 05 30 25 29 09
  20385625.380   -24273928.608 9 -18906575.46248  20385627.973    20385636.0464
  21682587.404   -14141845.386 8 -11002981.38947  21682588.488    21682596.7824
  21091504.161   -19840961.907 9 -15449696.26647  21091505.686    21091514.1254
  22680894.853    -9842013.104 8  -7657516.55546  22680892.620    22680902.3834
  23532779.515    -4609266.077 8  -3578164.06746  23532781.892    23532792.5734
  23935169.686    -8014714.311 8  -6218883.30445  23935172.752    23935182.3844
  20762199.537   -21316337.223 9 -16597724.09048  20762201.584    20762208.4404
  22811408.360    -8441798.443 8  -6567623.39946  22811408.044    22811415.7514
 00  4 26  3 42 30.0000000  0  8 21 15 23 05 30 25 29 09
  20378698.730   -24310336.661 9 -18934945.36748  20378699.965    20378707.6444
  21679027.095   -14160554.909 8 -11017560.20347  21679028.393    21679036.9954
  21099777.308   -19797472.009 9 -15415808.05247  21099780.997    21099789.7984
  22673156.947    -9882655.865 8  -7689186.17546  22673158.287    22673168.1654
  23515533.748    -4699898.054 8  -3648786.22946  23515534.668    23515545.1634
  23916368.678    -8113520.517 8  -6295875.06545  23916371.435    23916381.2604
  20757928.493   -21338777.220 9 -16615209.81048  20757931.112    20757938.4804
  22829817.328    -8345027.675 8  -6492217.63546  22829822.139    22829831.4554
 00  4 26  3 43  0.0000000  0  8 21 15 23 05 30 25 29 09
  20371852.382   -24346309.681 9 -18962976.28448  20371854.659    20371862.2004
  21675586.828   -14178631.162 8 -11031645.59247  21675588.806    21675597.1464
  21108135.611   -19753555.137 9 -15381587.13947  21108138.130    21108146.6314
  22665513.339    -9922824.774 8  -7720486.55846  22665514.423    22665523.6534
  23498307.746    -4790392.042 8  -3719300.86745  23498312.903    23498323.8854
  23897592.282    -8212183.672 8  -6372755.34546  23897595.715    23897606.3584
  20753702.945   -21360996.802 9 -16632523.78448  20753703.203    20753710.0764
  22848281.156    -8248003.787 8  -6416614.64146  22848285.244    22848294.4254
 00  4 26  3 43 30.0000000  0  8 21 15 23 05 30 25 29 09
  20365090.415   -24381851.281 9 -18990671.03848  20365091.183    20365099.0274
  21672268.138   -14196073.537 8 -11045237.01147  21672269.562    21672277.1904
  21116575.479   -19709211.557 9 -15347033.72547  21116576.816    21116585.1434
  22657958.783    -9962516.800 8  -7751415.34646  22657961.509    22657970.5814
  23481119.096    -4880729.202 8  -3789693.32845  23481123.228    23481133.0924
  23878850.341    -8310707.272 8  -6449526.88846  23878848.270    23878858.0004
  20749509.813   -21383010.231 9 -16649677.14148  20749514.049    20749520.8424
  22866793.708    -8150742.286 8  -6340826.50246  22866794.474    22866802.6414
 00  4 26  3 44  0.0000000  0  8 21 15 23 05 30 25 29 09
  20358407.525   -24416964.045 9 -19018031.62248  20358409.383    20358417.3164
  21669069.312   -14212881.573 8 -11058334.12647  21669070.791    21669078.7774
  21125094.148   -19664445.733 9 -15312151.28547  21125095.690    21125103.5664
  22650499.658   -10001736.712 8  -7781976.25146  22650498.684    22650507.3024
  23463956.171    -4970902.815 8  -3859958.33145  23463963.420    23463974.0284
  23860127.308    -8409077.431 8  -6526178.88045  23860129.122    23860138.6434
  20745362.237   -21404823.987 9 -16666674.86448  20745363.318    20745370.0454
  22885342.503    -8053247.067 8  -6264856.22646  22885346.681    22885356.1524
 00  4 26  3 44 30.0000000  0  8 21 15 23 05 30 25 29 09
  20351804.601   -24451659.984 9 -19045067.40348  20351806.968    20351814.5574
  21665989.136   -14229054.784 8 -11070936.58747  21665992.734    21666002.1804
  21133689.550   -19619283.353 9 -15276959.84447  21133689.693    21133697.8674
  22643122.203   -10040493.818 8  -7812176.52946  22643123.192    22643132.5034
  23446823.776    -5060915.509 7  -3930097.93345  23446833.840    23446845.5744
  23841449.791    -8507276.964 8  -6602697.90746  23841442.283    23841451.5444
  20741249.276   -21426429.221 9 -16683510.11047  20741251.593    20741258.2454
  22903941.243    -7955518.107 8  -6188703.83446  22903944.352    22903953.2224
 00  4 26  3 45  0.0000000  0  8 21 15 23 05 30 25 29 09
  20345281.971   -24485943.987 9 -19071782.19848  20345283.193    20345290.6234
  21663034.322   -14244592.614 8 -11083043.98247  21663036.267    21663045.1434
  21142352.142   -19573747.747 9 -15241477.58147  21142354.457    21142363.6284
  22635836.440   -10078773.939 8  -7842005.11246  22635838.510    22635848.0044
  23429737.517    -5150761.845 8  -4000107.93245  23429737.000    23429747.0934
  23822787.693    -8605284.682 8  -6679067.49445  23822791.925    23822801.3344
  20737176.770   -21447824.959 9 -16700182.10147  20737180.103    20737186.8394
  22922584.382    -7857579.741 8  -6112388.25646  22922581.056    22922589.9504
 00  4 26  3 45 30.0000000  0  8 21 15 23 05 30 25 29 09
  20338835.691   -24519811.738 9 -19098172.64048  20338838.340    20338845.6694
  21660200.459   -14259495.050 9 -11094656.29747  21660201.273    21660208.6354
  21151090.739   -19527828.091 9 -15205696.06947  21151093.188    21151101.6854
  22628644.450   -10116576.267 8  -7871461.40446  22628644.774    22628654.5144
  23412673.360    -5240448.346 8  -4069993.34245  23412670.833    23412680.4854
  23804177.166    -8703089.621 8  -6755279.06546  23804179.389    23804190.1014
  20733144.214   -21469021.626 9 -16716698.98347  20733146.422    20733153.4834
  22941246.370    -7759440.302 8  -6035916.00346  22941256.821    22941265.3874
 00  4 26  3 46  0.0000000  0  8 21 15 23 05 30 25 29 09
  20332473.056   -24553251.839 9 -19124229.84748  20332474.806    20332482.3714
  21657483.443   -14273761.395 8 -11105772.93447  21657486.545    21657494.3524
  21159903.542   -19481522.280 9 -15169613.64147  21159905.499    21159913.0444
  22621536.710   -10153904.024 8  -7900547.90546  22621540.880    22621550.3394
  23395634.951    -5329976.456 8  -4139755.31946  23395634.079    23395644.8354
  23785607.995    -8800678.745 8  -6831322.45646  23785608.603    23785619.3864
  20729152.759   -21490001.459 9 -16733046.93047  20729154.136    20729161.3594
  22959970.306    -7661084.275 8  -5959274.98046  22959972.772    22959982.4154
 00  4 26  3 46 30.0000000  0  8 21 15 23 05 30 25 29 09
  20326192.263   -24586258.330 9 -19149949.16148  20326193.894    20326201.3564
  21654891.472   -14287391.211 8 -11116393.56447  21654892.656    21654900.9014
  21168786.366   -19434835.030 9 -15133233.98347  21168789.061    21168797.7254
  22614527.151   -10190757.047 8  -7929264.48246  22614528.733    22614538.6454
  23378628.453    -5419342.899 8  -4209391.35446  23378627.535    23378639.0524
  23767077.505    -8898054.962 8  -6907199.95346  23767079.080    23767089.0614
  20725199.871   -21510769.570 9 -16749229.87948  20725202.154    20725209.2694
  22978729.937    -7562501.168 8  -5882457.04346  22978732.394    22978742.3184
 00  4 26  3 47  0.0000000  0  8 21 15 23 05 30 25 29 09
  20319992.621   -24618836.165 9 -19175334.45948  20319994.136    20320001.7894
  21652419.505   -14300384.257 8 -11126518.02647  21652419.844    21652428.6934
  21177745.032   -19387759.080 9 -15096551.45847  21177747.524    21177755.5574
  22607601.362   -10227133.751 8  -7957609.90846  22607606.309    22607615.3694
  23361655.393    -5508533.054 8  -4278890.02346  23361655.840    23361665.0714
  23748587.940    -8995223.543 8  -6982915.69146  23748588.709    23748598.4424
  20721285.609   -21531332.698 9 -16765253.10648  20721289.357    20721296.4004
  22997540.066    -7463675.484 8  -5805450.06046  22997538.304    22997547.7354
 00  4 26  3 47 30.0000000  0  8 21 15 23 05 30 25 29 09
  20313875.203   -24650982.521 9 -19200383.55148  20313877.061    20313884.8044
  21650065.824   -14312740.254 8 -11136146.04647  21650067.467    21650077.4524
  21186778.538   -19340284.516 9 -15059558.32147  21186781.965    21186790.0054
  22600772.881   -10263034.692 8  -7985584.58446  22600774.120    22600783.5974
  23344720.017    -5597532.632 8  -4348240.23246  23344720.157    23344729.8484
  23730127.686    -9092203.919 8  -7058484.74346  23730133.701    23730143.7724
  20717414.751   -21551687.740 9 -16781114.17648  20717416.200    20717423.0914
  23016390.709    -7364598.724 8  -5728247.45446  23016392.225    23016401.3484
 00  4 26  3 48  0.0000000  0  8 21 15 23 05 30 25 29 09
  20307839.336   -24682700.154 9 -19225098.58548  20307841.626    20307849.3224
  21647833.567   -14324458.859 8 -11145277.46347  21647838.356    21647847.5524
  21195888.064   -19292412.834 9 -15022255.75147  21195891.309    21195899.7604
  22594034.590   -10298452.682 8  -8013182.95546  22594034.045    22594044.3454
  23327815.607    -5686328.498 8  -4417431.65146  23327820.557    23327832.5164
  23711701.258    -9189008.037 8  -7133916.42346  23711712.199    23711723.3074
  20713581.921   -21571825.698 9 -16796806.06548  20713583.653    20713590.5104
  23035290.458    -7265275.101 8  -5650852.45146  23035292.994    23035301.8544
 00  4 26  3 48 30.0000000  0  8 21 15 23 05 30 25 29 09
  20301885.477   -24713989.982 9 -19249480.26148  20301887.137    20301894.7974
  21645728.482   -14335539.875 8 -11153911.97147  21645730.181    21645739.0474
  21205075.329   -19244135.015 9 -14984636.70347  21205078.087    21205086.7074
  22587388.567   -10333378.179 8  -8040397.57046  22587387.580    22587398.4214
  23310957.805    -5774918.518 8  -4486462.68946  23310963.719    23310974.4544
  23693329.328    -9285645.716 8  -7209218.43946  23693323.097    23693333.0614
  20709788.967   -21591755.501 9 -16812335.75648  20709791.253    20709798.0194
  23054242.366    -7165718.274 8  -5573275.75746  23054237.835    23054247.3514
 00  4 26  3 49  0.0000000  0  8 21 15 23 05 30 25 29 09
  20296011.862   -24744851.294 9 -19273528.03248  20296014.297    20296022.0654
  21643741.927   -14345983.491 8 -11162049.87547  21643742.832    21643751.2354
  21214342.335   -19195436.687 9 -14946689.97647  21214345.064    21214353.8304
  22580834.519   -10367795.784 8  -8067216.43546  22580839.073    22580848.4344
  23294140.685    -5863295.888 8  -4555328.06546  23294146.167    23294156.4204
  23674959.111    -9382126.070 8  -7284397.87646  23674963.554    23674973.5194
  20706038.756   -21611467.569 9 -16827695.78348  20706040.179    20706047.3474
  23073217.810    -7065954.593 8  -5495537.87146  23073221.720    23073231.3394
 00  4 26  3 49 30.0000000  0  8 21 15 23 05 30 25 29 09
  20290224.778   -24775267.836 9 -19297229.22548  20290225.985    20290234.1754
  21641871.607   -14355789.518 8 -11169690.94247  21641876.212    21641885.5454
  21223688.377   -19146317.490 9 -14908415.31147  21223692.540    21223700.9314
  22574383.317   -10401694.972 8  -8093631.33846  22574388.163    22574397.9054
  23277369.360    -5951460.741 8  -4624027.80346  23277367.667    23277379.4454
  23656635.805    -9478448.420 8  -7359454.16546  23656634.133    23656643.9074
  20702326.413   -21630969.293 9 -16842891.95448  20702328.635    20702335.8864
  23092240.315    -6966005.292 8  -5417655.33646  23092241.793    23092252.0214
 00  4 26  3 50  0.0000000  0  8 21 15 23 05 30 25 29 09
  20284521.257   -24805243.083 9 -19320586.55648  20284522.214    20284529.9844
  21640130.144   -14364957.563 8 -11176834.86047  21640131.989    21640140.2614
  21233118.293   -19096778.885 9 -14869813.84247  21233119.538    21233127.8064
  22568035.624   -10435062.555 8  -8119632.00246  22568038.384    22568047.7694
  23260611.848    -6039420.463 8  -4692567.67046  23260629.270    23260641.2194
  23638330.069    -9574594.499 8  -7434373.15046  23638337.313    23638347.1494
  20698654.104   -21650271.898 9 -16857932.94248  20698655.504    20698662.9364
  23111294.179    -6865870.986 8  -5339628.65146  23111297.466    23111306.7184
 00  4 26  3 50 30.0000000  0  8 21 15 23 05 30 25 29 09
  20278902.331   -24834767.665 9 -19343592.72248  20278903.825    20278911.6664
  21638508.749   -14373487.467 8 -11183481.56147  21638508.557    21638518.2394
  21242622.171   -19046831.331 9 -14830893.71647  21242624.322    21242632.4344
  22561788.813   -10467899.593 8  -8145219.24346  22561789.849    22561799.0234
  23243923.709    -6127172.474 8  -4760945.70846  23243932.205    23243942.6224
  23620072.184    -9670557.336 8  -7509149.30746  23620075.880    23620086.2874
  20695018.996   -21669378.642 9 -16872821.32148  20695020.219    20695027.3054
  23130384.009    -6765550.768 8  -5261457.09546  23130387.275    23130396.5074
 00  4 26  3 51  0.0000000  0  8 21 15 23 05 30 25 29 09
  20273370.495   -24863833.591 9 -19366241.48848  20273372.850    20273380.5474
  21637005.719   -14381379.273 8 -11189631.05647  21637006.486    21637015.6674
  21252199.110   -18996489.041 9 -14791665.99647  21252203.744    21252212.3654
  22555640.237   -10500216.148 8  -8170400.91246  22555639.818    22555649.2184
  23227278.310    -6214699.993 8  -4829148.83446  23227275.032    23227286.4664
  23601854.325    -9766326.272 8  -7583774.39446  23601851.066    23601861.9284
  20691419.145   -21688291.880 9 -16887558.90348  20691420.935    20691428.1044
  23149510.750    -6665035.256 8  -5183133.35846  23149514.414    23149523.8194
 00  4 26  3 51 30.0000000  0  8 21 15 23 05 30 25 29 09
  20267928.569   -24892437.521 9 -19388530.24748  20267929.962    20267937.5414
  21635623.170   -14388632.824 8 -11195283.14847  21635625.987    21635635.3534
  21261854.160   -18945763.492 9 -14752139.63647  21261856.526    21261865.1604
  22549586.434   -10532023.395 8  -8195185.70446  22549587.575    22549596.7344
  23210656.761    -6301997.615 8  -4897172.81046  23210662.855    23210673.6594
  23583663.704    -9861881.980 8  -7658233.26646  23583667.884    23583678.7064
  20687856.690   -21707010.979 9 -16902145.18348  20687858.559    20687865.4484
  23168676.507    -6564304.823 8  -5104642.17146  23168682.716    23168692.8784
 00  4 26  3 52  0.0000000  0  8 21 15 23 05 30 25 29 09
  20262570.835   -24920585.722 9 -19410463.91348  20262573.235    20262581.1604
  21634366.434   -14395248.131 8 -11200437.92947  21634368.038    21634376.4134
  21271578.713   -18894656.523 9 -14712316.06747  21271581.801    21271590.3544
  22543626.446   -10563329.333 8  -8219579.89546  22543629.912    22543639.2374
  23194088.255    -6389075.300 8  -4965025.42246  23194092.783    23194103.3534
  23565526.511    -9957225.087 8  -7732526.51046  23565524.983    23565534.9644
  20684335.947   -21725517.512 9 -16916565.85448  20684337.418    20684344.4564
  23187894.729    -6463348.628 8  -5025975.07346  23187894.614    23187904.7624
 00  4 26  3 52 30.0000000  0  8 21 15 23 05 30 25 29 09
  20257302.624   -24948274.768 9 -19432039.78748  20257303.920    20257311.9444
  21633227.565   -14401224.903 8 -11205095.20047  21633229.600    21633239.5224
  21281378.996   -18843166.593 9 -14672194.09147  21281380.223    21281388.7824
  22537761.849   -10594157.681 8  -8243601.91446  22537762.856    22537772.9104
  23177557.557    -6475934.979 8  -5032708.12246  23177562.993    23177574.3254
  23547417.904   -10052365.060 8  -7806661.52146  23547420.563    23547430.1964
  20680856.905   -21743798.104 9 -16930810.47648  20680858.523    20680865.5654
  23207148.308    -6362180.069 8  -4947142.49046  23207147.065    23207155.6764
 00  4 26  3 53  0.0000000  0  8 21 15 23 05 30 25 29 09
  20252120.763   -24975506.051 9 -19453258.95948  20252122.146    20252130.0994
  21632212.062   -14406563.328 8 -11209255.03447  21632215.002    21632222.6334
  21291252.334   -18791283.751 9 -14631765.94347  21291253.272    21291261.6454
  22531985.096   -10624504.386 8  -8267248.64146  22531987.554    22531997.6314
  23161073.273    -6562594.767 8  -5100235.08446  23161072.104    23161082.7584
  23529351.039   -10147308.342 8  -7880643.23946  23529353.201    23529363.0434
  20677420.158   -21761854.850 9 -16944880.64648  20677422.099    20677429.0744
  23226432.890    -6260814.687 8  -4868156.50546  23226436.267    23226445.5284
 00  4 26  3 53 30.0000000  0  8 21 15 23 05 30 25 29 09
  20247024.430   -25002287.012 9 -19474127.23248  20247025.958    20247033.9234
  21631318.647   -14411263.656 8 -11212917.63847  21631320.186    21631328.4414
  21301201.547   -18738992.459 9 -14591019.53447  21301203.997    21301212.3494
  22526301.340   -10654359.749 8  -8290512.49946  22526306.806    22526316.8364
  23144612.425    -6649073.345 8  -5167620.86046  23144616.019    23144626.5814
  23511317.804   -10242068.255 8  -7954482.03346  23511320.055    23511330.4504
  20674028.296   -21779684.451 9 -16958773.83648  20674029.287    20674036.3584
  23245761.750    -6159270.677 8  -4789031.35646  23245759.273    23245768.9174
 00  4 26  3 54  0.0000000  0  8 21 15 23 05 30 25 29 09
  20242013.065   -25028616.458 9 -19494643.67348  20242015.650    20242023.1884
  21630545.168   -14415326.026 8 -11216083.14147  21630547.212    21630555.1964
  21311232.261   -18686277.656 9 -14549943.11347  21311235.498    21311244.1244
  22520718.002   -10683722.097 8  -8313392.17446  22520719.776    22520729.0564
  23128187.622    -6735368.846 8  -5234863.93746  23128194.652    23128204.7434
  23493317.797   -10336651.386 8  -8028183.10146  23493321.805    23493332.4214
  20670674.637   -21797301.269 9 -16972501.19748  20670677.030    20670684.2014
  23265112.572    -6057567.496 8  -4709782.19146  23265112.055    23265121.8644
 00  4 26  3 54 30.0000000  0  8 21 15 23 05 30 25 29 09
  20237089.903   -25054492.505 9 -19514806.80648  20237091.475    20237099.2914
  21629894.463   -14418750.438 8 -11218751.50047  21629896.009    21629904.6044
  21321345.254   -18633135.753 9 -14508533.88547  21321347.788    21321356.3744
  22515231.616   -10712581.461 8  -8335879.93446  22515228.418    22515237.8264
  23111813.833    -6821455.939 8  -5301944.67346  23111813.232    23111822.8684
  23475357.375   -10431042.475 8  -8101734.52946  23475360.220    23475370.1234
  20667360.248   -21814721.790 9 -16986075.59548  20667361.958    20667369.0144
  23284491.913    -5955713.292 8  -4630415.33946  23284494.523    23284504.3344
 00  4 26  3 55  0.0000000  0  8 21 15 23 05 30 25 29 09
  20232253.055   -25079913.135 9 -19534615.08448  20232254.300    20232262.0664
  21629361.249   -14421536.968 8 -11220922.82147  21629365.424    21629373.6424
  21331541.481   -18579565.234 9 -14466790.67747  21331541.744    21331550.4304
  22509828.401   -10740921.909 8  -8357963.33846  22509834.035    22509844.0624
  23095472.807    -6907317.459 8  -5368849.62046  23095473.747    23095483.0634
  23457438.401   -10525226.219 8  -8175124.40446  23457438.155    23457447.5024
  20664080.003   -21831955.754 9 -16999504.65448  20664082.497    20664089.3774
  23303908.580    -5853685.923 8  -4550913.54846  23303909.908    23303918.9774
 00  4 26  3 55 30.0000000  0  8 21 15 23 05 30 25 29 09
  20227500.292   -25104880.067 9 -19554069.82648  20227502.933    20227510.8124
  21628958.142   -14423685.749 8 -11222597.18947  21628957.001    21628964.9844
  21341814.623   -18525570.834 9 -14424717.15647  21341816.803    21341825.7324
  22504533.720   -10768749.425 8  -8379647.06546  22504538.777    22504548.3464
  23079179.353    -6992929.096 8  -5435559.84446  23079182.424    23079192.1554
  23439554.374   -10619188.286 8  -8248341.50846  23439557.460    23439567.3024
  20660836.159   -21849003.135 9 -17012788.31148  20660838.259    20660845.1054
  23323360.039    -5751466.655 8  -4471262.20146  23323361.643    23323370.7304
 00  4 26  3 56  0.0000000  0  8 21 15 23 05 30 25 29 09
  20222839.271   -25129378.547 9 -19573159.55448  20222840.821    20222848.8274
  21628667.773   -14425197.059 8 -11223774.84547  21628668.669    21628677.8594
  21352164.111   -18471170.716 9 -14382327.49547  21352168.591    21352177.7104
  22499338.090   -10796070.455 8  -8400936.12846  22499340.122    22499349.0504
  23062937.174    -7078279.474 8  -5502066.48846  23062941.450    23062950.2934
  23421716.612   -10712914.435 8  -8321374.79146  23421722.866    23421731.5694
  20657625.081   -21865865.556 9 -17025927.86647  20657629.149    20657635.7124
  23342850.133    -5649051.651 8  -4391458.35846  23342850.093    23342859.6304
 00  4 26  3 56 30.0000000  0  8 21 15 23 05 30 25 29 09
  20218269.477   -25153397.034 9 -19591875.25648  20218270.389    20218278.2094
  21628501.228   -14426071.065 8 -11224455.86247  21628502.206    21628510.8644
  21362591.068   -18416388.645 9 -14339640.21047  21362593.848    21362602.4154
  22494235.645   -10822878.350 8  -8421825.31846  22494239.196    22494247.2074
  23046748.340    -7163363.957 8  -5568365.93146  23046749.624    23046759.1534
  23403926.727   -10806409.364 8  -8394227.94746  23403930.433    23403939.0194
  20654455.963   -21882532.195 9 -17038914.81948  20654457.733    20654464.2344
  23362367.932    -5546434.454 8  -4311496.94346  23362377.383    23362386.4914
 00  4 26  3 57  0.0000000  0  8 21 15 23 05 30 25 29 09
  20213790.867   -25176932.617 9 -19610214.65948  20213792.067    20213799.5284
  21628456.122   -14426307.966 8 -11224640.42147  21628457.779    21628465.1304
  21373086.253   -18361233.139 9 -14296661.93247  21373089.687    21373098.1844
  22489230.402   -10849175.958 8  -8442316.89446  22489235.209    22489243.3444
  23030601.182    -7248195.674 8  -5634468.40446  23030606.413    23030616.8214
  23386181.433   -10899692.304 8  -8466915.85346  23386178.698    23386188.2584
  20651321.657   -21899003.876 9 -17051749.88548  20651323.458    20651330.2114
  23381939.864    -5443625.433 8  -4231386.04246  23381941.882    23381950.5634
 00  4 26  3 57 30.0000000  0  8 21 15 23 05 30 25 29 09
  20209402.798   -25199983.399 9 -19628176.29348  20209405.509    20209412.9864
  21628530.614   -14425908.272 8 -11224328.95147  21628533.105    21628541.6694
  21383652.674   -18305715.113 9 -14253401.18647  21383654.314    21383663.3434
  22484331.687   -10874960.979 8  -8462409.05846  22484327.868    22484336.9004
  23014510.876    -7332775.454 8  -5700374.58146  23014511.532    23014521.2684
  23368458.588   -10992767.052 8  -8539441.53546  23368467.874    23368476.8864
  20648223.836   -21915282.265 9 -17064434.30048  20648225.980    20648232.7094
  23401535.773    -5340657.993 8  -4151151.72545  23401535.347    23401543.8624
 00  4 26  3 58  0.0000000  0  8 21 15 23 05 30 25 29 09
  20205109.097   -25222556.701 9 -19645765.87048  20205110.169    20205117.4874
  21628729.525   -14424872.304 8 -11223521.67747  21628730.373    21628739.0774
  21394286.438   -18249836.637 9 -14209859.56747  21394287.860    21394296.6324
  22479511.010   -10900221.984 8  -8482092.90246  22479520.139    22479530.8904
  22998458.679    -7417105.545 8  -5766086.18846  22998464.290    22998473.7474
  23350796.957   -11085634.021 8  -8611805.31946  23350795.726    23350805.2024
  20645163.903   -21931365.519 9 -17076966.69048  20645165.503    20645171.9144
  23421149.456    -5237549.408 8  -4070807.43445  23421156.399    23421165.2464
 00  4 26  3 58 30.0000000  0  8 21 15 23 05 30 25 29 09
  20200900.087   -25244670.525 9 -19662997.40848  20200902.238    20200909.3984
  21629046.187   -14423200.368 8 -11222218.88347  21629047.980    21629056.8454
  21404990.153   -18193575.089 9 -14166019.44447  21404993.441    21405002.3244
  22474812.938   -10924950.630 8  -8501361.92946  22474815.011    22474823.8134
  22982461.876    -7501182.429 8  -5831600.49646  22982465.097    22982473.8514
  23333160.002   -11178296.831 8  -8684010.02446  23333163.140    23333171.7204
  20642141.963   -21947250.672 9 -17089344.74048  20642142.633    20642149.2024
  23440803.998    -5134298.107 8  -3990351.94845  23440804.639    23440813.7484
 00  4 26  3 59  0.0000000  0  8 21 15 23 05 30 25 29 09
  20196777.361   -25266339.453 9 -19679882.28048  20196778.544    20196786.0144
  21629487.167   -14420892.861 8 -11220420.86647  21629487.384    21629496.0404
  21415772.830   -18136911.374 9 -14121865.95447  21415776.465    21415784.9144
  22470210.491   -10949144.269 8  -8520214.04646  22470211.494    22470220.8504
  22966512.285    -7585011.452 8  -5896921.68646  22966512.150    22966521.4194
  23315566.868   -11270746.341 8  -8756048.53046  23315569.492    23315579.7684
  20639156.025   -21962933.358 9 -17101565.01648  20639158.162    20639164.9004
  23460473.133    -5030903.924 8  -3909785.11246  23460480.641    23460489.2804
 00  4 26  3 59 30.0000000  0  8 21 15 23 05 30 25 29 09
  20192739.178   -25287558.733 9 -19696416.78248  20192740.604    20192748.2494
  21630042.493   -14417949.925 8 -11218127.70547  21630047.580    21630056.2654
  21426633.776   -18079840.319 9 -14077395.03647  21426636.829    21426645.3824
  22465707.415   -10972800.533 8  -8538647.44546  22465709.777    22465718.8954
  22950605.041    -7668582.750 8  -5962042.03046  22950609.075    22950618.1824
  23298018.101   -11362976.774 8  -8827916.26846  23298019.161    23298028.2474
  20636213.403   -21978398.400 9 -17113615.65348  20636215.183    20636222.2184
  23480185.161    -4927354.544 8  -3829097.32846  23480184.995    23480194.1424
 00  4 26  4  0  0.0000000  0  8 21 15 23 05 30 25 29 09
  20188787.541   -25308322.243 9 -19712596.13048  20188789.354    20188796.9164
  21630724.334   -14414372.080 8 -11215339.75047  21630727.567    21630737.9474
  21437573.730   -18022350.801 9 -14032598.05947  21437576.731    21437585.3424
  22461309.019   -10995920.789 8  -8556663.17346  22461310.908    22461319.0834
  22934752.923    -7751898.951 8  -6026963.61446  22934754.624    22934763.2034
  23280503.828   -11454989.571 8  -8899614.46946  23280509.050    23280518.5154
  20633313.944   -21993639.734 9 -17125492.03448  20633315.150    20633321.9674
  23499925.916    -4823634.776 8  -3748276.80646  23499922.379    23499932.0114
 00  4 26  4  0 30.0000000  0  8 21 15 23 05 30 25 29 09
  20184925.848   -25328612.949 9 -19728407.06348  20184928.415    20184935.7804
  21631529.529   -14410159.898 8 -11212057.52747  21631530.302    21631538.4374
  21448592.487   -17964447.297 9 -13987478.48647  21448595.683    21448604.6064
  22457011.208   -11018503.729 8  -8574260.22446  22457012.679    22457020.9734
  22918948.929    -7834955.294 8  -6091682.70746  22918948.681    22918958.6694
  23263042.298   -11546789.366 8  -8971146.70446  23263041.043    23263048.7634
  20630457.122   -22008649.323 9 -17137187.84348  20630458.628    20630465.5544
  23519694.956    -4719738.715 8  -3667318.92246  23519693.510    23519703.0844
 00  4 26  4  1  0.0000000  0  8 21 15 23 05 30 25 29 09
  20181158.585   -25348414.845 9 -19743837.10648  20181159.694    20181167.4974
  21632449.841   -14405313.881 8 -11208281.42447  21632451.996    21632460.8424
  21459686.987   -17906152.300 9 -13942053.85047  21459688.689    21459697.4274
  22452811.115   -11040548.249 8  -8591437.71346  22452817.124    22452825.6104
  22903184.223    -7917744.956 8  -6156193.99246  22903194.145    22903203.4934
  23245606.904   -11638378.538 8  -9042514.81146  23245610.972    23245619.6964
  20627642.523   -22023435.202 9 -17148709.28848  20627645.246    20627652.2054
  23539492.117    -4615678.384 8  -3586233.02546  23539495.328    23539505.2384
 00  4 26  4  1 30.0000000  0  8 21 15 23 05 30 25 29 09
  20177482.090   -25367724.207 9 -19758883.36148  20177485.095    20177493.3594
  21633492.313   -14399834.419 8 -11204011.69347  21633495.177    21633503.9224
  21470852.026   -17847469.843 9 -13896327.31547  21470855.958    21470864.7294
  22448719.565   -11062064.637 8  -8608203.67546  22448723.156    22448731.7524
  22887494.310    -8000256.893 8  -6220488.88246  22887492.984    22887502.3084
  23228220.453   -11729755.249 8  -9113717.32246  23228222.789    23228232.0004
  20624870.791   -22038001.279 9 -17160059.44848  20624873.299    20624880.4284
  23559317.711    -4511464.901 8  -3505027.75146  23559326.722    23559336.2044
 00  4 26  4  2  0.0000000  0  8 21 15 23 05 30 25 29 09
  20173899.855   -25386555.258 9 -19773556.90748  20173901.855    20173910.2114
  21634658.051   -14393722.308 8 -11199249.01147  21634658.773    21634666.6644
  21482096.059   -17788397.061 9 -13850296.63347  21482097.386    21482105.8754
  22444723.380   -11083048.220 8  -8624554.47146  22444729.481    22444738.7074
  22871842.883    -8082485.319 8  -6284562.85646  22871845.931    22871854.1194
  23210878.270   -11820920.866 8  -9184755.41146  23210874.470    23210883.7144
  20622139.476   -22052356.609 9 -17171245.36548  20622141.084    20622148.3514
  23579180.803    -4407110.351 8  -3423712.53545  23579185.090    23579194.2784
